GFSSW_2pvu_pres_000.txt.gz
Presure
185 184 203 214 188 227 228 230 229 219 222 277 279 278 277 231 215 207 222 252 162 191 192 182 168 165 173 221 113 104 123 130 104 97 110 193 141 110 174 112 183 92 84 87 95
207 191 196 204 187 217 229 234 209 239 266 258 254 256 255 261 263 276 215 222 258 172 195 185 101 114 149 161 157 208 206 134 95 85 179 139 192 158 99 81 84 90 74 86 89
178 198 190 195 197 212 223 210 224 255 256 241 238 246 253 257 260 262 275 228 225 264 147 154 177 185 180 209 207 109 208 149 112 190 134 106 174 186 91 86 86 71 89 84 75
180 194 198 184 219 193 223 212 229 256 246 238 242 239 241 238 244 262 272 291 229 241 262 200 200 173 193 108 108 113 124 163 188 216 114 109 179 187 96 95 88 85 91 90 91
187 194 205 186 215 223 207 215 252 242 243 231 232 236 227 234 237 253 257 271 311 214 251 210 200 193 179 188 109 110 111 115 130 210 200 91 174 113 118 107 88 91 130 96 88
190 192 205 181 221 233 230 217 256 240 232 235 226 232 215 241 258 250 260 277 285 325 224 259 198 192 187 171 107 148 109 215 93 80 141 80 84 109 184 179 135 181 99 102 93
189 194 176 204 220 212 236 211 244 228 232 228 229 229 238 265 242 241 261 309 275 331 223 244 210 87 190 195 189 171 180 89 101 87 208 92 100 94 171 173 93 92 91 95 91
184 194 191 201 215 207 216 260 233 230 224 226 225 241 254 276 288 302 282 373 390 373 346 231 264 200 90 134 189 173 186 180 217 88 85 105 90 94 93 155 202 89 87 84 95
183 194 201 206 198 206 211 241 238 225 225 232 248 258 268 280 290 313 345 371 399 390 363 233 266 205 190 191 155 188 177 169 204 209 127 174 91 88 109 117 148 95 91 100 87
191 202 201 215 209 234 213 241 226 230 223 234 246 270 274 283 302 334 372 407 407 402 370 241 166 206 195 178 178 183 176 203 196 206 209 198 195 87 90 90 179 90 149 193 199
152 202 197 218 206 220 233 230 237 232 235 249 248 273 279 302 323 356 397 391 230 427 371 237 271 101 190 178 185 180 184 180 206 209 205 201 196 188 195 76 73 98 129 189 191
188 180 199 200 206 213 238 233 235 236 249 249 271 277 297 320 341 353 437 390 400 391 361 242 275 212 112 182 185 179 174 189 193 193 196 201 195 193 132 190 197 190 185 159 197
195 201 207 205 224 217 233 237 239 240 253 252 268 287 323 334 348 301 404 396 380 390 337 238 269 211 190 186 185 177 170 198 194 202 197 197 192 187 189 189 193 90 84 118 182
173 192 204 204 214 236 234 235 234 242 254 261 270 337 342 349 342 379 396 364 367 372 264 77 112 207 171 190 185 182 167 141 111 194 190 194 190 144 135 169 179 183 191 179 176
201 204 190 197 213 239 235 235 237 244 247 268 284 361 347 353 361 399 403 366 361 348 241 269 232 203 197 155 184 183 178 178 189 189 196 105 100 104 184 178 181 191 170 190 175
197 207 193 217 168 237 235 238 238 242 251 274 341 375 364 346 383 398 370 355 353 301 223 264 218 204 125 189 185 188 168 172 190 117 194 189 191 177 177 177 174 181 177 134 188
200 189 197 214 243 231 238 247 232 230 258 300 366 375 359 348 392 376 357 340 326 238 265 243 219 202 196 193 187 187 119 160 183 186 188 191 187 173 178 172 172 177 177 168 94
206 200 193 212 241 231 237 247 224 227 259 348 404 405 413 394 363 355 332 323 242 231 261 221 214 205 195 188 183 180 88 188 160 186 179 186 183 173 82 173 187 192 169 132 167
203 202 202 215 240 234 240 215 224 229 264 378 473 507 402 359 358 260 313 282 235 259 253 226 89 200 170 186 131 165 175 101 150 179 171 184 184 192 181 176 172 98 183 161 178
207 201 208 245 235 232 240 227 221 229 254 391 536 413 385 362 341 315 299 245 234 264 242 206 211 189 196 189 187 178 178 183 173 174 188 169 179 187 174 168 137 188 185 174 131
199 196 213 245 236 236 236 206 219 226 231 281 324 393 389 362 316 299 246 226 252 267 232 215 209 199 195 192 167 176 183 174 182 180 175 179 183 176 172 186 122 144 192 167 164
200 207 216 242 232 238 236 204 219 219 202 214 225 223 352 321 304 257 225 217 251 271 216 211 202 201 195 189 186 188 178 181 180 177 181 174 179 181 169 186 176 168 173 194 172
190 208 216 243 233 229 232 203 218 217 211 202 210 215 219 240 214 216 216 204 251 246 207 196 195 198 193 196 189 189 179 175 180 177 177 177 178 187 177 167 184 181 175 174 180
197 209 219 245 235 231 230 201 217 212 221 224 214 197 214 222 232 232 210 210 246 252 196 211 204 202 196 192 154 160 182 175 173 173 183 181 186 184 185 170 169 185 186 183 176
202 201 218 242 234 234 231 201 200 214 211 224 226 168 232 237 215 216 212 207 248 286 224 205 206 200 198 198 196 186 186 181 180 182 183 188 188 183 189 183 182 175 175 180 189
171 209 218 241 235 235 231 204 194 212 208 213 220 216 213 227 249 258 207 206 227 303 306 206 203 199 202 197 198 196 183 177 173 180 181 186 187 192 184 176 175 181 178 174 173
175 207 203 213 234 234 232 232 195 198 204 206 210 209 224 230 239 250 205 210 205 227 326 231 206 204 199 200 196 194 188 179 181 160 164 164 164 159 163 172 171 180 176 186 178

GFSSW_2pvu_pres_003.txt.gz
Presure
210 192 193 189 202 206 184 199 200 206 185 219 235 235 229 252 304 236 210 212 226 245 262 166 206 138 93 173 176 220 108 150 105 87 93 108 111 124 90 88 172 112 116 124 85
149 207 198 198 212 193 174 202 192 205 205 233 236 224 222 271 272 269 274 246 222 220 247 230 203 153 180 76 173 191 95 106 108 97 114 120 149 111 102 138 102 190 113 142 84
199 194 187 200 208 200 179 194 204 188 230 229 218 215 265 265 256 250 255 265 268 220 215 234 219 189 98 181 81 172 193 105 112 103 115 99 96 101 127 181 120 70 90 98 86
203 195 207 214 213 206 194 193 194 200 160 234 226 240 255 252 250 240 248 256 259 265 279 216 237 195 198 195 194 105 84 139 118 107 111 109 175 97 106 155 102 170 89 86 81
219 186 203 217 199 209 199 184 193 152 229 235 208 261 253 240 235 241 244 245 221 218 260 274 210 241 196 166 188 133 126 148 107 105 105 136 157 126 107 132 188 173 87 89 84
204 181 215 212 193 204 195 200 166 214 219 220 226 256 250 233 238 242 229 223 239 233 254 261 273 216 247 203 90 181 110 160 196 219 168 206 117 198 136 106 185 80 101 88 78
194 205 207 187 198 196 188 192 193 226 240 218 248 247 237 225 227 230 229 234 226 229 238 255 262 281 220 241 196 183 109 111 110 171 107 89 147 193 195 111 187 64 156 108 93
202 218 221 218 190 188 192 180 200 221 231 217 253 239 228 228 222 227 232 231 242 243 259 253 256 284 302 244 221 197 197 112 90 107 103 111 106 233 158 223 115 109 199 133 105
209 201 214 195 194 186 183 196 210 208 213 231 246 231 232 224 228 237 239 250 250 265 266 264 290 291 310 222 252 203 193 187 169 99 108 97 218 156 203 105 110 97 137 168 104
208 207 205 217 199 195 182 199 214 206 217 241 237 230 229 232 238 251 247 251 276 287 296 303 315 308 327 226 260 206 193 192 183 161 177 148 140 89 82 107 89 91 200 92 93
207 208 226 212 203 195 191 204 212 223 221 242 234 227 238 245 239 247 257 272 310 307 308 317 354 377 388 315 247 207 196 192 184 188 169 175 106 104 98 89 87 90 89 94 91
200 220 205 210 210 193 199 209 206 218 245 239 226 234 239 238 250 271 301 340 332 326 341 343 361 383 395 290 242 208 195 190 190 185 182 179 217 206 206 203 201 216 85 92 86
217 209 213 203 207 200 207 204 218 233 250 231 237 234 231 249 282 299 348 341 338 351 400 451 461 439 407 322 252 202 191 188 197 165 174 177 214 208 206 214 211 198 190 192 191
225 208 199 208 196 194 205 205 217 244 246 233 222 234 244 262 304 109 352 341 347 432 387 202 330 332 328 303 257 208 188 184 196 175 181 173 201 209 208 204 198 193 193 190 189
224 215 220 201 201 208 202 213 178 241 239 232 231 244 260 290 325 180 72 326 221 381 397 101 337 357 343 229 252 196 197 183 181 178 180 175 225 195 200 198 195 194 190 191 183
217 218 203 195 198 205 203 217 243 242 213 230 239 259 270 327 346 356 344 461 401 377 395 131 349 361 255 242 230 205 186 187 181 178 150 147 175 202 199 197 188 188 170 131 175
221 202 191 171 208 199 208 226 242 208 226 235 252 274 353 373 358 350 357 401 376 369 335 338 349 271 230 174 216 205 172 128 182 177 177 176 116 97 97 155 99 109 171 179 171
228 222 196 197 204 201 214 250 240 213 223 239 271 348 405 361 361 344 405 363 343 320 329 341 279 244 222 241 214 203 85 94 178 178 179 179 177 163 188 191 185 178 180 178 168
228 202 198 208 202 206 223 244 201 221 225 257 286 517 423 338 84 313 360 337 334 331 323 292 243 225 210 223 208 96 187 180 162 174 170 175 187 193 183 187 187 176 172 176 176
208 197 199 203 195 214 243 238 196 216 231 265 331 421 395 364 379 339 350 341 324 312 279 233 216 248 198 218 205 201 154 107 182 176 119 84 175 194 128 166 177 178 176 174 178
204 199 204 199 203 219 244 205 211 218 223 260 391 395 375 367 330 323 162 306 282 129 188 218 251 186 116 211 117 193 153 160 181 178 174 185 120 185 163 178 183 175 177 174 175
192 201 203 201 212 239 240 199 213 210 224 247 355 383 360 332 325 327 293 281 266 238 104 226 241 236 210 208 197 194 184 187 175 176 173 184 174 183 176 170 175 176 180 173 169
198 207 191 202 215 245 241 198 226 206 206 220 249 273 362 354 323 291 276 262 249 211 222 279 205 218 199 203 206 189 178 180 186 175 177 190 178 176 184 178 170 169 176 164 166
204 200 150 209 215 241 236 198 207 203 195 208 220 240 274 288 284 277 257 247 236 229 174 253 240 219 200 162 155 180 158 182 180 168 181 168 177 179 182 176 176 175 176 172 170
210 192 204 211 220 237 239 198 208 212 210 207 223 221 224 244 240 233 211 210 214 187 246 210 220 204 203 197 188 174 128 186 161 181 182 177 149 174 171 171 171 174 175 177 185
200 206 210 211 225 235 238 197 215 208 216 210 214 171 211 114 216 213 202 211 221 239 240 226 213 202 201 193 190 190 186 185 169 178 175 175 178 186 179 170 176 176 184 189 182
204 202 189 213 248 235 234 207 199 212 211 214 213 211 112 223 227 214 216 220 226 251 248 230 215 202 198 196 194 189 179 159 178 181 183 182 185 180 175 174 180 183 187 188 187

GFSSW_2pvu_pres_006.txt.gz
Presure
196 197 203 196 199 200 200 178 221 203 200 205 204 204 203 208 199 224 221 242 225 225 237 240 253 201 174 196 181 73 189 187 111 98 125 125 104 120 128 117 121 190 178 141 129
199 205 200 194 208 210 199 208 194 195 210 191 186 205 207 202 183 230 245 233 233 241 228 224 237 256 196 108 198 186 82 166 210 180 100 93 103 87 109 115 168 195 78 85 175
204 206 202 222 198 190 202 207 204 216 201 208 182 195 208 201 206 241 222 274 276 273 231 247 217 232 249 189 165 179 159 77 181 198 111 108 99 172 101 94 117 106 100 97 110
210 188 191 200 203 212 213 188 194 226 216 207 198 193 208 200 243 214 227 216 273 268 265 227 276 216 229 247 142 205 168 182 180 182 187 112 108 103 100 91 85 85 199 97 118
208 208 200 203 186 202 200 200 194 196 208 206 200 199 156 203 149 182 267 265 258 265 249 257 268 261 226 229 253 77 168 162 74 169 101 138 105 111 104 106 148 96 105 161 191
218 223 223 207 210 203 213 192 213 218 196 203 191 162 166 157 219 223 268 256 253 239 250 251 257 261 272 212 232 202 130 206 184 80 100 96 137 109 104 109 105 91 91 109 177
228 220 213 222 205 194 208 193 192 206 200 206 187 190 170 216 215 218 266 251 257 239 248 248 244 248 255 269 214 236 109 164 206 187 181 131 172 108 103 104 109 196 102 100 171
214 216 222 222 215 194 210 198 213 191 199 205 203 183 201 212 214 229 251 239 237 230 235 229 236 237 247 258 267 216 245 208 189 98 193 178 126 116 216 125 182 123 176 114 103
133 221 215 217 213 220 199 217 208 222 220 206 197 186 208 204 212 239 241 238 238 238 238 236 239 245 250 239 259 272 211 247 165 95 119 175 179 123 82 123 227 227 110 196 152
226 226 222 223 214 197 198 203 207 222 211 206 189 203 204 207 232 238 236 232 230 234 235 235 242 247 251 254 183 267 288 225 224 200 98 104 129 185 137 96 193 215 117 117 223
244 240 233 231 229 211 223 211 212 207 215 212 197 202 205 222 245 237 229 231 229 230 229 231 244 244 242 250 258 283 299 222 245 208 201 107 108 185 176 147 118 106 125 217 212
280 268 243 234 237 228 222 203 209 199 210 193 199 202 215 246 243 234 239 234 227 227 231 243 225 255 277 262 274 292 298 316 236 228 203 192 145 110 109 98 108 184 214 174 90
240 294 269 239 236 235 236 209 223 210 221 198 200 213 235 253 234 231 226 224 228 244 256 285 345 316 332 322 263 304 315 336 215 245 146 194 190 190 168 87 150 104 197 107 102
247 284 266 266 235 248 218 217 218 213 207 196 205 220 252 241 228 221 230 252 264 277 336 356 310 301 334 327 312 315 323 327 212 247 217 199 186 186 175 180 187 218 198 192 200
256 277 269 260 243 233 215 222 201 197 205 203 220 251 252 214 229 242 258 274 316 339 348 373 357 337 119 336 333 341 91 287 215 237 215 201 185 171 186 174 189 215 210 201 210
272 246 273 266 250 222 222 220 215 209 200 219 245 260 221 233 243 261 283 351 355 348 364 349 350 367 377 377 368 374 286 266 212 241 215 195 179 191 176 189 195 212 205 209 192
272 266 267 194 235 219 223 214 203 202 216 235 252 223 233 250 266 286 382 377 349 347 388 340 383 367 373 366 440 401 274 275 237 239 198 183 192 177 153 172 201 208 203 196 190
273 275 274 275 225 226 221 202 208 207 226 252 212 228 239 269 353 405 365 349 378 408 371 366 361 355 377 397 310 275 267 229 226 185 234 190 181 189 168 190 203 199 195 195 188
274 291 275 237 228 226 200 210 202 217 246 207 225 227 268 411 411 374 358 415 363 359 352 356 359 358 366 274 275 283 239 208 212 207 191 176 190 167 171 170 189 144 192 182 104
278 276 265 231 230 208 206 199 210 233 214 219 228 253 326 392 368 368 396 331 331 334 338 346 305 276 279 267 258 256 216 195 167 212 185 190 182 163 166 189 197 195 184 187 186
288 277 236 234 215 205 210 207 223 250 212 205 215 265 407 182 394 356 332 328 169 300 294 277 269 268 263 261 246 232 213 220 196 208 189 191 173 138 178 189 200 197 175 185 183
287 261 231 224 206 210 199 213 242 215 216 206 236 271 353 368 357 337 336 275 269 267 273 136 272 257 247 237 195 79 250 229 204 96 188 191 164 162 178 180 183 184 186 183 185
265 229 225 213 208 202 215 225 238 211 197 208 238 267 360 310 317 316 272 266 249 187 259 115 266 250 232 184 248 209 244 213 197 185 185 183 164 181 161 170 177 188 177 184 184
270 233 220 189 208 206 213 238 236 214 196 223 227 257 325 177 304 271 266 260 210 115 173 209 266 225 252 201 199 197 230 207 203 186 177 169 168 168 177 185 173 182 186 184 179
176 227 210 209 204 212 216 251 217 219 209 205 221 241 309 294 194 291 255 263 260 227 248 247 87 193 192 221 244 225 198 168 192 188 184 172 173 176 178 179 175 170 171 173 176
232 221 214 205 209 213 225 247 233 220 212 200 217 225 239 296 291 190 266 151 259 253 246 187 228 166 190 202 228 217 205 195 177 177 168 165 183 172 172 182 169 171 171 174 178
227 203 216 208 214 215 240 225 208 218 211 201 216 215 222 233 250 273 283 177 231 235 221 232 216 236 213 233 212 136 174 146 178 184 180 162 169 157 172 177 180 179 172 179 177

GFSSW_2pvu_pres_009.txt.gz
Presure
206 206 207 211 205 191 186 194 172 200 191 206 215 199 212 198 206 210 191 182 184 213 216 227 228 247 257 192 201 161 187 188 162 201 99 95 93 90 91 125 136 178 148 174 170
207 207 205 209 200 179 186 190 198 202 203 216 214 211 205 204 208 200 202 211 213 231 218 210 233 255 233 249 255 204 129 195 85 144 190 101 95 97 92 106 167 103 122 117 112
210 208 202 197 188 208 205 215 205 202 221 207 215 214 193 228 196 207 190 203 214 209 194 253 247 242 245 222 238 257 206 200 191 100 139 155 103 98 99 101 178 121 111 113 134
219 211 208 195 206 197 206 198 212 213 204 213 222 224 205 228 222 199 182 201 207 214 194 228 233 238 239 236 251 238 204 204 208 192 186 154 106 102 187 84 182 110 111 114 162
125 127 186 180 201 200 201 213 213 201 193 213 204 210 211 225 220 207 199 202 202 209 202 236 232 287 213 280 258 248 233 243 188 186 174 95 192 183 109 223 87 114 92 103 86
230 220 219 214 210 211 202 218 199 201 219 185 197 216 205 217 204 213 201 196 199 209 227 232 244 278 276 266 272 226 242 230 118 204 193 185 114 124 145 112 105 103 91 93 80
237 228 212 212 216 214 209 205 221 221 214 205 203 205 189 222 204 211 203 195 156 154 156 230 272 268 263 263 263 264 266 222 222 249 128 179 190 185 123 175 105 115 86 111 112
231 238 230 228 224 221 217 211 224 218 211 219 209 192 197 210 222 214 205 206 197 216 214 216 275 261 258 262 260 242 262 267 203 224 252 222 184 179 82 81 141 109 112 109 112
255 235 231 219 217 187 150 225 211 226 226 215 212 201 186 204 217 225 208 198 205 218 209 249 260 252 249 246 244 250 248 256 259 211 96 92 163 183 139 156 93 91 124 91 103
248 265 257 240 235 221 225 218 221 213 215 221 225 197 212 203 217 222 220 198 211 208 219 250 245 241 238 240 242 247 251 249 253 259 219 231 217 90 196 178 107 108 86 152 124
209 210 304 242 241 247 232 229 224 230 218 220 206 209 217 206 211 218 187 206 206 217 239 251 238 232 233 238 240 247 252 256 254 262 267 235 129 74 90 185 180 189 188 193 96
204 208 215 207 217 272 251 243 237 234 221 221 222 199 220 201 227 203 206 205 210 221 252 243 230 230 246 237 240 245 249 253 253 263 275 181 239 210 122 94 176 184 171 189 187
224 195 206 213 214 216 228 258 283 253 239 224 226 237 217 220 221 216 208 210 218 240 251 238 231 238 235 236 236 237 245 240 253 256 267 296 227 242 202 126 179 181 176 187 190
225 215 183 215 205 215 228 252 278 280 266 230 231 221 213 223 207 206 210 224 238 259 243 235 229 225 229 237 238 236 242 244 250 262 269 289 223 242 207 196 182 104 135 179 177
226 218 225 195 148 218 228 253 275 270 282 239 231 215 218 216 206 205 225 236 256 239 229 73 237 219 260 260 273 273 276 285 307 285 277 304 299 81 229 206 190 179 166 110 110
229 223 240 194 230 234 232 256 275 266 260 255 221 218 203 208 202 225 236 250 232 236 240 262 275 282 306 282 340 195 346 344 330 305 306 286 319 219 245 191 180 183 169 170 178
241 240 236 238 234 235 248 263 290 264 250 224 224 219 211 207 230 248 251 233 238 269 292 362 243 353 345 345 96 379 212 339 319 312 336 312 303 181 241 196 180 173 167 181 184
249 249 246 253 242 243 265 262 278 262 229 231 217 212 219 235 247 226 218 288 403 123 362 355 347 342 342 343 363 364 341 327 309 100 81 177 154 199 233 211 179 187 174 177 188
280 266 267 266 246 273 268 278 263 228 224 217 208 219 234 249 222 266 415 395 364 357 378 404 392 381 368 217 357 362 364 341 293 255 261 253 235 212 113 206 183 167 169 182 194
314 300 290 274 273 277 260 269 229 224 220 207 218 233 246 214 289 429 396 381 361 362 338 335 324 337 346 357 390 433 358 263 259 250 249 254 217 233 226 195 177 173 171 174 205
307 311 295 283 284 263 273 229 226 220 209 214 235 216 212 278 406 378 352 344 352 337 333 329 329 328 350 350 359 347 264 253 246 255 251 264 196 240 198 194 180 173 170 170 204
293 338 300 289 267 275 238 227 220 210 211 231 231 215 234 441 360 346 338 339 329 354 285 349 331 349 334 286 271 254 250 238 244 240 259 259 210 227 193 179 174 174 167 191 194
303 318 297 279 278 236 227 220 210 201 228 244 210 204 348 342 293 299 300 267 254 131 115 226 256 254 257 258 251 247 242 252 241 233 247 180 234 206 177 179 163 172 187 199 204
329 302 285 286 233 229 222 211 203 222 233 207 211 232 326 276 160 267 179 252 255 249 241 104 241 242 247 247 249 246 241 212 237 199 211 187 219 198 169 177 173 175 181 191 191
319 289 286 189 234 223 166 181 218 233 235 200 209 275 261 197 245 266 261 260 248 248 231 195 175 235 243 249 242 242 220 239 225 246 261 212 190 188 174 168 170 176 164 169 174
289 285 253 172 226 217 212 203 226 233 210 200 208 248 261 188 189 267 250 248 245 249 229 231 181 158 88 185 242 243 194 211 204 254 264 215 201 177 168 168 169 172 172 183 179
284 271 238 225 220 216 208 217 239 233 210 204 211 220 231 256 188 246 252 178 191 194 201 220 164 174 248 201 243 236 190 215 198 255 143 195 172 124 172 165 169 186 178 181 172

GFSSW_2pvu_pres_012.txt.gz
Presure
297 260 233 221 166 207 205 216 202 208 198 209 193 175 173 159 169 171 218 217 205 211 213 221 204 194 105 200 201 192 168 198 189 169 86 170 205 135 102 151 91 104 83 90 90
291 258 241 221 219 215 204 202 197 203 198 187 199 190 168 174 179 220 219 210 209 203 212 212 201 203 195 98 100 215 197 120 193 185 199 195 159 108 225 153 229 102 98 197 175
282 259 241 225 219 216 212 206 200 199 203 202 172 214 218 202 205 202 217 206 202 204 217 207 202 192 215 214 206 234 107 177 167 115 185 168 190 98 92 98 103 126 163 117 194
276 263 239 233 219 220 214 207 204 204 181 204 185 210 228 214 207 209 224 215 230 234 213 209 192 204 214 213 245 244 247 247 197 260 200 215 187 190 110 98 89 97 98 105 185
272 264 246 240 214 223 219 213 211 200 196 195 203 195 200 199 206 201 218 218 204 228 220 218 188 202 209 213 198 213 228 233 235 232 204 234 147 110 191 115 132 87 101 124 82
280 258 250 240 155 127 124 215 191 204 193 201 211 187 208 216 203 196 209 212 214 232 224 212 192 209 205 214 201 241 239 257 234 232 231 152 232 165 109 188 111 91 97 94 168
281 215 251 247 218 169 218 217 210 213 213 207 194 205 208 202 217 203 219 209 225 220 229 233 209 212 198 202 227 239 237 279 245 277 274 226 258 226 86 85 198 191 199 89 100
284 267 266 251 235 225 227 216 212 212 212 208 210 208 217 204 192 218 226 210 226 189 215 212 231 209 199 202 228 221 282 269 271 259 273 249 222 246 203 155 101 197 183 199 180
242 260 261 240 233 234 144 228 226 217 206 207 212 204 211 215 216 217 193 221 207 208 224 219 234 220 211 164 150 243 274 264 255 259 254 271 227 222 250 212 211 81 114 177 185
219 232 278 243 250 236 235 231 228 226 226 149 186 216 217 221 223 225 217 214 214 224 200 220 236 231 204 216 221 253 269 260 254 251 252 262 262 226 234 232 159 179 127 74 109
197 220 216 301 270 254 242 234 232 230 153 218 212 217 209 215 223 220 230 220 219 217 227 216 226 219 210 218 225 235 265 253 246 249 252 260 261 275 212 170 261 210 194 187 107
226 217 215 205 224 244 302 266 252 233 228 224 223 215 229 219 220 224 225 210 221 216 228 225 238 200 209 214 225 232 252 239 239 239 231 241 161 87 235 215 254 95 136 187 178
247 229 229 222 213 205 220 229 281 317 282 274 236 233 233 236 225 226 236 235 223 218 227 230 228 218 212 217 228 235 255 237 237 239 249 204 254 166 259 117 226 245 210 186 181
246 210 238 226 221 212 209 207 202 200 212 207 217 235 255 277 251 241 249 250 241 245 242 236 216 209 217 224 233 210 252 236 233 239 244 250 252 261 258 273 215 255 229 187 191
219 228 220 233 231 223 213 217 191 197 189 204 208 238 255 281 273 257 256 243 245 247 232 229 208 216 227 230 239 250 248 234 227 239 241 247 254 257 265 274 288 235 237 204 192
236 228 222 227 219 232 212 202 178 193 209 205 207 250 265 270 263 263 257 250 246 240 231 220 226 233 240 247 258 259 228 231 230 234 238 233 248 244 262 261 290 219 250 209 196
249 237 231 228 221 219 228 212 226 215 203 232 222 260 275 260 252 247 249 240 237 240 229 240 210 150 93 240 240 239 234 238 246 249 275 254 276 146 149 262 293 166 173 215 194
273 253 234 232 233 232 224 200 208 223 206 232 251 285 271 252 247 247 239 237 226 239 256 236 249 264 274 362 352 352 349 200 351 288 284 274 308 265 264 190 303 212 241 228 191
321 279 244 242 239 240 237 229 228 226 243 234 278 275 253 241 235 239 221 239 252 240 285 398 384 365 361 360 353 338 311 338 343 347 344 347 358 138 153 80 328 214 240 152 179
346 352 277 253 243 242 237 227 230 240 236 275 277 244 238 236 217 239 240 246 326 389 377 361 357 360 363 372 403 334 343 340 341 346 354 374 284 285 296 209 275 198 235 221 180
364 320 312 271 254 246 244 238 241 256 268 275 239 235 229 222 250 254 340 384 360 354 353 338 348 340 343 338 352 389 268 361 412 413 311 281 276 262 259 200 233 200 187 218 179
335 330 317 328 278 272 259 252 272 267 277 235 231 223 235 207 295 363 346 356 355 339 322 324 330 328 344 355 362 392 406 380 281 261 262 260 250 260 255 247 224 206 227 216 178
306 285 297 315 322 317 279 283 274 267 235 228 209 233 202 304 286 279 284 301 306 284 279 274 267 268 271 272 281 244 265 258 247 256 253 254 256 221 172 234 218 230 223 199 186
326 312 294 291 304 299 294 286 246 233 225 207 229 234 221 168 283 216 261 259 239 249 252 238 216 256 250 246 262 248 252 243 248 96 251 239 246 158 243 228 217 228 217 189 178
292 310 264 337 292 288 282 238 235 223 211 228 236 209 270 211 166 238 249 235 246 231 238 247 142 200 240 250 235 233 251 236 240 240 243 240 234 250 227 165 212 224 202 186 178
299 308 314 291 280 291 238 235 208 215 221 236 211 214 253 227 182 228 156 242 238 242 229 236 232 245 89 230 237 230 230 236 237 260 172 248 244 177 213 217 227 215 189 177 173
285 301 291 278 270 201 236 226 214 215 233 218 206 218 259 240 170 237 253 195 186 163 132 229 193 227 191 208 224 228 246 232 231 243 191 260 227 181 228 227 206 179 180 169 171

GFSSW_2pvu_pres_015.txt.gz
Presure
220 218 221 220 213 205 205 211 178 215 219 217 206 207 192 197 203 173 208 186 184 183 178 174 209 200 196 205 195 223 181 174 222 194 190 94 100 199 158 219 220 97 211 140 101
275 212 219 211 213 213 211 194 225 201 210 215 211 198 193 203 182 188 167 177 188 172 169 175 182 170 208 207 218 146 208 196 207 222 216 177 88 197 134 86 141 97 205 203 92
274 255 227 220 217 219 233 200 253 227 209 212 212 206 198 203 154 206 179 199 174 195 218 207 198 213 225 203 216 198 114 205 209 202 103 211 231 99 193 172 101 206 200 213 78
261 258 241 225 225 301 275 256 243 231 218 215 216 209 195 201 197 202 183 195 205 175 184 183 212 215 213 220 209 210 202 102 200 206 204 202 197 221 99 140 191 193 89 205 199
252 243 232 230 308 285 265 252 239 229 219 215 215 199 200 189 199 199 173 187 216 210 195 190 229 228 198 216 222 203 199 195 150 97 236 133 216 216 208 96 94 191 192 192 213
242 237 238 287 294 271 251 244 234 227 219 209 215 208 191 196 185 188 205 196 199 208 201 213 228 221 206 234 220 215 197 172 212 107 102 156 215 265 199 166 221 96 93 91 134
240 233 233 307 285 266 252 240 232 228 145 217 218 213 207 204 197 196 204 201 179 203 214 204 212 216 210 212 239 226 194 185 204 213 227 209 106 102 118 186 92 238 196 91 93
246 230 228 299 286 265 252 239 233 147 141 214 217 219 207 205 198 203 200 210 195 200 209 218 226 240 221 218 225 234 214 187 199 214 216 205 256 279 280 178 241 253 189 195 192
251 232 227 219 282 270 255 247 237 232 228 217 214 212 213 206 201 197 203 208 212 208 218 215 223 235 209 241 216 222 209 217 211 207 211 236 283 185 278 292 237 183 235 156 184
250 239 229 227 227 275 259 255 243 225 202 222 221 211 211 212 205 203 204 209 211 210 216 223 230 234 216 229 184 221 125 241 218 218 203 223 236 271 271 280 279 236 244 241 105
259 250 238 227 219 245 257 265 248 249 230 144 212 215 217 213 213 214 206 209 220 226 223 231 229 226 223 231 233 206 228 238 231 219 203 221 273 175 269 171 271 262 231 247 250
254 259 247 234 228 209 256 275 256 241 242 227 226 232 230 226 148 153 226 225 223 216 224 228 230 226 239 232 227 228 219 223 234 226 196 157 159 265 259 266 268 265 247 226 249
219 225 266 242 233 224 204 222 269 258 242 236 236 229 230 234 227 232 235 223 225 219 215 227 229 227 222 224 230 226 234 230 234 202 224 223 242 266 261 261 103 182 263 227 222
219 227 225 271 245 228 223 219 214 228 266 248 249 246 248 249 242 234 235 235 236 237 243 247 228 234 239 235 248 213 250 219 232 226 220 228 239 257 249 251 220 210 249 257 212
227 228 236 230 269 241 236 226 217 213 212 202 239 247 306 304 311 252 238 281 227 235 252 260 292 254 252 238 258 261 250 248 242 223 224 234 253 252 251 239 215 111 197 161 232
255 238 231 217 225 240 247 237 225 221 213 203 204 204 212 216 208 207 210 227 219 242 268 289 280 271 268 262 259 251 253 237 230 226 239 233 249 270 240 243 247 251 257 223 264
193 262 236 225 214 224 227 243 232 221 206 212 200 213 204 202 199 208 168 226 231 275 282 280 273 273 271 261 258 257 246 235 234 234 144 239 243 290 225 236 106 237 247 258 251
360 273 244 235 221 218 211 227 215 214 220 209 208 203 205 217 215 210 230 225 297 287 279 269 265 261 258 138 254 245 239 243 246 250 257 217 117 181 215 221 223 208 240 254 269
365 387 263 244 239 230 227 215 215 215 213 217 219 217 208 223 225 210 244 286 279 272 259 251 245 243 241 241 244 246 254 252 238 263 259 74 243 204 206 223 223 227 235 248 268
379 383 331 272 251 236 227 225 221 218 214 209 213 206 203 208 237 256 281 260 248 236 240 271 317 367 363 378 389 377 104 359 370 372 369 360 216 94 224 197 233 149 105 250 270
352 350 308 295 265 247 230 227 222 225 222 219 223 224 223 242 279 265 225 234 243 349 369 344 350 356 365 353 354 351 369 369 355 361 368 380 410 292 132 242 250 252 246 158 276
320 325 329 311 321 272 250 239 229 224 222 226 224 226 243 282 241 228 234 334 307 304 295 306 311 310 313 321 327 358 350 365 385 363 354 353 359 343 337 268 264 261 254 259 285
333 316 300 295 304 297 259 251 239 237 228 225 228 249 275 227 220 307 326 244 270 274 272 271 269 273 286 305 330 356 375 389 406 360 348 330 329 317 307 285 237 275 266 284 281
331 326 312 311 325 324 353 255 254 246 229 236 264 260 222 220 332 275 247 265 271 261 254 269 216 240 248 253 258 278 287 289 357 296 286 283 282 269 278 265 220 282 272 264 229
300 298 286 301 306 309 340 293 265 247 251 263 250 230 225 260 243 211 167 245 238 235 244 243 227 235 241 223 248 257 255 267 270 226 160 261 248 250 247 259 262 253 275 233 215
333 324 305 309 186 308 308 322 269 282 259 244 228 236 268 243 236 172 206 173 207 224 87 219 234 253 215 230 243 254 246 245 260 246 262 179 241 230 256 247 251 265 239 223 206
277 281 282 276 292 304 298 297 263 250 236 177 218 214 265 236 238 216 185 175 199 246 239 234 238 229 230 239 147 225 251 239 234 230 256 241 232 241 240 253 254 178 225 214 207

GFSSW_2pvu_pres_021.txt.gz
Presure
241 242 262 234 219 260 239 243 220 224 217 221 225 219 216 225 207 202 201 208 202 201 196 197 196 201 193 205 215 159 208 188 216 224 228 215 225 120 180 152 202 200 124 212 211
252 251 246 255 238 228 236 238 212 236 221 224 210 212 223 215 220 219 223 227 234 215 214 208 211 203 197 195 201 184 224 132 183 202 167 185 203 200 195 82 163 193 198 197 200
261 254 245 249 249 253 255 234 242 250 246 227 227 205 205 218 215 223 222 214 212 229 226 214 217 211 210 203 174 197 169 175 162 210 175 187 191 176 188 183 93 187 190 192 84
261 257 255 250 249 249 234 239 256 220 223 242 228 227 217 213 223 220 210 223 219 219 225 214 209 217 211 197 181 217 187 190 204 215 196 168 134 170 175 186 185 196 155 196 206
281 272 265 258 256 253 258 249 250 262 250 239 235 236 226 206 215 203 208 213 199 192 213 227 206 212 216 208 210 196 181 188 199 192 195 194 187 195 194 173 198 231 192 148 184
359 322 285 286 279 271 265 263 266 259 312 251 270 239 224 215 209 212 211 205 204 208 200 215 215 205 215 208 192 190 188 205 195 206 173 188 196 221 225 216 220 226 229 127 173
276 326 344 334 316 288 282 279 236 310 257 272 242 251 236 223 208 205 213 210 199 194 192 201 222 207 201 215 206 185 180 181 195 210 185 191 185 195 198 224 209 215 221 222 215
258 263 284 323 301 315 310 305 292 288 290 251 253 259 236 224 212 207 205 205 209 209 194 203 229 220 201 205 206 206 195 186 206 196 184 200 211 196 231 223 189 211 214 209 209
240 245 251 282 309 299 297 282 273 267 271 273 276 244 242 230 214 207 207 207 212 213 214 232 236 229 207 202 205 202 208 199 187 192 209 179 203 223 209 214 222 223 218 211 201
259 242 251 241 285 244 293 272 262 262 255 243 244 244 242 234 226 214 212 208 210 221 237 231 229 223 204 201 200 203 203 212 187 214 198 215 218 209 218 176 216 239 217 210 203
261 248 242 247 251 305 297 265 259 249 238 234 228 231 225 224 222 213 127 215 252 239 235 230 221 217 221 205 205 204 203 208 207 196 224 214 191 217 230 227 233 202 231 229 215
384 262 238 247 243 260 302 265 259 247 235 234 231 216 234 286 279 267 263 250 242 235 228 225 219 217 219 195 195 199 204 211 217 214 223 223 225 215 226 232 226 226 223 220 237
483 540 254 237 246 245 268 265 260 238 242 230 229 215 287 280 267 261 252 243 233 227 226 222 215 220 222 222 219 220 217 215 217 218 224 221 228 219 228 218 227 215 226 218 231
550 502 480 253 232 240 249 282 258 247 243 238 229 255 281 270 260 252 242 235 230 224 227 221 220 214 215 224 221 222 227 224 225 230 221 225 237 228 232 231 219 232 217 211 219
511 477 415 264 249 227 232 248 272 251 241 241 230 217 273 267 251 245 239 235 230 225 221 221 223 222 224 224 226 230 234 233 238 244 245 245 254 246 228 235 234 228 233 203 219
473 499 494 314 248 238 227 233 280 258 245 235 230 218 245 258 246 245 243 243 234 230 231 233 237 228 226 230 238 245 252 256 258 259 274 260 263 207 234 227 228 229 232 223 224
485 513 483 449 264 242 226 230 250 262 242 232 226 223 217 235 252 243 243 239 238 240 238 235 236 241 240 225 218 220 225 224 226 227 227 237 244 249 126 229 232 237 257 241 228
481 498 487 398 281 251 240 223 236 247 247 224 230 221 217 216 213 242 249 248 247 243 210 210 201 206 210 217 223 220 226 234 244 253 257 257 75 82 249 271 151 257 251 258 257
506 493 482 398 346 267 242 227 236 221 257 235 225 232 220 215 210 207 206 207 206 208 205 204 210 215 217 206 222 233 232 247 261 276 316 318 243 323 321 119 309 284 250 248 247
483 454 490 366 348 275 252 229 231 233 218 250 232 231 227 217 216 213 213 215 214 213 213 213 214 223 223 224 239 333 324 318 320 331 352 372 381 86 88 91 218 279 264 255 235
459 425 343 349 348 303 267 232 228 233 226 250 246 230 225 222 221 217 218 217 217 216 214 211 207 224 274 297 290 331 330 250 222 331 341 349 293 397 249 281 296 278 271 250 244
392 382 374 354 362 320 275 235 233 231 227 228 262 243 235 227 216 219 217 217 212 211 201 212 245 264 276 272 275 315 340 336 334 322 329 339 356 361 281 173 241 295 255 255 252
357 355 358 348 332 324 288 242 224 225 224 228 219 222 245 243 233 217 211 212 199 209 228 265 265 241 272 260 257 267 343 368 352 337 299 350 161 340 349 402 269 91 254 260 253
339 331 359 357 344 318 325 288 196 221 221 207 219 215 209 211 214 216 216 213 219 244 264 255 237 263 263 267 252 256 258 294 394 407 413 374 359 366 400 381 390 259 237 270 253
328 335 320 316 318 320 315 287 209 226 220 219 218 212 209 214 215 216 215 220 259 251 167 233 249 246 254 252 262 229 267 257 277 299 319 356 364 361 363 366 380 384 238 243 238
323 316 305 305 307 313 321 339 238 232 225 214 216 217 217 212 222 222 218 236 255 236 245 223 157 118 234 249 237 235 238 256 267 267 285 293 300 308 312 323 332 337 361 240 236
317 307 322 296 300 310 238 349 275 237 224 218 219 216 208 218 215 230 236 226 225 176 250 157 240 234 234 233 210 235 236 251 240 263 258 274 268 284 289 279 263 275 322 318 247

GFSSW_2pvu_pres_024.txt.gz
Presure
299 273 265 268 244 254 237 241 253 232 231 226 218 224 203 200 198 189 183 188 189 202 172 168 168 166 164 193 168 168 186 154 176 172 111 126 149 177 107 211 217 103 197 203 185
311 298 266 254 259 251 252 239 247 242 245 218 228 221 220 219 203 207 204 193 210 189 191 194 175 186 169 174 183 167 191 183 157 198 170 174 167 161 171 173 218 223 211 209 182
309 308 302 269 257 258 252 243 238 259 243 233 209 225 225 219 218 203 225 220 202 194 191 193 196 201 189 195 193 191 175 201 202 202 203 188 214 197 124 213 198 77 143 203 200
319 278 263 280 270 250 248 252 248 243 229 225 246 236 216 218 219 213 214 215 212 218 218 224 208 198 204 215 202 207 220 209 226 205 95 215 196 194 183 174 168 177 189 84 181
311 325 278 270 283 256 263 246 256 239 247 224 225 264 236 235 222 218 214 208 214 213 219 216 223 223 217 214 218 209 219 220 211 213 204 208 208 156 187 170 207 178 177 176 94
280 288 338 299 261 260 268 264 248 250 249 247 249 228 228 245 225 231 211 216 208 202 201 216 213 223 216 219 234 213 219 211 210 212 206 186 197 207 182 198 211 176 180 181 189
276 279 278 288 299 269 255 262 259 267 260 260 251 249 255 235 230 222 234 212 213 215 204 213 219 212 216 212 214 212 211 206 217 219 208 217 220 204 183 182 188 199 202 205 227
273 266 278 263 271 282 330 300 263 255 252 254 250 250 251 258 238 221 228 220 222 214 207 212 203 207 207 202 212 200 217 211 213 212 212 205 190 211 220 200 170 197 192 178 189
254 252 265 268 270 265 275 304 341 285 268 254 248 262 267 256 264 247 219 219 215 216 212 203 209 210 208 189 189 187 195 210 207 211 206 206 207 215 206 192 218 197 192 203 185
249 250 247 251 260 269 263 235 307 317 324 314 272 261 256 288 267 277 260 228 223 223 215 206 201 206 216 195 204 200 191 225 208 208 212 207 201 189 211 189 177 182 189 209 208
517 421 268 256 244 251 267 265 283 309 291 282 282 286 285 280 251 263 227 235 226 225 215 206 206 203 199 206 209 210 211 230 232 206 208 208 206 204 186 204 204 219 207 210 209
561 596 491 363 264 245 255 265 261 283 281 273 271 270 270 272 268 238 235 246 235 225 219 211 205 211 208 206 211 213 227 236 230 207 208 206 207 208 205 214 189 194 196 193 188
504 515 502 487 297 262 251 257 238 287 284 268 265 260 256 257 261 262 266 256 231 227 224 210 207 208 206 207 213 225 238 234 228 219 212 210 205 210 207 207 211 207 213 210 194
449 467 508 468 460 284 251 255 248 274 283 263 255 255 248 240 236 232 232 235 236 234 225 218 211 209 211 216 226 239 234 234 226 227 214 93 212 208 208 208 207 211 214 216 224
455 445 479 474 509 287 250 249 242 267 285 261 256 251 239 233 226 226 223 218 218 220 217 216 218 219 223 243 248 236 231 229 226 228 234 223 234 209 210 213 209 216 215 218 220
420 464 478 517 494 295 250 251 243 256 289 259 255 244 233 227 230 214 219 283 275 271 267 263 261 252 249 245 234 230 226 224 227 233 235 235 239 88 134 212 214 212 221 226 227
427 481 470 469 369 321 252 242 240 237 288 253 255 240 235 229 219 224 281 271 265 262 257 260 253 247 237 236 231 230 229 231 237 243 248 196 252 250 239 254 249 241 237 240 246
435 469 489 471 362 325 256 243 232 249 279 252 248 240 236 226 215 288 271 266 261 259 257 250 240 235 235 233 235 239 243 247 254 230 229 231 141 87 104 146 217 273 262 253 247
466 480 505 495 355 327 248 244 212 222 266 259 245 236 233 225 215 208 278 267 261 252 245 236 238 239 239 235 213 212 210 223 227 234 230 227 105 124 128 236 121 108 134 155 233
485 482 484 476 349 312 256 240 230 218 218 267 245 245 231 225 220 215 211 252 245 211 227 212 209 209 210 210 217 224 226 229 242 291 352 363 346 232 343 160 120 272 113 232 227
475 456 439 346 356 316 256 234 233 232 217 268 243 238 233 226 220 216 215 215 211 209 214 215 214 216 217 223 218 142 278 292 303 324 347 340 353 343 110 170 351 357 435 214 255
471 489 408 337 345 308 288 239 224 235 219 227 257 244 231 229 229 220 218 217 216 215 218 218 218 220 205 226 256 252 298 284 157 307 299 361 367 328 329 195 84 349 363 449 299
425 458 355 368 333 315 290 246 228 229 222 225 214 233 235 228 230 228 221 222 219 219 218 221 208 219 271 268 271 241 281 253 287 313 340 370 144 339 351 354 346 351 391 315 279
393 391 268 322 269 327 291 259 235 237 220 229 218 217 243 235 229 226 223 218 217 221 219 210 231 264 227 249 243 241 250 269 268 305 306 322 339 379 374 380 376 381 397 398 260
408 377 319 318 335 299 302 277 232 195 226 228 227 217 256 241 240 238 237 230 218 219 216 262 243 242 257 232 238 247 248 244 257 276 279 285 298 323 394 409 379 381 427 287 262
333 329 336 326 315 324 339 296 239 230 220 219 225 218 252 243 242 224 212 216 214 216 246 248 162 232 163 239 228 222 216 237 246 250 272 276 271 286 298 306 398 415 433 249 291
363 309 330 314 315 245 166 313 241 232 222 221 219 221 225 218 211 214 214 214 219 240 251 187 239 178 236 234 227 224 221 221 239 241 245 268 261 277 275 281 301 345 274 250 292

GFSSW_2pvu_pres_027.txt.gz
Presure
293 297 272 282 274 257 263 261 250 237 244 247 231 215 202 206 206 204 198 180 190 209 165 172 172 182 166 152 159 165 165 151 169 165 61 164 162 130 154 160 164 154 167 168 167
321 328 305 287 283 265 262 275 257 252 239 241 236 236 213 206 201 202 196 206 191 199 189 173 179 190 165 161 172 165 150 157 166 164 162 157 163 179 78 165 88 178 147 176 178
305 357 313 300 310 277 250 259 242 256 250 240 239 226 221 230 214 198 200 201 200 190 197 191 198 170 179 166 166 180 169 170 156 148 157 159 159 145 155 168 165 170 167 197 167
295 295 305 324 308 297 278 261 268 253 249 251 236 241 236 220 223 214 205 194 191 202 199 196 179 199 184 183 174 176 171 199 169 170 181 169 171 183 172 179 188 195 178 189 183
292 288 289 294 308 294 298 273 263 255 250 245 246 234 187 235 237 227 221 217 208 195 191 191 195 189 185 183 185 182 190 186 183 183 193 191 193 184 191 189 228 206 213 212 200
297 284 285 282 293 338 291 292 257 263 247 240 244 235 231 221 227 240 215 223 213 212 211 208 199 193 199 199 196 194 191 188 194 196 201 199 227 220 219 105 201 216 211 203 195
312 288 283 279 277 292 321 288 287 254 262 247 251 242 237 248 240 223 236 222 218 224 213 208 209 213 207 215 215 206 221 225 229 210 223 218 227 211 208 220 217 215 209 205 207
293 304 292 289 274 275 285 290 275 263 268 265 241 236 244 246 233 240 229 233 226 213 213 220 214 210 209 207 209 208 218 221 221 236 211 212 213 220 220 215 206 212 205 189 211
289 292 295 290 284 265 259 277 307 273 264 258 264 245 221 249 242 243 219 216 233 230 213 220 217 216 215 210 202 203 203 216 216 205 229 215 207 214 214 212 215 211 213 216 214
473 285 264 267 280 254 259 265 268 299 280 265 250 259 244 240 231 246 241 243 219 221 229 214 208 219 213 212 211 206 203 211 221 214 216 209 212 216 211 210 211 212 213 208 194
509 502 565 292 275 269 251 258 264 273 289 306 260 264 240 243 242 238 240 253 245 236 223 225 220 213 222 219 208 213 209 206 202 214 206 223 206 199 200 208 207 207 209 210 208
458 510 506 552 347 265 257 250 273 250 253 253 313 325 263 256 251 249 249 241 249 234 239 227 216 219 216 215 220 210 208 205 208 211 221 196 187 188 202 213 208 204 208 207 207
464 466 472 503 522 345 265 253 241 259 251 251 277 312 314 287 262 257 252 251 255 261 264 248 233 218 217 208 214 214 208 206 206 210 214 208 200 197 186 201 218 205 204 209 209
447 445 447 449 495 475 290 263 249 236 253 249 239 304 296 301 303 295 284 270 281 290 289 284 242 239 218 219 221 219 210 207 208 205 206 213 213 210 214 239 225 205 206 209 209
430 421 438 462 485 458 467 283 245 239 239 254 239 294 277 276 270 275 275 272 265 265 266 259 241 243 235 226 218 218 215 208 208 212 210 204 212 213 228 234 226 84 210 213 215
442 428 412 463 491 482 381 289 264 243 239 256 251 281 268 265 261 254 255 259 258 256 262 243 230 227 230 233 227 222 219 212 213 213 215 198 226 89 181 235 229 228 223 220 214
449 432 430 467 481 511 342 297 269 250 235 250 283 272 257 252 246 248 242 243 243 244 247 259 254 249 245 234 226 222 220 218 216 219 220 231 249 198 202 127 240 233 199 226 220
427 451 476 467 481 354 333 301 278 252 236 248 280 268 251 247 246 239 236 231 227 226 226 228 224 224 224 224 220 216 217 221 226 235 261 261 149 92 114 114 233 236 242 244 241
460 446 446 489 359 359 318 298 272 250 240 236 280 259 249 248 237 235 232 226 228 222 216 229 278 273 271 269 255 269 270 268 260 257 256 244 229 98 219 176 209 258 94 271 244
448 429 474 495 344 336 306 299 255 241 238 244 274 254 246 238 238 233 229 220 218 279 276 267 264 264 262 261 261 256 247 236 194 218 214 220 229 237 182 303 190 177 134 173 178
443 477 490 444 347 313 313 288 241 240 231 255 271 246 251 239 237 228 218 227 284 280 268 259 256 251 253 233 219 214 212 213 219 221 265 315 333 158 98 387 389 370 103 350 357
498 444 387 384 322 316 311 259 225 225 236 262 264 251 242 240 232 220 212 212 268 258 270 232 222 215 215 219 212 218 216 266 259 299 293 288 295 300 323 203 377 98 360 342 344
465 451 359 337 326 326 300 250 235 225 219 231 262 250 244 231 224 221 219 213 213 211 210 211 217 220 221 214 209 244 250 238 94 128 200 283 272 286 126 367 377 356 292 176 356
467 362 362 326 326 323 246 249 239 225 212 215 261 247 242 232 226 218 217 217 216 217 218 219 223 214 210 243 242 246 238 244 235 242 264 275 280 281 289 299 375 399 375 363 236
392 356 348 339 310 299 257 252 234 223 229 220 238 257 241 234 226 227 229 226 222 224 221 220 212 215 250 251 236 235 237 234 238 239 256 271 271 269 291 288 320 388 371 374 384
368 335 316 327 326 300 275 238 234 228 226 210 222 258 214 235 231 228 224 222 225 229 219 211 256 234 248 218 233 220 228 228 235 232 247 254 272 266 289 292 314 331 400 372 378
354 330 309 323 316 267 297 239 236 230 221 225 224 235 208 238 237 236 229 230 237 216 214 240 235 242 237 191 221 232 229 224 231 233 228 242 250 270 281 309 323 342 383 432 399

GFSSW_2pvu_pres_030.txt.gz
Presure
329 354 322 280 270 270 255 267 267 270 258 247 243 215 194 225 229 195 198 200 186 181 189 172 178 167 161 168 171 174 151 164 157 174 156 173 172 152 152 163 170 146 171 172 130
331 328 332 341 289 271 275 258 251 267 266 260 251 248 232 220 218 220 178 217 216 191 190 176 171 170 169 171 186 158 174 166 175 172 169 151 166 134 117 137 159 124 161 168 172
344 324 324 322 331 286 271 257 255 246 260 269 253 239 245 242 214 210 217 174 209 223 193 194 181 173 176 184 169 176 163 159 178 162 176 178 171 156 169 155 165 174 172 161 147
328 341 310 318 309 325 286 286 253 253 252 265 259 259 238 258 228 211 210 205 207 204 212 210 193 206 185 182 178 183 173 162 167 185 168 164 157 172 172 168 169 174 172 157 168
351 319 311 305 306 297 313 325 285 260 254 264 244 258 262 226 202 229 211 205 204 205 204 200 193 210 189 181 206 188 180 167 170 187 165 158 170 176 169 160 164 167 159 158 168
337 348 311 295 300 300 292 302 335 296 277 257 250 250 261 258 223 243 234 213 204 200 201 201 201 200 200 201 192 182 184 181 212 183 185 193 171 165 172 196 181 175 167 165 170
313 314 332 314 289 290 296 286 306 323 289 267 268 248 255 236 251 224 246 232 227 203 200 201 195 198 199 197 199 191 196 197 193 199 196 173 175 200 194 185 184 180 86 176 183
297 268 271 276 310 295 280 292 282 310 290 290 259 266 249 238 246 255 226 238 228 229 215 207 205 197 191 190 192 198 196 194 195 200 199 132 192 189 197 191 195 197 202 202 214
397 471 484 445 311 291 298 280 286 273 316 284 285 264 254 260 244 245 249 225 224 241 220 216 219 209 202 196 196 191 191 193 193 197 201 202 208 208 196 196 223 217 230 223 218
445 448 452 494 527 323 299 290 272 276 272 311 280 279 266 258 237 241 241 234 225 226 229 231 237 222 222 202 205 208 211 206 202 207 215 211 214 208 223 225 223 219 215 218 212
454 482 543 464 548 428 299 297 277 285 278 289 284 274 272 241 240 234 233 236 243 229 223 220 223 233 218 215 223 219 214 207 207 215 212 214 213 218 211 222 217 230 217 214 207
461 478 474 485 503 480 325 272 282 268 266 270 307 275 260 274 243 246 234 241 232 241 231 237 235 223 226 227 217 209 208 214 221 217 221 219 213 205 202 222 210 226 207 210 202
451 459 454 459 462 494 467 273 284 270 266 275 263 308 258 261 261 263 238 228 229 246 239 239 233 220 225 231 226 222 213 215 217 221 221 215 213 213 208 208 210 202 209 212 207
477 445 435 433 453 447 489 279 282 257 252 250 259 264 291 284 255 270 264 241 229 219 236 233 243 242 227 217 217 228 233 224 222 220 222 228 186 221 211 199 90 211 216 204 198
435 425 422 409 456 463 479 291 268 263 266 238 259 246 254 262 305 343 264 268 241 235 237 229 228 235 242 242 231 226 224 222 229 227 227 219 222 210 210 205 201 206 210 201 205
443 420 430 423 458 490 492 300 274 264 247 245 246 257 249 246 246 308 317 280 264 249 242 240 246 253 236 251 248 245 237 236 230 222 225 219 222 73 103 204 177 213 212 214 219
444 436 426 447 464 471 366 345 271 259 260 238 235 245 250 251 251 292 287 294 298 272 263 262 254 256 250 252 281 290 284 255 242 240 227 227 224 65 181 190 209 218 218 220 222
452 452 461 480 464 374 349 355 277 274 246 239 239 232 249 245 290 281 275 276 285 290 290 285 293 278 282 267 253 258 253 251 250 244 239 234 231 207 114 107 116 124 230 232 226
440 424 438 437 440 364 339 323 322 275 239 235 237 231 251 245 275 265 260 257 251 254 257 256 253 257 255 250 248 234 235 233 232 241 241 232 222 219 218 116 82 95 174 184 270
444 440 437 462 343 338 317 313 313 314 238 228 227 239 225 269 259 249 244 245 240 237 236 235 234 235 235 238 240 236 233 230 227 219 219 220 224 241 250 267 262 166 228 99 156
510 466 464 469 340 327 320 320 318 284 237 227 227 239 263 258 248 243 241 237 233 231 229 230 229 230 227 220 220 255 267 262 219 248 248 241 237 236 96 235 293 295 252 116 116
522 505 368 353 341 328 312 315 313 259 244 224 235 232 271 253 248 242 235 232 231 228 225 225 279 280 280 264 249 241 238 232 229 225 221 224 284 267 273 264 95 299 228 307 321
360 383 338 324 338 319 323 309 288 246 228 235 240 278 259 248 237 236 235 230 223 230 284 282 271 250 238 230 225 220 216 220 251 133 251 248 262 256 276 279 169 142 209 303 324
350 363 344 334 332 326 312 294 249 243 231 232 264 265 245 242 235 234 228 221 215 238 244 225 216 209 210 212 217 230 249 247 241 239 243 205 212 273 274 292 305 303 296 194 193
364 319 328 348 315 315 292 243 213 221 238 241 270 258 244 236 233 226 223 218 217 211 209 209 211 216 224 217 223 239 231 237 232 237 233 228 251 263 278 281 337 314 310 328 356
322 360 318 324 328 315 226 236 234 182 217 220 262 252 241 236 230 225 223 218 217 215 214 220 228 214 218 226 242 228 227 217 237 225 215 249 248 259 243 255 258 264 97 375 379
351 338 340 321 294 311 262 230 235 227 215 213 220 257 234 237 235 229 228 229 228 226 225 224 213 215 236 234 234 190 225 230 232 225 230 245 245 255 247 250 274 259 257 408 405

GFSSW_2pvu_pres_033.txt.gz
Presure
352 346 353 350 335 348 316 292 286 279 280 260 238 217 215 224 180 191 210 205 198 175 181 171 175 182 172 170 165 176 176 174 148 172 173 157 161 172 154 167 161 156 159 83 139
313 348 323 344 346 332 333 297 282 272 276 260 259 243 224 214 223 177 226 199 202 188 198 178 181 178 174 174 170 148 158 165 178 174 178 180 167 145 165 151 168 159 169 167 163
283 341 351 329 340 340 322 343 289 277 271 278 270 275 239 242 214 228 220 226 211 212 189 205 171 164 169 176 171 169 161 152 157 160 172 176 180 175 165 128 88 169 172 165 173
332 338 323 311 349 337 332 318 311 281 267 265 267 256 260 236 229 219 226 225 181 222 214 192 195 183 174 169 171 176 168 168 155 168 158 169 172 176 174 169 166 172 177 167 174
337 350 344 346 328 335 339 324 321 293 276 268 268 264 261 265 237 232 216 211 222 166 213 219 198 200 188 185 175 177 177 176 175 176 170 169 175 161 171 179 175 180 170 157 168
345 363 274 309 349 328 323 325 317 311 282 283 265 259 262 270 260 241 248 204 209 218 218 214 215 213 193 192 193 178 178 176 179 181 175 175 176 178 182 169 178 177 163 170 167
341 322 361 300 287 341 319 314 315 306 304 283 281 262 258 252 252 246 242 234 232 211 208 217 211 213 211 211 218 214 194 184 179 187 179 178 176 191 181 169 165 166 161 173 178
379 470 465 469 475 115 289 313 308 306 301 299 289 268 245 256 245 251 229 248 231 232 212 215 205 209 211 211 182 204 207 195 194 196 186 187 182 181 180 202 109 164 172 177 183
528 491 468 453 447 450 329 290 285 299 295 293 298 317 272 251 246 247 245 241 248 232 244 209 215 191 206 202 205 199 199 199 199 207 192 205 194 189 189 189 183 184 193 188 178
535 485 472 462 534 517 448 311 291 286 287 288 291 329 300 261 238 251 255 241 249 250 223 243 201 213 203 203 199 202 204 205 203 203 198 197 196 198 199 197 199 204 201 182 185
492 471 452 476 486 481 462 356 286 272 287 292 291 287 311 295 259 249 249 237 236 243 248 234 252 227 210 195 205 201 196 198 195 197 202 201 201 196 204 205 200 199 201 201 199
487 458 454 461 448 457 476 451 315 275 289 288 279 225 320 285 295 261 250 246 238 241 254 248 221 234 233 229 206 202 198 200 203 206 202 199 200 196 200 198 196 199 203 209 220
576 462 443 444 440 443 439 532 450 276 283 278 279 271 297 291 276 295 254 253 237 242 238 244 250 228 234 238 228 219 215 206 203 203 205 205 202 202 204 206 212 210 209 215 209
500 449 439 432 438 441 445 571 455 273 267 273 279 270 272 324 273 276 244 260 247 246 236 240 244 248 236 218 228 235 225 218 227 215 227 222 215 213 214 215 216 219 218 211 217
449 443 420 420 439 431 485 498 396 275 275 268 269 271 255 320 271 262 261 280 246 249 237 232 233 246 245 238 225 228 224 226 230 234 239 238 216 201 211 213 205 220 220 223 218
464 452 434 429 445 462 488 479 357 270 272 273 263 272 261 283 289 270 264 265 268 247 229 228 227 228 234 233 240 236 235 237 241 243 241 234 247 158 224 205 179 220 218 217 222
453 476 461 435 460 502 408 446 312 279 274 268 262 254 247 260 281 284 252 257 258 236 243 241 232 231 237 231 238 238 242 240 248 248 221 223 228 227 180 94 214 227 230 229 223
446 452 461 451 478 400 382 378 304 144 269 254 260 248 258 258 258 269 283 274 265 257 259 261 251 238 237 221 221 233 231 237 244 243 251 253 254 247 102 128 114 107 160 223 229
464 453 455 480 386 387 369 333 275 274 262 240 268 236 257 259 252 252 239 257 306 309 310 268 263 264 244 243 239 243 244 249 256 252 259 281 274 266 250 165 148 251 252 240 170
474 466 446 383 363 349 335 331 279 271 258 246 240 234 226 249 249 237 221 288 283 289 295 297 304 303 279 267 260 259 271 280 285 268 257 249 241 234 232 233 236 102 139 119 161
490 411 374 348 339 335 327 318 282 263 254 247 240 242 232 248 238 285 277 272 270 267 270 271 275 278 287 288 272 254 251 250 245 238 236 233 229 227 230 227 226 231 211 258 261
393 370 355 334 306 336 330 332 276 262 245 239 235 224 233 230 285 275 260 255 252 247 246 243 246 243 235 231 226 225 230 225 220 254 250 255 247 250 249 242 241 243 304 79 315
354 357 340 345 341 335 334 346 280 252 242 234 226 227 240 283 258 245 242 240 240 237 233 232 233 227 224 222 227 266 254 245 242 241 238 233 105 263 226 271 236 276 279 187 166
373 369 349 341 336 321 321 338 331 249 236 230 229 233 263 257 247 241 237 237 234 234 226 221 235 273 257 250 244 239 237 234 230 220 236 241 246 247 246 277 259 274 303 260 386
344 350 338 332 331 331 322 304 286 252 230 232 229 237 262 242 242 238 235 230 228 221 289 259 247 240 234 230 218 212 210 228 240 245 239 233 237 270 263 163 272 278 299 435 443
352 358 320 308 336 309 307 266 260 238 233 232 245 266 242 243 237 233 228 227 220 215 212 210 209 207 206 208 218 219 233 246 237 240 232 243 240 262 243 249 245 273 291 307 560
287 375 327 329 310 305 239 239 237 240 224 234 273 247 241 240 233 228 226 224 217 215 214 210 209 218 228 218 244 238 243 222 185 236 219 227 232 242 247 239 250 257 274 283 303

GFSSW_2pvu_pres_036.txt.gz
Presure
317 289 339 316 328 339 344 341 340 345 301 295 290 284 243 210 223 204 235 169 225 217 192 183 177 168 181 168 188 188 182 174 162 177 183 187 173 171 151 159 157 164 165 167 153
307 300 334 347 326 324 350 355 344 332 321 304 294 287 256 232 197 187 204 210 210 181 220 186 180 185 169 185 177 173 164 168 168 176 176 185 185 186 180 172 159 171 168 87 124
304 325 103 329 332 344 322 318 346 344 324 303 304 293 278 249 221 215 205 235 233 161 169 217 194 185 180 184 167 175 160 170 160 176 175 178 178 179 176 168 171 154 120 171 160
304 333 365 92 357 363 362 323 338 312 332 316 303 303 282 255 255 214 211 179 224 233 161 176 215 185 189 179 177 177 166 176 172 172 175 174 173 167 171 174 179 181 173 173 168
311 378 347 236 317 211 335 347 322 345 330 322 289 297 298 279 256 213 233 206 214 220 228 171 219 216 193 194 180 171 168 167 178 177 170 158 154 164 167 170 180 180 154 175 174
395 348 403 478 521 484 343 337 337 318 330 323 296 276 284 287 270 237 223 222 209 208 225 200 214 191 207 208 197 175 178 170 168 171 175 174 170 169 157 152 155 157 159 169 174
361 577 545 558 527 504 473 117 312 327 332 314 308 283 276 269 267 264 235 247 213 209 213 218 191 202 210 212 207 195 186 168 176 170 169 170 170 170 175 174 164 160 156 155 162
522 552 522 521 492 479 457 454 317 337 321 320 300 313 269 275 268 268 257 233 233 214 206 211 217 201 216 158 204 194 200 186 187 172 170 170 160 165 172 177 170 172 172 175 65
509 548 526 500 475 466 447 436 377 317 323 328 310 315 273 264 259 273 275 265 245 227 212 214 200 221 205 202 215 209 209 210 189 193 191 177 175 175 176 169 180 181 175 179 163
500 546 471 455 490 485 457 432 445 309 318 317 306 292 302 257 271 260 254 261 258 250 242 213 214 203 215 216 211 208 208 216 214 192 203 211 183 175 186 187 178 183 185 181 184
488 564 488 454 459 448 468 442 427 313 309 312 312 305 302 271 252 259 264 261 247 238 254 238 233 196 206 177 211 215 216 210 208 210 208 207 206 198 206 204 200 199 195 198 200
472 501 466 452 442 452 464 436 415 459 306 306 308 291 292 301 265 251 249 253 255 255 260 251 247 235 212 209 204 209 204 211 208 208 210 208 203 198 197 197 199 197 198 200 197
458 470 450 436 461 447 453 436 418 421 302 289 301 285 288 279 315 261 260 247 250 244 247 245 239 239 236 223 223 204 207 201 212 193 205 204 200 199 199 200 203 202 200 195 196
453 456 439 434 414 441 448 431 417 366 290 282 289 285 284 288 323 291 250 263 243 246 254 260 242 244 244 250 235 236 215 208 207 207 193 201 198 197 200 197 200 197 195 198 199
452 439 455 430 427 448 477 418 508 301 295 303 267 184 281 278 274 292 292 265 249 240 245 249 238 248 246 247 251 217 229 238 199 209 208 202 193 197 194 194 197 197 198 204 201
454 462 469 443 452 471 525 443 411 295 281 280 238 277 266 278 267 304 289 288 275 248 240 238 246 252 236 237 240 259 252 232 245 223 210 210 206 195 200 199 199 203 206 207 206
472 481 489 487 482 471 493 372 355 305 293 280 285 275 271 262 257 288 280 281 276 295 247 239 238 246 244 237 238 245 243 243 227 230 236 237 242 230 212 213 83 215 217 237 229
488 478 422 397 458 484 405 194 347 307 268 264 278 270 259 260 272 298 279 269 267 280 279 249 240 246 245 238 237 239 245 245 245 241 221 221 223 78 130 183 138 113 134 245 247
468 401 361 348 403 426 358 346 365 275 271 279 268 260 263 254 293 289 278 263 258 266 275 276 251 250 260 238 245 238 237 238 237 237 236 240 240 240 240 181 252 131 259 252 250
380 369 353 357 372 376 353 332 276 261 268 262 253 252 256 244 259 276 282 269 262 270 265 265 268 251 242 246 239 237 234 229 235 243 241 240 237 237 238 248 260 264 275 281 273
378 380 343 344 337 351 306 280 270 268 267 257 250 244 253 254 251 249 252 256 262 262 264 261 261 259 265 236 240 245 246 242 244 244 241 236 233 260 281 278 262 255 255 192 203
385 376 316 347 351 386 284 285 271 264 246 265 235 232 253 256 254 253 243 249 297 293 292 299 303 307 268 259 260 261 259 260 266 260 258 294 257 255 248 241 239 274 265 260 262
383 350 348 336 344 352 277 274 253 260 236 240 238 225 225 236 255 297 277 266 262 264 268 275 279 278 280 281 281 280 281 277 268 259 245 232 82 225 260 250 248 254 217 124 121
377 352 343 350 355 270 276 259 249 250 245 236 231 231 244 277 264 253 251 251 251 251 249 252 250 249 245 244 242 238 233 230 227 222 236 244 245 243 155 238 281 270 255 260 299
302 390 358 347 339 341 270 266 258 251 240 230 224 233 234 263 251 245 243 239 240 237 238 237 233 231 231 228 226 257 255 254 246 259 233 233 231 255 257 270 261 236 238 270 289
322 317 385 327 355 333 250 262 258 235 234 229 235 231 273 255 243 240 240 238 236 233 228 222 223 281 274 272 257 245 221 213 208 212 246 231 237 232 241 244 245 243 242 265 279
325 315 338 329 345 326 282 219 250 240 235 232 235 239 263 246 243 242 237 229 225 220 294 283 258 236 213 213 211 213 226 221 238 243 232 225 235 232 223 235 240 239 241 241 261

GFSSW_2pvu_pres_039.txt.gz
Presure
318 316 318 299 337 308 379 341 327 325 346 348 345 308 295 275 231 232 164 191 207 221 146 186 173 179 173 177 186 181 166 164 155 161 168 162 153 160 153 146 148 143 143 137 135
320 317 326 311 369 362 201 379 327 326 356 343 342 317 302 293 255 218 197 208 193 203 213 149 178 179 176 180 169 178 177 165 168 166 132 168 165 156 152 146 148 113 153 155 149
323 327 300 363 315 194 323 322 355 319 321 354 336 350 295 303 293 251 216 204 203 187 163 211 150 194 177 180 178 164 166 171 180 189 180 174 173 163 159 119 158 158 158 153 158
322 323 336 370 465 457 438 413 320 355 321 335 332 336 318 298 284 271 258 211 193 219 161 181 191 152 176 180 186 178 164 170 174 183 192 190 169 167 168 151 152 157 168 181 101
334 321 353 502 517 539 574 450 421 259 347 314 332 319 336 297 289 278 263 240 212 187 198 203 234 191 206 195 191 181 171 171 174 182 191 191 187 180 168 161 169 180 178 167 171
335 360 490 497 543 517 520 542 469 369 341 333 334 337 329 304 299 283 273 240 229 207 191 192 210 183 190 228 220 194 187 168 162 165 174 183 185 184 178 158 178 180 179 175 171
337 407 483 546 514 490 495 501 514 504 320 345 308 329 323 312 295 281 280 257 235 227 201 200 205 175 229 222 222 218 195 181 180 171 166 174 179 171 169 168 176 173 167 171 170
361 485 478 545 504 481 480 476 160 505 329 317 324 329 332 303 306 289 280 272 240 232 229 192 232 195 191 229 191 179 217 211 174 180 177 183 169 174 171 171 175 170 167 162 149
492 483 514 534 470 454 480 469 470 472 392 322 336 332 321 306 305 286 287 269 261 233 233 223 198 214 201 204 223 184 179 208 214 187 185 179 165 165 173 170 164 171 174 177 167
502 466 535 486 464 444 443 451 450 449 438 308 332 331 311 297 289 293 286 274 266 255 231 228 220 218 205 190 222 229 210 175 214 215 161 182 169 171 183 177 175 168 167 170 169
487 469 463 459 440 439 441 466 434 428 436 306 328 317 309 316 287 283 283 286 264 265 249 231 224 216 209 201 171 220 221 222 209 210 221 204 197 187 185 178 168 170 170 170 170
477 463 459 436 448 446 446 444 426 424 413 310 307 311 303 296 300 278 267 282 277 263 256 251 236 207 226 206 221 206 217 188 187 213 212 210 209 198 200 204 198 187 188 190 184
481 452 441 442 423 433 441 444 426 418 398 308 288 309 304 303 307 271 259 262 274 276 267 250 237 227 211 221 200 207 209 205 206 189 205 214 209 206 204 205 204 210 211 197 193
475 460 444 459 440 455 447 451 416 539 328 304 286 297 305 290 282 292 257 256 264 259 260 257 259 237 238 221 221 214 208 206 196 219 215 211 210 201 202 198 207 211 205 206 206
483 493 467 450 455 459 468 419 592 438 304 294 290 297 293 296 271 294 264 256 255 261 267 270 274 247 252 243 228 218 208 214 213 205 197 197 203 205 210 210 204 205 209 208 207
449 490 490 474 474 493 425 422 428 355 296 290 288 300 300 279 284 297 260 262 256 260 271 255 250 251 256 244 250 243 217 222 217 209 196 205 200 191 198 195 204 209 200 190 205
417 498 497 525 512 420 455 391 341 320 290 297 305 300 289 270 285 271 298 263 255 249 242 249 254 266 251 239 251 251 251 249 254 237 220 215 211 162 199 197 204 202 211 205 204
393 460 469 472 479 362 353 341 322 300 303 306 294 284 283 273 276 268 266 302 287 251 246 241 240 248 243 245 248 252 240 239 240 246 241 245 230 239 225 212 212 209 203 152 206
400 416 392 377 347 350 359 337 282 288 277 282 291 284 270 271 267 260 303 291 287 286 273 244 253 247 246 236 249 251 248 238 244 247 243 231 240 255 238 234 238 246 229 221 100
374 384 406 383 358 354 373 273 278 275 269 282 267 268 262 261 258 272 291 295 284 285 288 291 254 252 248 248 242 244 245 244 247 241 237 234 247 246 251 182 164 232 159 231 234
375 371 409 371 365 323 266 265 261 271 265 257 261 259 260 260 290 290 293 284 276 271 270 281 287 290 255 249 241 238 241 241 249 246 238 241 242 246 249 247 245 247 247 247 152
385 360 307 303 294 283 274 273 274 267 259 259 265 256 249 256 267 285 287 276 265 261 259 258 269 272 267 267 264 240 240 244 251 263 243 247 241 243 237 236 243 242 237 243 285
332 369 331 298 285 277 275 277 270 266 250 241 248 251 250 246 247 239 250 254 262 267 267 262 254 253 261 261 262 262 265 235 243 241 247 240 218 249 262 272 282 270 260 243 268
331 394 376 301 286 276 268 265 241 265 240 233 236 236 237 241 240 253 256 257 258 238 235 267 271 259 258 256 257 261 263 264 264 256 261 274 286 274 256 245 236 258 286 261 262
305 331 403 369 286 280 282 273 254 244 247 238 231 231 238 243 280 267 261 260 265 268 268 273 276 280 283 286 292 297 291 292 293 276 260 246 236 226 231 241 259 253 273 257 258
309 306 338 400 296 283 278 274 263 253 250 243 238 236 242 280 265 258 255 256 255 252 251 252 254 258 259 263 260 253 250 243 234 225 224 249 243 254 238 238 241 234 253 246 246
285 288 317 345 389 280 279 246 256 258 232 235 232 238 239 266 257 247 247 240 241 236 236 235 233 232 236 229 225 225 239 254 257 250 240 222 212 243 233 236 232 235 239 249 231

GFSSW_2pvu_pres_042.txt.gz
Presure
266 272 309 316 123 311 322 323 340 337 366 353 330 363 364 318 326 247 247 195 179 198 202 172 190 141 184 187 177 176 175 168 156 100 159 151 151 140 146 142 143 139 147 133 140
278 273 325 320 303 321 336 247 369 345 331 364 340 316 371 345 300 244 262 232 205 206 180 202 172 183 136 183 186 165 169 160 163 167 169 169 161 146 145 137 136 141 140 152 132
282 281 324 316 354 374 398 432 459 398 346 316 345 327 341 357 316 262 266 254 232 194 224 202 205 194 167 139 183 182 169 171 162 168 173 173 168 160 152 154 143 143 138 143 139
290 316 315 350 404 488 483 468 339 299 394 338 349 329 338 337 329 309 251 262 232 234 194 219 191 198 201 189 153 185 176 175 170 173 176 122 163 161 157 156 157 154 147 147 151
296 340 339 408 492 481 482 483 517 537 426 365 327 330 317 329 349 314 298 283 251 231 202 203 196 189 198 196 162 166 186 173 177 177 181 182 176 68 131 165 156 158 161 161 160
328 330 394 501 496 481 499 504 480 498 536 395 330 330 315 337 326 343 299 275 269 239 226 217 176 189 168 202 191 156 174 187 182 171 183 174 175 179 171 172 163 158 160 159 158
341 414 471 493 489 519 489 475 466 475 515 407 346 319 319 296 318 337 309 288 298 237 230 226 199 174 186 225 207 189 146 166 175 179 170 177 178 162 102 182 177 173 179 175 74
340 489 486 491 515 477 466 460 454 460 500 422 368 314 322 313 317 317 323 287 263 257 233 227 212 204 216 191 180 208 185 172 159 168 171 175 172 173 168 169 174 172 177 186 185
437 500 471 475 463 448 441 433 463 453 468 437 402 312 323 303 316 309 317 286 282 257 239 224 225 224 199 201 185 184 153 161 181 189 179 178 177 179 185 173 169 163 172 146 183
445 486 454 456 450 435 418 424 451 454 479 446 410 309 318 299 321 312 309 284 268 282 281 241 218 225 210 199 201 182 216 195 158 168 156 138 183 177 182 180 169 161 160 163 173
445 466 445 432 450 435 431 441 440 436 489 445 402 298 322 302 324 300 307 285 278 276 274 265 242 218 212 213 185 182 197 157 232 169 155 154 184 196 197 195 189 184 178 172 171
458 474 452 330 445 427 451 443 428 460 542 439 369 297 317 309 320 297 294 286 292 278 269 271 258 241 227 219 215 196 175 179 200 224 212 228 149 216 214 209 196 182 177 178 172
508 498 473 446 436 444 445 449 421 438 532 397 317 295 311 304 296 303 283 283 278 286 269 267 268 257 239 231 216 227 200 194 178 198 166 193 223 182 170 193 210 212 210 187 182
472 501 484 462 451 457 457 448 404 511 408 371 298 295 301 304 303 302 283 282 286 282 276 273 273 259 246 230 226 222 208 193 190 166 203 209 218 216 214 185 209 216 212 216 217
490 546 514 501 488 459 434 415 412 428 364 319 294 274 308 303 287 314 279 285 281 285 276 273 274 261 256 238 225 224 224 214 202 184 211 198 164 211 222 196 220 216 211 213 212
450 437 431 419 477 418 411 405 419 360 322 304 281 255 302 298 304 311 268 277 278 281 287 274 279 268 258 249 232 223 224 222 222 213 211 198 198 200 175 219 220 191 187 212 215
406 401 389 369 378 472 457 406 357 320 298 291 280 305 298 298 297 298 265 264 266 273 275 282 284 274 261 253 251 234 223 226 222 219 205 219 205 209 139 144 217 214 216 218 213
403 341 390 382 395 414 382 343 310 286 290 272 282 309 313 303 277 285 287 277 268 261 258 257 272 282 252 257 258 238 243 232 221 219 207 205 217 197 213 203 211 214 205 203 212
319 345 322 318 299 295 292 291 288 286 267 301 294 300 294 285 277 271 252 303 277 267 253 255 258 259 261 255 254 250 248 246 249 234 238 221 217 222 217 211 186 211 214 213 216
306 322 304 293 304 266 292 283 288 269 288 277 286 287 274 267 271 273 264 276 292 274 263 248 253 253 255 252 260 257 255 256 245 247 251 238 251 253 240 236 235 239 236 238 235
400 328 317 305 263 287 279 269 287 284 272 275 274 274 268 272 272 270 272 275 281 293 269 256 254 255 250 251 262 255 256 261 250 246 243 245 249 253 252 251 251 205 255 249 266
326 334 293 291 301 296 298 295 282 276 277 272 269 270 267 260 254 266 266 294 297 281 281 276 250 244 241 245 245 247 245 249 253 247 246 253 251 255 256 257 252 251 250 253 250
290 401 292 310 295 295 289 249 262 270 268 261 251 251 251 258 267 287 300 293 290 290 277 282 282 282 267 255 252 245 244 252 247 242 250 240 250 246 252 250 266 251 248 241 254
301 313 332 305 308 286 289 278 260 253 253 259 255 251 246 252 251 256 272 290 284 276 267 263 261 267 274 275 277 275 266 255 245 241 239 242 243 248 244 240 238 243 267 280 264
296 286 291 350 300 291 290 277 244 256 252 246 247 244 249 249 247 247 251 254 262 268 267 265 260 258 257 262 267 266 266 265 265 264 264 264 260 257 253 263 282 252 252 243 248
296 288 307 337 381 297 280 278 271 272 251 216 241 248 235 243 266 285 280 280 278 237 242 245 252 254 255 259 259 259 260 263 264 263 265 252 254 267 277 243 234 224 248 221 241
290 288 295 292 321 368 289 271 263 267 253 242 249 237 248 246 282 273 270 270 267 262 263 267 273 279 283 287 290 292 294 297 294 297 289 269 246 230 237 238 236 226 238 237 236

GFSSW_2pvu_pres_045.txt.gz
Presure
232 258 298 308 319 320 316 314 319 321 329 325 318 349 336 366 358 409 285 223 216 222 210 191 182 146 168 187 189 177 166 153 143 147 150 149 142 152 144 138 139 78 122 138 146
233 317 301 329 325 323 338 336 299 279 354 358 354 350 330 361 343 379 293 241 224 204 222 202 180 199 175 141 187 184 174 150 159 154 155 153 147 143 145 143 143 114 135 125 111
257 308 331 329 350 349 482 485 222 471 431 403 358 327 343 354 342 358 370 272 274 184 219 216 206 189 199 186 145 188 175 166 150 162 169 160 151 143 143 147 144 143 147 143 140
296 321 336 348 395 485 492 480 468 471 449 429 395 368 352 327 336 330 365 337 244 237 178 221 211 202 185 195 188 132 181 178 173 163 168 172 168 158 149 146 145 147 143 141 144
325 341 317 461 506 488 483 483 480 477 478 464 410 372 359 325 341 318 350 353 272 229 232 202 205 214 201 190 179 176 138 176 175 180 175 174 172 125 159 164 155 152 149 145 143
311 347 446 495 487 483 485 481 470 469 467 485 479 388 363 324 328 322 336 357 322 246 237 218 224 214 209 197 195 164 168 134 177 177 176 178 92 171 117 172 167 164 159 152 147
317 341 361 486 466 480 481 457 450 466 471 461 477 423 369 326 321 312 324 356 305 276 254 255 231 205 220 194 203 195 176 160 152 138 178 180 174 145 93 170 158 165 164 167 164
364 409 473 474 449 453 436 433 458 440 435 463 473 470 365 320 85 305 311 348 308 306 255 276 240 231 212 218 186 202 180 179 171 164 142 177 180 179 180 177 173 171 170 167 169
346 490 465 451 438 454 425 420 423 429 421 450 476 446 357 316 309 297 306 326 305 295 309 248 269 238 233 202 195 212 201 183 179 170 165 184 170 175 184 175 174 173 166 174 176
489 499 461 448 429 445 419 427 434 452 435 441 504 420 334 297 309 296 299 310 307 294 291 284 278 263 233 221 199 184 208 186 180 189 171 140 156 177 177 187 184 170 169 170 175
436 472 484 453 424 432 423 456 429 439 456 465 489 395 309 294 301 295 304 292 321 297 290 287 243 235 236 228 199 195 179 223 201 165 191 193 186 142 148 162 179 189 180 170 170
412 417 462 473 431 436 450 452 431 443 493 493 412 365 303 295 299 292 308 295 291 304 298 287 259 238 263 226 229 224 227 189 186 203 206 182 167 185 189 180 177 177 164 167 174
386 439 483 492 458 466 463 443 441 474 563 419 385 337 297 294 292 292 304 280 273 306 297 281 278 288 237 241 222 222 220 208 221 188 179 195 198 152 158 158 168 184 183 182 182
363 439 578 441 462 465 438 434 472 557 403 384 360 305 293 293 294 282 298 280 285 276 295 278 278 267 271 255 231 227 223 226 198 197 207 183 169 163 209 207 209 186 158 157 185
340 452 561 435 436 434 440 573 416 394 383 364 341 300 287 295 309 280 302 282 288 291 284 275 282 271 276 255 260 224 225 223 218 197 192 220 187 182 182 193 165 216 232 229 200
331 345 307 404 481 529 487 397 371 375 355 343 318 296 289 303 302 304 283 283 282 292 278 269 269 280 311 272 270 227 221 214 215 214 213 194 174 183 194 182 190 226 214 184 169
341 336 311 322 313 315 382 381 364 379 348 318 298 287 286 315 301 297 275 276 286 297 272 270 269 270 274 293 287 263 224 219 217 216 209 209 210 208 193 195 162 185 175 189 197
337 307 309 326 278 307 285 298 285 272 281 273 288 304 316 318 279 312 276 270 275 278 276 280 282 289 298 296 267 268 254 238 223 222 229 224 218 218 208 223 206 186 187 194 218
296 306 313 285 283 296 317 315 277 304 294 297 319 302 296 298 287 300 280 279 273 275 279 275 276 284 277 279 286 265 264 257 241 225 221 220 224 227 225 224 220 215 217 214 211
283 319 307 288 302 261 308 302 305 305 306 300 300 293 289 289 286 283 290 275 276 281 281 279 271 274 280 290 276 273 267 259 262 242 230 226 225 217 223 223 227 224 225 222 198
297 308 314 298 278 310 303 291 285 299 303 302 298 303 291 288 272 287 294 278 269 267 265 261 267 272 272 279 284 273 266 264 257 251 256 239 235 229 224 218 219 221 221 127 222
275 309 311 305 306 288 259 290 288 287 282 278 276 274 273 276 278 275 278 260 273 289 268 263 261 266 255 255 255 269 264 255 259 260 257 257 263 258 242 240 240 239 261 220 259
278 282 314 331 311 292 293 285 265 276 280 270 266 265 264 260 257 258 263 264 274 273 288 274 264 261 258 253 247 258 256 258 258 257 249 248 254 263 260 257 253 252 254 253 259
283 307 313 302 326 299 281 269 281 257 259 257 253 259 257 259 268 285 292 302 296 304 284 279 272 264 261 260 254 254 258 259 261 257 250 251 252 258 256 254 248 246 253 252 252
274 273 293 320 372 319 300 285 277 268 266 232 253 255 256 256 253 254 274 298 288 294 295 267 271 272 271 262 256 269 270 258 251 247 254 244 240 246 249 248 243 254 238 244 267
288 291 298 302 310 360 312 297 282 267 260 251 222 241 253 246 251 274 251 249 280 280 284 282 276 270 272 276 283 281 275 270 269 267 263 256 251 250 241 239 251 261 258 266 267
273 274 290 309 295 301 317 299 287 273 263 244 250 230 235 225 249 289 284 287 270 251 250 262 264 259 258 256 256 258 261 265 267 265 265 263 262 261 258 252 250 271 263 241 251

GFSSW_2pvu_pres_048.txt.gz
Presure
248 297 300 322 326 307 304 332 285 330 325 325 328 158 327 324 311 329 355 249 248 231 204 201 215 197 186 196 138 171 162 155 153 154 148 148 146 146 149 115 111 143 136 98 129
292 305 297 307 312 323 353 412 412 408 335 87 333 329 327 325 322 320 335 317 285 254 222 201 219 200 192 181 140 176 170 155 153 158 155 143 143 149 149 147 147 98 156 136 139
309 307 309 365 334 487 481 474 461 451 431 467 375 347 336 331 334 319 318 360 381 253 233 216 196 217 199 195 181 140 165 167 166 157 166 154 159 148 139 147 145 145 139 73 146
315 318 319 501 525 520 502 500 500 490 454 122 343 401 372 353 328 299 332 354 368 280 250 223 215 189 193 196 192 180 175 166 169 169 160 163 151 160 149 144 146 144 144 145 152
322 324 360 487 477 472 479 480 477 480 467 461 454 423 392 364 355 341 325 308 359 379 248 212 232 210 218 199 187 176 185 144 172 170 174 160 157 149 150 152 144 150 143 144 148
325 321 377 394 454 455 474 475 464 472 459 468 407 459 399 380 350 346 319 329 332 361 313 228 230 212 230 211 197 178 184 166 133 187 144 174 161 126 158 151 145 142 143 147 146
311 320 425 454 448 440 452 449 442 439 459 456 454 441 430 378 355 326 320 323 311 346 365 262 221 221 229 216 201 191 189 187 144 130 187 175 92 153 163 159 150 148 146 144 146
318 315 446 442 442 432 446 425 422 423 441 448 441 452 455 387 347 326 320 322 331 338 351 322 238 228 219 179 207 203 163 192 187 155 144 182 176 169 170 151 82 61 159 157 158
313 352 401 457 438 424 424 415 427 418 414 440 442 457 471 389 296 316 314 313 312 322 331 316 278 236 219 231 215 206 189 184 190 185 174 169 182 179 179 173 167 163 153 163 165
311 355 360 447 446 421 420 434 446 452 419 433 454 467 488 374 327 306 307 313 306 326 324 307 304 241 227 216 234 201 201 185 184 185 180 181 177 166 149 184 182 179 174 173 171
308 352 468 457 437 429 427 453 437 432 442 436 461 481 450 350 316 308 294 310 302 307 315 305 313 258 261 228 219 197 212 199 190 185 194 187 172 154 180 187 183 177 179 175 176
305 352 529 448 453 475 471 448 425 444 454 453 456 427 386 327 307 294 290 296 226 298 313 318 297 320 266 233 221 220 201 196 204 194 185 184 189 177 173 155 169 170 176 175 172
298 350 327 586 453 447 446 451 480 517 464 435 411 393 340 312 292 285 296 282 319 309 300 308 301 302 284 270 227 216 225 210 209 196 195 184 186 157 189 179 185 141 155 170 175
296 348 329 349 593 611 594 594 512 447 404 395 384 350 314 298 288 282 299 252 293 310 299 311 294 302 301 264 265 224 216 221 216 200 209 197 182 190 194 155 185 184 177 142 142
294 342 322 363 306 414 424 422 406 401 373 374 342 320 304 293 288 286 273 268 286 284 335 309 295 284 300 283 275 250 223 214 216 224 202 213 204 182 187 187 194 155 190 185 189
290 306 323 307 343 318 356 414 398 380 359 337 315 303 297 291 289 286 270 270 265 273 294 310 304 294 285 298 257 230 251 243 220 218 228 205 201 193 189 151 202 192 152 153 166
290 283 318 308 325 333 309 297 388 376 357 310 306 300 296 289 291 282 267 265 265 266 290 296 307 311 299 282 296 271 229 253 248 239 227 229 227 194 196 189 183 210 214 179 188
284 283 325 308 326 303 317 304 305 282 356 330 313 294 291 312 295 283 279 269 302 270 270 273 291 301 314 307 281 283 254 240 230 255 238 229 222 235 226 216 229 219 214 204 205
283 282 337 310 294 282 318 310 310 314 297 278 274 314 310 293 291 272 297 289 282 280 276 280 283 288 294 306 295 290 269 254 223 227 245 238 227 228 228 217 218 218 189 183 188
285 282 320 311 300 286 310 316 320 321 315 313 307 309 296 293 278 291 291 289 283 285 282 280 279 283 282 278 296 290 282 276 252 251 218 235 231 221 230 236 229 223 220 215 215
286 286 277 322 309 289 303 301 303 310 317 305 305 304 297 293 272 278 273 281 284 276 275 284 293 284 276 273 273 265 259 277 282 256 227 253 233 227 224 218 215 218 217 219 222
283 284 278 354 316 296 292 270 293 270 288 291 302 306 291 293 284 304 287 284 281 280 272 269 268 267 273 280 290 301 285 289 272 270 269 239 251 229 219 216 217 215 215 219 223
280 280 283 289 343 299 282 274 280 273 245 279 278 283 284 286 285 282 277 304 276 271 276 275 275 281 275 269 275 283 284 290 293 262 260 263 261 255 242 231 226 226 225 224 223
283 277 282 283 333 325 295 276 282 268 258 254 255 271 276 279 278 270 269 274 264 255 283 267 262 264 261 262 263 259 262 273 281 274 277 265 254 253 255 251 251 248 239 235 234
273 274 274 280 318 357 316 288 271 266 261 248 258 242 256 255 248 251 290 297 278 268 270 273 284 276 264 263 267 252 253 253 257 264 260 255 253 254 257 259 259 258 256 258 256
283 278 273 307 317 306 325 309 289 263 265 252 250 239 249 247 241 284 252 252 299 296 296 276 267 276 277 270 261 259 244 249 249 248 253 259 257 252 257 254 250 249 245 254 254
292 280 276 267 313 306 301 309 340 294 278 266 255 251 236 230 242 269 281 275 256 276 296 293 273 267 265 266 267 267 265 264 259 252 255 259 264 257 254 256 251 239 233 236 256

GFSSW_2pvu_pres_051.txt.gz
Presure
189 311 312 311 202 363 349 339 340 350 334 332 330 307 324 305 284 281 321 324 347 234 164 177 207 211 183 194 180 155 167 165 150 164 157 138 145 148 146 141 139 133 114 122 78
284 320 312 314 341 385 336 414 403 507 458 189 335 305 332 277 282 180 312 323 344 264 250 226 198 206 173 196 174 169 178 164 160 166 156 152 142 150 148 143 147 139 136 121 132
148 322 228 325 376 363 429 502 501 506 498 475 377 338 334 329 110 277 292 314 325 278 251 238 229 219 194 174 191 171 173 169 175 161 169 150 151 137 151 140 148 149 144 140 138
121 323 322 317 381 486 457 466 472 485 482 493 447 89 358 341 294 280 303 295 289 330 252 253 253 197 208 193 201 180 176 179 168 176 166 166 149 150 155 113 151 134 146 140 143
126 319 323 378 367 440 439 453 474 469 486 481 485 462 427 385 337 291 279 315 297 296 313 243 235 245 210 198 178 162 183 185 141 138 176 171 165 150 146 150 143 148 142 145 143
126 317 345 366 340 439 427 442 451 455 449 474 462 454 439 423 367 316 273 285 298 301 328 273 244 231 229 208 196 208 169 176 173 178 135 178 150 170 155 155 149 143 145 147 144
324 317 232 369 477 446 434 432 432 427 438 436 444 442 430 425 401 361 307 274 308 292 307 259 253 239 238 211 198 194 201 184 173 184 59 176 177 161 155 168 159 151 143 142 143
323 317 361 373 332 461 429 419 427 415 416 462 437 426 430 427 415 365 319 305 309 289 293 314 261 249 222 232 202 200 197 169 175 179 180 179 127 168 172 109 157 150 151 151 151
319 318 359 363 356 443 433 418 436 450 412 435 428 423 425 447 404 370 323 305 301 282 329 315 274 301 235 226 213 204 188 206 193 177 190 175 181 151 180 173 165 155 103 78 156
319 320 358 359 355 451 435 435 450 460 422 430 431 429 438 439 410 358 331 317 310 304 294 297 336 252 251 244 219 206 196 179 204 190 183 192 175 152 166 147 180 174 164 161 158
319 320 357 384 505 456 440 437 446 426 420 425 432 431 424 428 382 349 318 329 273 290 317 309 333 340 233 235 234 216 208 192 168 197 184 184 184 186 180 165 176 172 170 169 163
315 315 356 379 519 514 466 450 450 461 436 453 440 436 414 405 351 310 313 305 292 295 320 303 301 332 337 293 232 229 202 201 208 207 196 181 187 187 189 186 171 152 132 172 172
309 307 345 354 328 479 539 513 481 481 431 458 441 402 397 345 336 293 296 304 306 307 204 310 310 325 342 321 245 231 221 211 216 202 206 191 188 186 178 186 132 180 188 187 177
308 296 339 350 425 439 437 476 479 415 375 347 363 381 371 327 315 298 291 295 316 290 302 289 297 317 329 320 301 232 226 214 218 206 213 205 190 193 178 191 177 186 186 180 184
146 298 325 344 319 397 442 432 384 356 363 372 372 337 306 285 322 307 291 302 315 291 276 312 310 298 325 332 314 254 223 208 219 218 218 208 206 179 190 180 185 193 180 187 188
124 295 291 324 318 352 342 380 349 388 413 355 327 308 297 299 286 281 287 282 326 296 288 303 288 307 329 341 323 304 246 222 208 215 214 221 210 196 114 166 190 183 186 195 195
124 291 314 324 309 310 337 331 370 363 358 306 305 297 298 284 273 275 264 272 274 295 280 308 290 306 306 330 329 307 283 243 224 220 211 214 224 211 199 155 191 189 189 185 184
290 291 285 295 289 312 317 311 379 305 321 320 304 295 301 290 279 272 267 269 275 283 301 285 309 323 303 315 316 318 293 267 239 219 224 221 217 215 219 192 196 194 195 193 191
293 292 282 303 308 303 326 323 306 293 287 307 307 303 291 287 286 281 273 274 277 272 269 298 297 305 314 330 298 306 309 279 282 251 245 226 226 222 219 223 200 197 198 200 195
296 292 307 271 320 300 303 333 312 310 295 295 303 294 299 300 291 287 290 283 268 282 278 270 290 292 304 326 305 304 293 303 279 263 245 249 250 232 220 218 214 218 212 198 193
306 291 285 271 327 305 290 296 319 311 309 308 305 294 294 303 292 281 284 284 280 280 272 273 274 272 275 281 306 320 291 290 284 280 260 249 255 253 247 223 218 218 217 216 216
146 295 284 284 348 317 295 293 281 296 314 313 314 305 295 290 294 287 274 285 286 279 286 276 272 273 273 284 277 290 302 306 281 258 259 252 250 227 231 247 246 246 229 232 249
327 191 289 285 276 339 300 282 270 271 277 284 305 303 301 295 285 316 301 288 279 282 281 279 277 282 284 282 270 270 270 284 290 285 258 259 252 246 245 254 227 251 247 240 217
238 319 299 284 283 290 320 294 279 278 272 256 253 273 280 283 281 280 288 283 283 270 271 273 265 266 267 268 274 275 279 276 271 286 283 278 253 250 249 240 238 232 219 228 218
339 321 252 287 277 297 324 317 294 282 278 268 254 250 250 254 252 254 266 275 273 282 289 277 274 273 267 279 275 277 269 278 281 295 279 266 275 271 259 251 243 241 244 237 226
344 333 110 296 279 305 305 337 309 293 280 273 262 253 248 251 249 265 266 254 294 276 267 274 265 274 264 269 267 261 266 261 262 271 283 282 295 256 272 267 248 243 244 245 247
342 333 324 300 288 313 293 297 307 324 282 275 273 265 255 245 241 246 287 288 260 307 308 274 263 275 276 278 270 254 272 255 255 256 258 263 267 273 264 243 242 243 244 246 250

GFSSW_2pvu_pres_054.txt.gz
Presure
213 159 327 308 324 337 378 367 337 326 346 332 339 339 336 318 312 331 315 329 326 263 230 246 235 144 166 183 180 176 182 170 164 163 146 149 121 153 155 144 138 142 125 141 133
163 287 327 326 372 374 371 335 528 492 465 327 326 338 342 291 314 323 300 308 89 284 277 139 138 177 147 200 179 187 168 184 161 159 157 152 155 149 146 148 142 146 144 132 131
183 229 328 326 372 391 355 495 469 451 475 489 462 316 338 343 275 280 318 295 321 315 248 243 247 242 178 171 197 161 176 171 158 177 168 155 146 151 150 146 162 147 150 141 136
198 127 328 370 386 362 453 462 435 431 486 501 494 497 352 358 330 317 305 295 297 103 238 243 240 237 240 199 176 198 180 170 186 156 168 166 145 149 156 158 141 136 154 143 142
208 125 276 376 375 378 469 441 422 424 463 465 477 474 494 340 326 314 286 319 132 313 287 287 240 247 212 218 169 202 188 182 179 182 140 179 167 150 148 156 158 139 138 146 145
277 337 323 382 366 488 465 444 426 428 434 442 456 461 474 471 331 300 310 289 289 294 329 260 242 240 229 212 202 193 199 192 186 172 185 171 169 165 157 148 145 148 143 143 144
125 249 323 378 357 471 454 447 417 422 434 429 452 452 469 456 464 267 315 292 270 297 293 298 321 243 250 224 223 208 209 200 184 169 90 187 172 171 159 158 146 154 155 145 141
123 260 314 373 385 473 450 429 417 427 429 421 454 442 450 447 450 324 276 305 281 281 294 300 259 243 242 246 241 219 194 205 186 184 180 132 180 179 179 160 167 156 151 147 147
120 321 316 368 392 479 447 434 443 467 444 418 445 427 435 425 459 424 269 278 277 274 307 288 302 309 242 239 239 242 209 195 166 126 187 186 175 187 156 176 158 62 159 153 146
119 324 322 367 386 517 456 443 440 450 428 432 427 425 422 419 449 413 316 261 179 270 279 284 292 290 322 248 242 245 213 190 193 166 179 162 173 179 187 177 174 167 162 162 150
299 324 321 362 383 539 481 447 432 420 423 419 435 420 436 433 441 400 392 295 282 266 269 141 281 296 316 343 228 240 218 202 193 197 178 193 184 189 184 189 183 124 132 164 161
147 313 323 312 347 404 420 489 468 446 451 441 438 426 433 379 357 358 381 342 300 261 270 288 292 284 266 320 335 240 236 240 199 186 191 195 192 186 187 186 192 181 178 137 142
232 310 319 307 343 380 404 421 473 461 406 412 384 374 384 376 348 327 376 331 290 280 254 258 268 299 294 315 367 246 244 228 205 198 194 186 198 194 184 184 188 183 185 180 176
156 312 314 311 347 404 396 402 379 368 369 357 327 327 338 358 394 358 324 316 290 353 276 263 288 274 334 321 357 298 229 246 235 204 202 202 184 188 195 189 169 183 188 184 183
161 207 308 311 308 395 338 417 395 340 349 349 338 316 318 310 321 327 336 302 277 268 247 269 271 305 277 335 346 372 275 233 237 229 216 201 184 184 182 194 187 188 179 179 188
345 209 314 304 304 321 436 322 333 357 348 342 306 302 289 295 320 318 332 222 312 291 282 313 296 310 302 302 332 359 354 262 228 238 234 229 204 191 190 184 192 193 190 172 173
343 295 266 298 296 329 311 342 308 340 333 349 302 308 295 287 288 305 322 298 329 325 294 292 305 298 307 291 328 343 372 274 259 234 230 229 230 204 200 188 186 199 194 194 187
349 345 328 300 294 317 308 320 304 336 293 327 310 307 296 294 293 274 293 316 302 302 294 295 315 296 307 315 305 323 343 347 261 268 235 232 226 221 202 202 194 186 191 197 195
146 262 332 120 295 313 302 325 314 332 312 305 306 306 297 287 289 288 294 307 293 288 286 297 294 295 305 327 319 336 340 349 323 253 255 240 229 232 225 215 201 201 213 190 191
251 347 337 307 293 302 306 303 317 302 304 295 299 303 300 291 288 284 282 289 292 305 313 303 305 301 322 319 303 313 320 336 342 312 252 277 257 236 225 227 218 206 205 213 212
380 356 331 320 250 282 291 303 295 296 312 304 300 288 300 297 281 284 281 274 280 271 280 268 300 298 304 302 312 323 314 312 323 314 302 279 264 250 228 223 227 226 209 217 213
156 359 345 319 304 300 313 302 297 287 283 325 317 294 292 287 290 286 272 285 284 284 266 266 277 269 268 292 301 314 299 297 303 309 291 293 267 256 249 235 222 218 215 212 207
375 346 343 182 319 298 284 306 291 281 283 275 319 310 299 294 289 292 277 262 268 266 271 265 270 270 273 273 275 279 303 303 286 293 302 282 274 262 260 257 255 246 227 215 213
317 311 348 332 227 315 318 302 302 294 286 278 273 277 302 299 290 289 294 283 286 280 278 274 275 274 264 266 260 268 267 275 293 295 277 287 285 272 264 255 252 253 252 254 251
183 346 346 326 321 316 307 322 312 299 294 287 273 259 266 264 262 266 272 282 282 281 282 274 285 272 282 279 279 277 267 265 267 280 286 281 275 279 272 256 252 248 245 245 246
314 138 292 331 333 312 302 317 312 307 294 289 281 270 262 261 257 258 268 266 269 282 274 284 281 277 275 272 272 262 277 272 271 265 269 280 296 272 273 273 271 258 252 247 247
133 149 318 342 326 310 302 307 284 294 306 291 276 280 272 265 247 254 256 278 275 253 291 281 273 275 277 278 275 269 279 270 275 271 272 276 287 287 288 282 262 255 251 249 244

GFSSW_2pvu_pres_057.txt.gz
Presure
135 324 309 327 321 378 385 369 361 354 409 348 353 348 359 333 308 310 298 278 299 317 305 156 257 148 210 199 198 188 158 150 178 175 167 104 156 141 151 158 140 157 140 154 134
188 312 349 328 328 375 372 393 516 497 480 491 312 278 353 359 315 296 286 296 320 257 299 303 255 253 145 207 191 193 197 183 180 143 169 165 157 155 141 149 153 137 169 162 150
186 202 349 182 332 375 475 493 466 462 460 462 462 439 317 356 353 306 306 304 299 316 281 313 260 258 227 206 200 183 141 186 168 181 177 170 148 160 130 111 156 143 153 144 157
214 341 346 153 333 375 520 474 455 437 433 433 438 462 501 323 359 311 298 299 292 310 335 288 277 255 254 205 207 194 191 192 181 184 176 180 159 83 151 144 160 153 149 159 146
221 323 344 144 374 488 500 464 442 442 423 420 461 466 481 484 342 329 316 292 292 304 309 280 304 252 255 179 209 204 180 169 190 181 188 179 173 159 150 150 156 154 139 146 149
208 372 348 148 377 531 478 455 450 428 425 435 439 456 465 495 335 339 314 299 301 243 301 269 253 245 247 239 184 205 197 163 155 164 192 185 171 168 158 161 159 150 145 142 146
164 370 354 320 414 528 474 452 437 426 423 436 429 454 457 470 316 343 316 294 284 288 321 280 282 290 240 248 247 164 206 213 164 195 178 186 177 149 167 145 154 148 151 154 153
239 353 228 344 348 522 468 451 442 447 477 423 448 451 449 467 449 327 317 300 285 288 285 278 291 309 252 243 249 220 214 208 158 179 190 179 159 177 180 169 144 153 138 146 152
220 368 219 329 429 529 468 451 439 465 447 428 443 441 453 457 443 304 327 286 292 278 288 288 318 314 283 246 244 248 214 213 212 134 174 187 182 172 179 170 168 157 140 148 153
172 367 173 340 414 518 496 461 445 435 437 432 433 444 428 436 456 417 329 294 282 278 283 281 282 321 326 224 241 238 239 225 220 206 168 189 186 186 181 192 114 109 163 156 160
235 359 270 336 344 435 461 406 462 444 444 434 431 416 420 437 460 426 314 289 270 286 285 287 281 306 284 285 244 240 238 241 219 203 208 187 156 67 67 126 178 181 176 163 161
154 338 354 328 314 365 391 382 382 475 440 436 418 416 434 386 393 440 311 284 271 277 293 290 283 279 299 242 246 245 241 240 248 227 199 191 192 191 183 173 183 177 185 176 170
182 226 351 219 311 396 378 367 369 375 390 382 376 404 426 371 342 379 234 293 287 262 289 292 294 271 287 297 313 230 240 236 244 233 227 197 199 197 186 184 172 188 175 187 172
159 263 354 129 187 309 361 325 384 358 349 328 330 349 376 359 342 344 297 296 284 275 265 275 197 295 249 275 270 249 246 248 238 243 211 224 188 201 199 192 185 158 167 179 175
185 351 352 338 318 311 380 317 317 369 347 331 338 346 356 356 348 355 334 297 286 278 269 259 295 273 297 256 294 249 252 250 243 244 247 214 209 184 192 194 186 189 168 170 184
154 176 347 329 319 303 341 321 350 340 329 341 320 330 328 337 324 375 342 295 287 290 265 269 262 289 287 288 313 311 268 264 239 243 246 244 228 234 189 196 182 190 192 170 163
187 163 318 332 318 311 309 330 328 319 320 315 311 321 331 308 328 322 346 310 282 302 279 274 266 267 268 288 285 314 317 296 320 250 240 247 248 232 197 191 177 192 192 186 186
143 300 305 328 326 310 302 298 330 311 323 318 310 302 306 319 309 308 308 319 309 287 280 294 288 301 273 267 268 274 292 318 341 317 336 234 241 236 228 213 189 186 197 182 177
131 156 162 341 313 309 305 307 302 323 308 327 309 318 296 299 289 309 304 303 303 304 290 298 313 336 330 271 277 267 290 273 301 373 357 357 260 241 235 220 223 191 192 202 192
246 136 156 166 267 271 308 301 302 309 316 318 295 304 293 303 311 331 313 324 331 318 303 321 315 304 292 316 321 312 270 336 290 358 364 345 341 264 250 241 220 216 236 197 196
164 179 268 353 149 327 305 298 297 297 314 312 297 316 294 281 284 277 290 299 309 299 296 293 302 306 297 295 310 322 322 334 321 341 345 341 331 298 252 245 235 238 212 231 223
236 255 155 368 348 333 320 311 300 290 289 310 307 297 315 289 299 276 277 271 267 276 263 307 311 306 306 307 314 310 310 296 308 317 335 336 318 310 299 275 244 235 226 229 230
270 197 223 150 350 334 317 302 298 302 291 288 320 312 298 298 276 292 277 273 269 271 276 278 278 273 265 296 295 302 305 307 294 295 304 323 325 298 292 287 283 270 251 243 234
166 161 146 158 354 347 332 297 328 297 296 285 284 306 321 306 294 286 284 278 278 270 268 271 268 271 276 264 276 278 288 309 295 294 292 292 305 306 287 277 274 275 252 227 244
149 169 165 133 368 348 332 322 306 302 296 290 285 283 265 273 274 284 287 296 290 273 275 279 276 270 277 270 274 270 275 276 282 292 290 288 287 289 290 277 266 264 264 261 259
153 145 165 266 184 354 134 327 317 310 312 301 291 277 280 275 265 269 270 265 278 283 283 281 267 282 283 276 279 271 268 268 269 268 280 291 283 279 288 296 288 265 254 252 252
157 272 171 167 189 366 335 329 320 315 299 296 298 285 278 282 265 262 250 267 282 263 272 282 280 286 269 279 278 283 281 273 268 272 269 273 282 285 280 276 282 290 277 268 262

GFSSW_2pvu_pres_060.txt.gz
Presure
128 152 242 233 261 363 336 376 473 531 545 236 322 366 166 374 311 307 324 296 287 301 284 149 309 188 239 230 212 176 198 194 144 189 184 169 153 154 153 160 86 95 88 98 151
121 234 241 383 341 367 380 451 487 484 477 479 491 459 353 347 363 320 296 298 288 318 330 214 285 332 244 215 181 224 196 192 184 148 179 179 151 151 151 147 162 149 160 141 138
202 210 233 384 359 380 451 458 486 447 437 443 453 459 456 347 123 196 317 293 286 305 315 289 337 315 302 247 237 208 125 158 177 182 192 179 165 158 156 154 168 147 157 159 145
113 223 284 380 353 468 529 499 461 450 426 436 434 438 460 469 76 161 329 293 318 291 299 278 323 179 340 260 221 195 211 159 167 187 183 142 180 167 164 157 153 154 150 154 155
167 174 250 379 380 540 522 488 459 435 433 429 423 428 446 446 343 354 332 302 303 285 303 294 309 368 332 259 217 245 148 175 155 167 187 186 144 177 176 161 157 105 146 147 152
220 153 297 382 372 468 496 472 454 452 437 422 423 429 452 461 412 343 334 309 295 298 302 315 272 347 277 254 250 244 222 165 169 199 158 191 176 195 178 153 159 150 124 157 151
145 196 322 352 365 455 493 472 457 453 439 434 429 445 449 463 473 319 340 319 304 292 283 284 275 331 282 267 250 241 241 182 160 193 189 186 191 148 189 156 169 155 158 100 154
149 185 370 366 317 405 481 457 456 463 459 436 430 456 460 471 464 359 336 315 311 288 277 285 284 310 272 310 245 247 247 211 194 179 199 168 192 188 174 175 170 164 155 146 156
158 164 309 356 318 435 471 475 453 443 445 448 443 447 449 461 442 446 319 321 308 281 277 284 273 273 342 349 250 248 232 240 179 206 196 206 197 189 174 188 168 161 161 164 162
250 263 217 326 346 401 411 436 460 458 446 442 440 449 438 450 425 453 304 318 301 279 277 275 287 281 332 279 245 246 244 240 219 172 204 191 188 205 195 170 179 159 155 164 156
137 163 180 230 349 332 382 359 387 447 446 424 438 425 449 415 427 480 295 311 288 273 275 273 292 299 309 273 274 243 242 238 234 218 161 207 189 155 205 158 190 176 168 150 161
188 137 162 173 342 335 375 348 365 443 433 409 436 429 442 430 432 487 310 298 284 273 276 295 291 291 297 325 325 246 244 235 236 236 225 199 213 191 161 189 180 184 150 168 167
200 146 259 184 234 335 352 358 354 365 380 374 383 446 425 416 428 348 309 295 284 282 276 275 281 292 255 277 268 249 243 243 239 239 234 221 206 214 79 67 75 176 184 180 173
255 187 210 349 325 331 323 333 324 371 375 359 366 389 354 359 363 303 304 302 282 280 278 276 280 287 268 265 275 309 246 243 244 243 240 234 217 211 209 175 169 175 185 177 183
132 180 265 144 350 337 311 346 325 385 376 349 353 372 347 344 348 278 270 300 282 274 274 276 276 284 289 268 288 317 238 242 245 243 246 247 247 239 216 208 184 177 177 183 184
147 185 172 134 352 327 323 311 314 320 355 345 324 348 361 330 341 286 281 270 292 280 277 273 281 274 295 286 282 308 318 236 240 245 247 248 252 250 229 206 171 173 184 179 180
152 137 253 184 244 341 323 306 325 318 324 331 323 315 348 335 317 304 279 311 288 293 283 279 274 285 275 287 285 272 306 311 234 246 247 244 246 245 257 246 203 199 203 190 183
152 150 183 191 234 341 327 310 303 321 342 329 318 327 320 346 356 308 290 294 293 286 307 275 283 286 289 286 292 304 247 264 264 270 237 243 243 231 239 242 244 241 193 199 197
153 161 192 159 203 191 325 315 308 310 319 313 302 325 327 313 328 329 321 293 294 284 288 286 275 275 271 272 286 309 305 313 304 241 260 232 248 243 235 247 239 236 246 193 186
161 147 176 149 167 235 256 329 311 306 299 313 322 301 313 320 312 342 322 311 308 288 287 275 283 286 285 285 269 247 297 308 318 298 263 303 240 228 224 242 240 240 235 238 211
142 133 197 203 291 327 309 332 317 305 301 324 314 303 293 334 306 310 328 321 313 308 290 284 274 270 273 291 290 283 328 303 269 269 277 288 321 324 237 243 242 239 238 248 249
215 157 147 160 251 290 360 326 319 311 299 293 311 302 310 288 284 279 304 308 300 296 304 301 297 291 284 289 304 303 331 331 335 345 325 254 363 283 336 362 267 249 254 245 231
169 153 138 225 192 351 325 357 320 318 302 291 285 315 303 291 300 283 277 273 286 299 301 303 304 301 293 302 307 297 301 300 306 320 329 300 348 301 335 321 339 325 308 286 262
145 143 148 239 194 152 157 266 288 321 307 295 289 283 317 302 297 287 283 280 278 270 283 284 280 288 288 291 292 299 297 300 309 310 305 315 323 339 326 326 308 311 315 303 263
130 138 229 153 142 133 132 146 180 285 330 305 292 289 275 270 309 300 293 286 277 281 271 275 276 276 270 261 274 294 290 290 299 309 297 291 300 304 318 318 307 292 297 295 292
163 170 233 138 165 120 264 178 158 175 320 315 303 238 287 272 265 264 285 302 304 292 282 278 266 271 257 276 271 264 277 282 282 299 304 284 278 284 289 296 306 306 278 296 280
119 157 152 146 161 140 221 145 145 149 164 172 312 299 290 281 268 266 266 254 272 279 286 298 292 286 274 280 283 269 272 281 277 277 281 287 289 275 271 274 277 291 300 278 271

GFSSW_2pvu_pres_063.txt.gz
Presure
151 156 239 178 184 377 390 434 442 483 463 468 365 424 338 369 333 314 306 306 303 299 256 247 240 183 186 243 219 211 217 176 185 181 124 190 166 167 156 161 157 140 154 146 91
128 246 150 192 187 390 390 438 558 531 488 465 475 474 491 364 318 342 303 295 303 301 288 263 260 250 230 209 216 217 223 216 188 178 192 194 152 134 167 155 162 150 67 155 75
141 179 246 152 361 397 399 560 533 479 468 435 423 435 459 480 358 364 323 297 291 297 297 292 282 271 245 181 118 211 209 191 222 170 202 161 195 160 145 160 150 153 135 151 159
154 142 287 76 215 387 396 508 503 458 440 414 409 414 437 456 417 72 321 308 294 297 292 288 285 280 253 227 288 279 221 213 239 140 198 203 197 176 169 164 91 146 149 147 163
125 179 170 147 164 270 412 499 480 470 451 429 425 418 429 439 458 184 346 344 302 288 292 284 284 274 261 236 253 259 222 215 208 193 191 187 198 189 184 171 169 152 156 142 147
148 135 94 201 315 176 388 447 475 489 464 453 446 434 421 422 437 457 354 345 314 282 284 309 284 272 304 241 217 311 246 169 187 233 189 190 194 197 140 184 171 159 160 151 140
165 182 125 238 300 371 382 460 461 462 462 473 442 428 425 442 447 449 341 334 332 278 279 306 292 311 272 250 224 313 229 222 214 203 193 167 204 200 181 182 181 171 166 163 145
157 150 118 128 382 351 362 397 467 460 458 438 442 448 454 448 466 450 336 331 328 280 272 286 292 273 276 273 282 264 275 229 224 199 244 190 201 130 192 150 155 181 170 165 155
125 149 212 243 381 177 350 384 392 454 467 442 453 457 463 460 481 443 342 324 320 311 289 271 293 287 311 309 325 293 353 256 227 218 238 208 183 184 133 190 168 183 181 180 163
149 152 147 218 352 270 345 361 385 400 445 434 429 448 444 469 407 419 490 311 315 299 281 276 297 279 309 303 294 289 410 251 236 227 215 235 195 184 169 181 191 180 159 95 151
118 153 147 133 192 219 349 342 393 403 434 443 431 430 461 406 404 421 484 313 307 300 283 288 296 297 305 315 271 348 309 244 240 238 216 224 215 190 182 161 127 187 147 180 179
149 118 137 171 236 366 349 335 357 402 433 444 446 460 433 401 429 460 345 327 311 295 290 285 285 305 293 305 273 332 260 254 247 245 243 216 234 206 142 183 166 185 178 157 182
130 170 143 173 214 344 357 336 330 376 369 444 439 420 412 422 443 427 306 312 306 291 286 290 288 289 271 304 305 319 275 253 241 245 245 230 236 223 195 204 211 176 175 177 152
149 120 160 191 180 252 356 342 329 347 367 365 419 423 434 440 419 395 292 311 300 279 277 277 285 288 286 285 302 256 247 198 247 242 242 241 205 231 224 172 187 207 192 177 179
133 157 165 169 206 255 346 329 323 343 353 362 367 378 429 401 384 310 264 295 295 181 275 274 307 279 298 288 284 249 253 255 246 227 246 246 246 212 247 182 84 205 116 74 168
152 154 133 174 244 319 273 349 327 331 343 359 351 355 363 353 327 287 283 288 291 280 278 280 288 287 292 292 291 288 317 260 245 244 255 249 247 241 240 243 240 209 209 152 194
142 153 200 184 248 248 357 343 324 317 332 354 334 360 350 332 299 299 293 288 277 276 284 290 284 283 267 266 284 253 244 249 287 245 243 244 247 235 245 248 247 246 185 193 191
167 156 236 177 150 153 298 351 333 315 323 319 349 329 349 340 299 289 293 287 282 283 283 284 290 282 293 276 293 289 293 302 282 243 245 244 247 234 243 246 250 246 250 209 184
146 138 193 157 156 174 238 164 342 261 312 319 313 360 319 349 295 288 280 298 287 274 293 299 278 294 247 271 282 302 291 288 309 294 245 249 250 238 244 244 245 244 250 252 249
138 133 166 156 145 227 167 187 169 249 305 319 315 312 351 315 337 298 295 274 286 283 267 269 269 288 283 295 278 277 290 298 312 308 285 250 241 238 239 239 243 245 248 246 252
166 126 176 163 151 160 162 169 174 150 145 155 251 303 312 332 323 323 307 288 293 288 281 270 291 282 284 290 274 283 287 283 293 301 308 251 297 236 234 243 242 244 247 250 246
160 126 142 132 135 150 180 157 311 338 164 309 230 229 304 298 315 332 307 310 316 292 275 296 289 249 276 274 302 281 274 271 270 271 287 280 258 309 239 170 228 231 261 239 235
134 116 130 149 184 153 279 131 256 139 181 149 159 299 321 300 290 311 306 325 308 305 298 293 287 284 268 274 283 272 277 280 292 298 340 279 287 287 294 309 239 237 241 246 245
144 141 174 135 206 173 173 156 137 159 210 255 152 257 289 305 296 292 282 286 296 310 296 294 298 296 293 292 292 302 297 305 304 291 307 316 338 336 327 306 287 170 238 298 258
142 131 120 134 170 224 242 143 144 129 274 149 300 154 189 282 299 298 292 285 280 282 283 289 292 303 299 298 298 295 308 305 304 297 305 307 311 318 321 318 346 289 287 298 342
134 122 160 212 153 166 153 122 131 134 211 142 152 320 298 289 277 273 302 294 286 280 277 279 285 283 279 285 284 287 288 292 290 299 305 314 286 300 316 318 338 327 338 295 283
146 167 155 171 175 151 194 158 131 252 138 221 137 295 294 299 286 275 275 267 290 298 292 282 274 274 279 271 272 266 268 279 290 284 290 304 294 286 278 290 302 322 324 304 318

GFSSW_2pvu_pres_066.txt.gz
Presure
119 136 134 130 98 126 196 154 385 561 534 540 498 438 389 369 347 266 314 316 314 312 289 265 242 215 189 169 218 128 116 138 119 187 193 190 200 176 176 165 160 158 142 133 111
125 115 123 176 220 224 240 283 476 538 492 486 472 455 464 435 366 319 309 305 313 309 305 285 262 226 212 200 196 156 168 176 203 201 183 184 206 194 175 168 165 158 163 140 143
118 136 145 147 125 301 387 372 438 528 486 473 455 424 432 456 425 351 364 320 303 312 311 300 272 249 217 208 197 170 171 149 182 199 182 202 180 201 190 130 164 163 159 162 140
111 133 120 136 165 137 231 171 430 471 504 460 443 409 404 428 434 417 77 352 311 301 312 306 287 264 240 209 208 208 151 213 172 181 213 187 206 170 196 183 147 153 160 155 163
121 158 154 134 123 265 385 371 420 429 513 471 433 420 408 417 434 447 371 180 343 306 304 307 289 274 248 215 207 202 187 200 134 209 189 200 183 184 169 183 170 124 122 152 158
121 156 111 134 277 215 384 372 400 424 474 483 472 426 419 414 429 455 482 347 347 320 290 311 295 289 257 235 212 206 209 170 204 157 151 208 198 180 188 186 192 173 154 154 151
127 143 132 121 271 215 381 371 381 403 442 463 453 473 450 422 419 435 453 342 336 344 304 291 297 292 281 250 232 214 212 221 186 122 146 202 212 199 187 172 194 189 158 135 168
125 151 138 188 253 165 181 372 366 386 452 458 440 458 450 437 434 428 441 478 331 334 309 287 285 292 283 270 249 226 218 226 153 180 232 207 213 202 184 173 182 193 191 151 156
150 140 154 127 186 247 352 373 357 379 449 451 463 466 465 459 445 441 443 490 325 289 323 295 275 281 289 280 261 248 226 222 217 161 209 197 211 207 209 188 171 194 188 191 169
111 136 135 178 224 215 230 375 357 367 457 466 454 441 452 456 459 448 451 438 317 322 321 296 283 275 286 298 276 273 249 88 221 169 190 245 218 210 202 194 174 182 193 194 188
149 150 188 159 174 209 242 369 356 353 406 464 472 463 452 426 435 431 449 376 316 315 312 305 293 275 323 316 274 268 263 252 228 217 209 226 230 62 210 163 222 176 195 196 194
117 161 147 97 168 221 186 328 359 352 399 436 487 423 410 404 405 431 441 342 308 312 302 301 300 271 308 306 280 266 265 259 241 224 220 209 254 225 215 208 234 196 146 171 176
130 166 173 168 225 230 243 330 362 340 385 434 422 415 403 403 424 442 387 314 308 300 293 290 298 285 273 298 289 307 266 256 246 228 245 217 259 256 216 212 186 238 190 188 169
131 113 182 139 165 187 181 206 239 342 334 398 435 422 439 445 438 482 322 305 304 292 293 284 295 302 312 281 292 273 315 274 266 237 222 212 253 260 230 215 209 183 157 185 188
125 120 136 212 230 174 146 192 155 165 168 378 397 480 497 459 464 381 305 302 289 286 290 298 304 292 329 292 299 278 311 298 250 245 233 246 268 254 255 213 214 197 135 237 183
149 144 165 205 148 194 173 193 152 227 350 252 366 348 379 369 380 318 296 303 294 295 295 290 292 306 290 284 301 285 288 317 312 334 272 320 262 263 252 251 209 219 212 232 244
125 168 183 153 196 178 246 255 161 147 169 319 383 378 362 342 314 302 295 291 281 272 270 294 291 291 285 279 268 291 278 307 315 282 327 258 291 256 254 250 247 216 236 213 221
128 153 130 145 194 143 175 142 165 172 152 293 338 344 343 345 306 292 284 306 282 285 279 278 284 269 293 291 291 282 282 289 315 278 240 260 350 260 256 255 247 246 241 240 224
115 169 128 184 128 168 200 156 160 229 156 160 314 339 327 299 313 303 308 313 287 288 289 288 282 297 280 281 307 272 286 279 267 315 249 314 246 264 255 249 251 245 245 239 240
154 118 159 151 190 193 149 189 226 160 301 141 316 345 347 315 306 294 312 292 285 290 291 278 280 290 283 294 298 304 284 283 294 236 253 273 249 323 256 251 247 241 251 243 246
140 155 127 169 129 168 198 165 142 140 184 218 273 307 330 336 316 300 276 301 271 284 297 281 287 282 271 284 268 279 283 266 276 294 268 241 266 308 289 246 239 246 247 246 245
144 157 112 149 116 130 177 173 157 134 272 142 328 316 320 324 333 329 294 284 285 284 273 294 282 289 274 272 307 307 284 285 300 283 271 262 229 291 306 237 236 240 239 243 252
147 151 155 153 172 178 156 166 223 134 204 267 140 222 255 298 307 346 321 320 285 278 272 275 256 285 284 279 267 259 263 270 272 282 287 145 288 232 315 266 238 236 241 179 248
144 128 144 149 150 127 174 165 172 131 189 134 277 282 309 301 304 293 320 319 316 309 295 281 278 272 267 276 261 270 290 270 270 276 281 287 281 292 279 306 181 304 241 163 225
145 138 144 159 123 132 225 183 231 178 138 125 260 308 312 305 248 288 305 299 310 321 313 307 306 297 291 297 298 294 296 301 306 296 306 298 307 303 316 331 338 262 305 251 247
120 143 125 112 113 111 151 170 110 145 169 123 366 287 323 304 293 193 281 302 293 288 292 304 302 300 298 295 294 291 295 290 283 298 292 299 289 294 296 298 315 333 306 299 272
129 125 121 118 112 125 190 154 228 225 126 141 168 265 330 312 142 292 284 274 299 289 288 285 277 277 276 283 285 284 291 288 288 293 297 295 295 245 303 301 312 301 318 323 319

GFSSW_2pvu_pres_069.txt.gz
Presure
106 115 125 203 117 122 91 205 167 389 445 549 499 508 426 370 375 363 323 319 327 332 304 278 253 233 233 177 233 137 146 106 188 187 185 202 170 186 190 168 158 152 79 78 72
118 91 174 122 148 221 100 231 402 380 437 539 492 473 474 456 451 364 339 334 322 329 336 302 272 252 228 219 201 172 133 171 209 192 197 189 202 169 185 186 165 154 157 150 145
106 126 113 120 125 148 131 111 298 413 444 540 489 456 449 437 452 401 296 346 325 304 337 326 294 276 249 244 195 201 188 204 181 205 193 197 184 212 186 172 172 160 165 157 146
106 138 139 115 168 133 137 333 391 386 424 518 481 445 421 417 430 443 372 345 84 313 299 331 313 289 266 246 239 203 172 134 192 208 183 109 171 192 203 204 191 168 163 160 153
110 106 115 116 118 119 196 341 393 381 427 490 503 446 428 423 427 444 470 74 155 326 322 299 323 308 278 256 245 211 190 177 199 164 144 121 185 124 175 167 163 181 164 163 153
121 170 131 138 175 186 176 341 389 386 441 472 476 456 422 418 416 416 434 459 340 340 291 329 313 316 305 268 249 234 197 164 186 208 160 194 164 198 190 191 154 199 181 161 159
118 129 172 176 115 176 226 214 387 388 418 474 463 458 451 420 405 415 424 446 349 330 347 284 288 307 307 281 255 242 223 199 200 189 139 164 160 210 173 137 184 172 203 200 129
187 123 122 124 153 188 175 237 350 390 418 485 469 469 472 461 415 421 416 442 374 330 328 305 281 289 303 291 269 251 236 204 198 190 193 147 161 164 212 183 196 178 192 199 182
110 116 129 179 188 178 159 220 165 230 190 500 465 458 478 459 450 442 421 449 459 333 327 325 278 283 294 288 282 263 245 222 202 198 194 140 174 177 180 201 179 196 177 180 196
144 113 127 132 119 192 164 160 163 183 400 478 480 457 466 473 460 441 435 453 491 341 307 328 316 274 289 293 292 272 257 235 206 94 193 120 91 227 147 186 202 195 187 182 179
104 101 166 157 157 171 188 152 154 275 393 434 420 427 408 415 474 461 439 447 433 343 316 315 318 284 282 284 282 267 254 237 224 201 187 202 201 109 226 135 229 194 202 170 177
153 130 137 117 161 176 187 153 157 264 358 444 425 422 422 405 427 440 439 441 387 339 309 318 334 310 282 286 282 264 259 250 236 220 208 199 202 199 192 160 182 206 192 191 171
134 160 108 142 138 163 188 152 216 343 362 402 397 366 434 422 422 455 479 397 355 320 304 315 314 311 293 274 279 274 261 256 245 233 218 210 207 205 205 195 207 216 187 199 194
146 134 161 185 151 177 136 139 154 315 188 399 385 439 468 451 445 435 393 355 326 306 302 305 315 312 297 273 274 274 268 262 255 244 232 223 212 209 213 183 171 176 207 189 211
141 126 135 136 138 170 147 171 194 177 151 367 386 426 448 500 502 415 364 332 304 300 301 304 308 312 304 282 264 271 275 271 269 255 243 228 223 212 214 217 210 181 231 207 199
138 125 116 127 130 167 169 232 183 167 155 358 379 389 407 457 404 334 306 308 303 298 305 298 306 309 300 316 310 269 273 283 281 267 259 251 242 227 224 221 218 212 191 225 211
146 123 129 149 140 150 169 165 185 262 306 345 352 371 378 334 313 319 303 296 293 284 299 300 302 310 311 295 280 273 286 268 268 270 261 265 265 251 240 235 233 227 211 195 252
166 170 134 116 120 170 161 181 157 145 270 120 341 355 368 335 306 289 302 297 307 304 289 292 298 297 310 307 307 261 263 258 297 257 274 266 107 259 250 243 240 237 226 205 204
168 149 129 121 145 131 149 169 176 164 159 183 141 172 380 334 321 292 308 305 260 298 310 292 297 308 303 309 299 279 288 298 297 261 285 312 322 299 247 245 239 235 231 219 202
167 153 150 125 130 163 165 165 183 142 249 134 303 254 368 334 309 308 311 305 292 276 289 289 292 296 285 277 291 304 292 269 272 291 272 281 318 275 270 246 238 278 251 240 205
140 164 148 126 138 129 124 166 164 200 128 142 157 340 318 357 328 325 299 291 298 283 242 283 261 289 284 286 279 291 305 283 269 266 289 268 279 314 297 257 298 270 254 257 232
159 158 150 172 117 130 130 201 156 193 240 226 126 338 330 309 341 330 313 306 289 282 289 292 272 289 268 280 290 271 272 283 300 280 274 284 279 245 301 265 253 301 106 102 264
155 145 145 140 140 138 169 203 173 182 163 164 124 238 336 316 301 329 326 307 293 295 291 288 279 273 287 256 291 261 264 270 281 290 290 269 256 271 270 274 269 246 306 262 246
157 143 146 174 128 132 128 143 143 159 194 200 126 118 337 323 281 293 339 314 303 296 298 274 289 283 278 264 277 270 280 263 260 268 269 276 255 253 260 296 251 275 245 269 266
149 145 147 144 139 133 140 176 171 187 212 212 127 335 167 326 298 166 289 339 320 301 304 290 285 283 279 261 274 274 260 270 280 272 277 275 283 266 281 263 302 264 313 242 265
149 157 158 121 142 107 116 112 155 178 212 142 126 106 113 338 323 305 185 285 290 316 315 315 308 302 299 295 293 290 291 295 308 307 306 305 301 305 295 310 314 313 309 319 280
127 148 152 144 155 142 130 201 177 144 162 212 140 123 384 357 327 204 300 290 279 290 295 296 304 309 314 305 302 296 296 295 298 303 303 302 294 303 301 303 307 302 305 310 319

GFSSW_2pvu_pres_072.txt.gz
Presure
159 131 124 109 125 127 148 94 125 353 384 438 504 536 203 519 459 379 375 373 340 340 325 303 292 237 228 219 190 210 185 161 128 201 170 193 175 180 183 185 177 108 71 72 71
124 129 158 119 125 145 121 169 174 352 318 473 508 521 468 490 451 430 357 365 369 323 332 303 295 261 242 222 213 216 228 235 194 181 197 137 185 171 155 177 186 177 147 119 131
105 126 120 128 116 123 167 144 237 210 215 505 498 502 456 459 443 430 372 361 358 361 331 323 296 288 253 232 211 204 230 201 185 202 203 217 183 200 164 161 181 193 172 156 156
117 121 115 134 109 137 119 187 227 182 369 514 489 491 449 429 417 424 379 160 352 347 313 327 307 294 286 249 231 199 241 194 186 113 158 173 200 191 182 176 151 186 187 162 154
145 167 120 114 170 111 165 114 232 172 346 478 488 491 432 436 424 415 426 353 352 333 255 305 323 300 285 263 235 212 189 244 99 199 122 132 154 193 193 175 172 157 185 160 158
151 144 138 130 110 151 137 141 207 157 348 521 494 488 443 424 419 417 419 354 344 341 225 309 303 318 297 277 242 224 204 195 160 246 136 144 132 207 197 183 202 137 144 184 167
140 132 102 150 125 125 180 135 200 166 164 421 506 489 493 426 411 412 420 431 348 341 329 290 295 315 310 280 261 234 219 205 239 179 226 140 178 215 203 173 179 188 158 149 129
167 100 124 152 156 153 132 142 174 298 343 408 451 466 516 462 422 402 414 425 387 340 336 313 292 299 316 305 270 246 237 221 230 199 184 177 172 170 215 156 114 184 180 184 211
124 149 131 102 138 141 129 176 182 217 333 273 445 445 432 512 453 408 398 408 439 359 334 321 289 300 282 312 286 261 245 241 214 247 192 182 179 152 183 211 158 167 138 179 154
132 173 133 109 117 136 165 142 230 154 185 393 436 439 422 427 478 456 413 405 425 363 338 309 306 323 280 312 313 285 125 249 207 231 178 188 177 180 226 200 157 199 187 200 178
168 110 136 178 152 136 173 190 141 228 152 157 405 454 421 426 482 452 453 434 435 398 340 317 321 283 345 281 304 291 262 252 243 74 227 255 187 71 183 192 159 195 179 185 179
137 158 141 141 146 128 124 164 172 211 315 153 397 462 434 430 450 460 450 416 393 403 346 319 300 310 281 275 297 294 287 261 249 237 234 234 192 189 176 187 228 153 152 195 173
128 122 101 120 131 137 131 181 165 197 190 381 399 458 450 432 441 410 449 385 374 381 346 314 313 330 274 277 280 294 301 272 258 245 237 235 239 190 187 196 192 175 156 149 196
149 146 123 130 141 122 125 163 178 218 204 374 402 474 486 433 456 400 412 396 389 362 328 311 311 321 284 268 275 283 317 278 266 257 241 239 228 196 197 190 202 183 199 140 144
129 152 173 128 138 120 124 147 185 177 277 290 146 394 467 391 377 380 383 405 386 333 311 303 308 319 304 293 267 275 281 281 272 265 250 238 230 224 234 194 188 190 174 182 205
165 139 160 126 164 162 133 147 137 175 200 144 134 223 450 313 327 363 394 388 342 319 311 309 305 321 312 301 292 275 275 276 277 272 266 250 238 230 222 207 191 188 196 196 188
158 159 176 147 120 125 118 179 139 154 197 139 139 363 335 345 330 294 324 307 316 310 306 256 305 303 311 303 282 265 268 276 283 273 265 259 253 237 233 230 231 199 193 198 159
148 155 159 142 116 184 123 129 159 195 172 228 152 148 329 339 329 297 281 308 293 306 302 306 308 322 211 305 288 280 266 281 270 264 256 256 259 248 243 239 227 229 199 197 192
106 149 136 164 191 116 167 131 140 129 164 162 308 130 151 320 316 312 298 277 319 311 311 315 306 307 303 300 324 292 199 259 301 263 263 261 258 260 254 245 239 229 223 204 199
151 142 156 125 135 138 144 160 197 168 160 203 203 183 124 330 315 312 304 310 310 287 302 287 307 300 301 322 298 280 291 307 257 255 260 267 284 280 263 259 255 244 234 231 223
152 135 168 158 160 122 109 149 124 163 171 176 169 222 204 331 316 307 296 310 306 311 312 290 285 272 293 300 296 216 286 286 261 267 253 267 289 296 273 277 270 262 256 247 239
133 152 145 165 169 120 142 121 110 188 116 185 176 355 148 341 319 265 307 301 292 302 271 294 305 286 268 292 288 277 286 284 278 274 270 274 252 287 281 278 294 300 309 261 262
151 125 152 166 139 124 139 180 184 119 168 188 166 143 114 342 341 329 315 295 305 292 295 283 270 277 278 257 289 275 272 273 273 284 301 270 268 272 287 283 271 288 305 292 259
154 111 142 139 164 147 108 147 144 192 147 206 172 189 111 350 213 319 348 317 304 298 292 295 285 285 281 265 269 265 269 265 266 258 267 270 271 258 283 283 287 280 270 290 278
157 151 158 134 160 118 156 136 127 130 159 197 167 252 393 125 339 324 303 299 324 308 306 289 287 281 275 274 287 272 258 275 268 257 270 269 267 268 271 269 276 286 292 266 288
155 136 155 141 148 121 134 126 151 174 142 161 173 205 177 379 348 329 155 303 297 333 318 305 292 291 292 294 286 258 274 277 271 273 281 267 256 270 296 303 270 304 281 273 298
151 142 150 142 150 125 121 107 146 149 136 180 158 207 312 321 249 247 323 149 157 297 334 310 312 303 303 301 301 297 294 296 294 295 303 308 304 310 304 299 309 317 323 299 320

GFSSW_2pvu_pres_075.txt.gz
Presure
146 153 125 143 124 115 119 114 117 119 145 117 176 173 170 528 343 541 469 305 376 354 347 319 319 300 298 251 237 196 213 190 213 164 153 210 191 180 172 160 116 180 172 108 87
204 161 147 133 129 132 125 126 162 126 150 406 421 153 482 98 329 482 502 418 370 373 345 327 318 302 295 257 240 208 181 177 202 245 184 155 199 190 167 165 182 175 181 76 164
163 180 142 153 121 138 105 125 138 155 147 368 424 491 469 454 472 449 427 446 367 370 327 324 324 306 292 281 244 233 184 211 175 160 225 184 208 186 179 179 153 168 180 163 75
159 177 168 126 126 137 125 171 140 189 226 403 305 374 509 443 455 408 401 428 375 363 360 315 330 304 297 282 252 230 211 198 201 179 180 225 223 184 186 167 172 174 178 169 181
154 183 178 128 122 134 116 138 128 131 225 237 343 472 512 445 460 414 399 433 385 356 351 314 326 319 295 283 258 241 233 207 185 172 171 232 211 212 159 190 182 170 172 169 183
153 191 166 124 136 110 154 137 139 147 150 400 397 165 269 449 464 413 398 422 384 352 351 329 310 335 296 288 271 237 221 230 228 185 183 156 188 133 209 172 202 169 190 177 179
120 195 175 145 128 117 141 139 144 134 159 191 316 413 192 458 427 422 398 403 402 353 346 339 309 335 304 287 279 251 239 230 225 196 206 189 176 200 173 200 187 206 173 171 178
160 112 114 111 151 132 150 143 129 132 146 219 390 428 150 544 431 407 409 400 415 360 340 337 321 314 306 292 285 264 239 231 248 200 191 199 177 228 117 163 167 180 184 173 167
145 173 188 179 195 109 141 135 164 135 133 294 393 429 442 463 434 414 399 406 412 364 338 330 323 301 307 300 282 268 267 238 224 211 195 166 128 215 158 181 208 192 178 180 166
139 151 192 178 154 148 130 131 124 135 148 320 336 179 450 467 490 407 401 415 412 366 336 322 324 323 312 312 285 272 270 249 242 235 195 145 202 205 159 124 122 185 202 183 177
142 187 183 118 159 126 130 149 132 132 224 305 327 462 150 441 481 427 401 399 412 363 341 320 313 332 295 305 314 265 263 262 235 240 218 198 70 220 181 132 127 136 204 191 189
183 141 142 177 128 133 142 136 135 132 195 202 389 137 134 442 474 455 420 395 405 420 344 321 303 320 343 287 305 299 270 267 253 231 235 198 191 189 240 161 139 184 164 201 195
151 142 166 212 177 121 138 113 141 131 133 192 437 469 416 423 461 461 453 410 417 416 349 320 309 304 316 283 288 304 277 263 261 245 164 213 201 196 222 225 180 175 178 158 195
173 152 176 199 188 151 128 133 127 138 126 143 372 157 169 421 463 395 384 399 412 397 346 322 310 305 300 317 263 277 319 276 260 257 240 236 208 206 213 227 196 168 113 179 161
152 149 152 159 156 131 154 134 157 161 176 127 226 232 129 340 394 368 372 359 377 352 370 328 306 309 299 336 286 270 287 291 275 259 254 243 233 213 207 246 245 201 178 174 155
146 182 148 156 191 116 137 162 129 121 122 200 248 344 271 276 355 286 375 361 378 379 340 321 306 309 303 288 318 276 268 294 296 284 260 251 240 232 223 212 240 233 197 180 177
136 148 144 136 175 143 136 140 151 160 152 172 203 367 141 364 310 373 399 376 417 372 337 306 296 313 325 286 281 314 268 284 297 294 278 258 251 235 234 233 232 233 244 195 204
129 141 161 164 163 142 139 141 148 146 121 180 217 313 152 161 327 306 356 291 328 319 314 309 318 315 326 295 272 296 269 266 273 294 291 283 259 243 237 240 236 237 230 247 194
127 149 165 220 159 156 127 119 136 113 133 115 189 176 263 317 337 295 326 314 317 313 310 289 292 306 306 298 292 278 258 266 270 280 282 291 276 263 246 244 241 239 239 226 231
131 132 191 142 166 126 142 141 135 145 150 178 197 201 135 124 341 328 311 326 318 303 314 301 278 298 297 304 317 285 283 300 274 268 272 277 279 273 265 256 247 242 240 239 224
181 137 156 149 164 139 155 161 132 139 142 158 162 177 111 210 329 258 311 294 291 291 307 296 315 313 312 306 310 300 299 315 264 257 266 268 286 276 273 269 261 250 246 243 238
131 144 145 141 159 159 121 149 150 130 151 171 242 166 371 124 333 321 314 306 288 294 282 316 280 305 300 317 304 291 296 297 288 292 289 273 262 266 277 270 268 266 263 255 251
193 145 149 124 142 158 121 123 130 122 130 195 125 200 172 289 342 260 319 307 299 289 289 282 291 293 282 245 284 292 292 297 302 300 285 267 284 278 286 291 279 268 264 259 258
191 163 151 161 130 159 139 130 124 150 194 150 212 162 169 305 299 325 331 146 309 298 293 283 279 287 276 273 278 272 271 278 278 275 278 283 268 280 286 276 259 284 289 285 277
141 167 206 163 111 153 136 118 169 137 156 159 196 154 181 139 209 292 331 260 135 155 300 297 290 271 281 275 265 265 281 278 276 267 266 264 272 222 286 290 264 271 278 264 285
152 213 196 149 149 151 164 128 176 124 195 147 125 174 151 296 186 265 344 328 143 143 320 307 295 292 269 281 275 269 276 271 271 270 273 265 267 270 276 271 279 281 285 267 286
154 164 204 149 144 156 144 175 125 153 132 149 120 173 190 247 180 297 348 338 325 138 300 325 311 304 294 289 287 279 259 271 267 275 275 288 272 273 260 268 288 296 282 290 288

GFSSW_2pvu_pres_078.txt.gz
Presure
125 109 144 173 192 146 156 102 119 139 156 160 145 156 164 218 506 316 539 517 406 307 366 349 345 323 169 276 256 225 213 181 212 196 167 182 178 157 200 138 166 165 143 130 132
106 136 130 103 178 126 200 117 121 139 158 126 151 155 152 496 131 391 294 528 430 346 368 355 362 331 248 286 292 252 230 206 174 203 165 160 183 171 207 166 167 158 176 103 122
120 125 137 143 150 155 195 161 135 137 139 127 147 144 179 167 470 451 387 454 464 393 367 361 382 363 310 310 296 297 263 239 186 197 225 198 174 231 213 141 109 165 161 117 169
103 139 150 95 101 182 101 157 120 154 159 127 166 143 179 553 455 458 149 487 456 407 367 366 373 380 312 306 299 289 287 251 202 184 209 218 186 197 206 187 181 116 152 168 179
115 136 121 121 166 181 108 149 130 146 141 126 143 205 186 479 448 425 408 243 459 409 366 355 332 361 316 295 300 287 280 262 251 179 194 216 201 198 234 213 219 181 188 159 178
108 158 108 110 121 166 189 148 146 145 129 141 141 154 343 513 361 327 403 388 410 402 375 351 346 329 320 293 286 297 280 271 252 250 182 206 208 205 201 217 203 180 181 166 161
140 135 127 145 193 198 165 121 156 147 153 138 151 153 386 423 155 401 398 385 394 406 385 339 369 325 91 306 299 287 278 270 252 252 237 261 189 151 199 204 235 205 186 181 166
132 156 114 103 176 185 195 209 133 149 140 147 218 279 338 189 142 412 410 393 388 406 426 334 342 324 329 314 295 290 267 300 261 240 212 179 157 179 180 198 197 174 190 191 172
146 153 138 156 147 175 208 150 152 142 151 170 143 135 272 460 276 438 397 391 396 406 417 327 335 325 312 305 291 298 279 270 264 248 230 190 175 216 204 200 184 223 209 186 186
136 133 161 141 159 186 144 137 141 144 136 167 135 497 196 466 508 421 416 395 389 396 363 326 323 331 318 294 303 293 283 277 262 249 236 225 196 177 176 197 203 223 231 134 146
134 128 188 161 177 171 210 154 133 158 156 125 131 138 367 409 283 422 409 393 401 391 373 319 324 353 305 336 293 285 280 268 252 247 234 231 246 185 194 192 167 199 231 233 203
132 134 124 146 121 182 167 219 138 135 136 135 146 138 367 389 177 422 413 404 414 404 366 319 309 318 319 285 299 285 286 264 261 249 246 235 232 254 180 173 173 171 222 177 232
116 135 127 171 147 158 147 162 144 129 154 143 138 217 148 125 492 439 412 406 398 402 362 315 303 314 316 294 326 325 292 273 261 252 227 235 244 235 201 202 182 210 174 192 188
139 154 147 140 165 173 220 134 136 159 157 162 166 180 223 340 374 484 438 406 394 398 359 310 311 331 316 324 286 313 291 268 263 255 250 250 244 236 210 200 179 173 245 212 220
141 140 152 141 162 159 147 145 158 151 151 116 202 314 371 126 363 401 386 444 418 417 344 295 300 304 326 331 287 351 290 277 266 256 254 259 255 239 226 192 189 192 180 246 165
110 130 134 149 140 187 154 145 130 151 122 149 169 223 342 260 334 253 373 361 407 388 318 296 295 316 321 276 283 342 292 289 264 265 266 265 259 253 246 229 199 195 187 186 217
144 136 132 138 143 192 199 135 141 110 139 129 154 175 270 172 257 314 367 355 348 349 328 299 302 304 310 303 333 278 303 290 294 285 266 262 263 250 252 223 235 200 192 187 186
128 132 151 138 144 150 188 157 136 158 145 156 162 150 374 318 336 321 413 384 349 390 327 302 299 327 312 299 290 325 276 280 288 290 256 254 254 255 254 243 230 228 201 198 193
146 121 152 135 156 202 144 185 155 132 134 118 136 145 202 347 274 314 309 394 361 404 335 317 313 312 304 296 291 320 318 308 273 282 290 303 270 253 254 252 244 231 226 206 203
138 141 157 155 159 143 187 131 148 134 123 122 158 138 170 342 234 329 311 321 329 326 317 293 311 308 301 298 293 279 306 306 319 274 281 311 294 303 249 255 253 244 231 224 214
129 149 134 151 151 157 180 215 152 182 143 138 170 155 228 156 247 348 305 232 321 284 298 301 280 293 293 315 311 295 281 282 294 269 275 274 306 306 307 277 257 253 251 240 233
125 116 154 139 196 161 228 167 160 161 129 148 126 180 172 152 149 331 128 317 141 277 294 314 298 298 299 299 305 303 302 307 263 315 309 269 266 274 292 290 303 274 256 251 243
155 140 147 184 158 157 196 170 141 150 126 181 165 131 182 141 291 344 334 322 303 140 152 294 293 298 308 303 305 306 312 307 289 265 256 260 263 265 266 294 290 290 288 271 257
137 145 127 153 140 187 184 156 163 127 147 155 137 161 169 168 154 226 270 328 322 309 143 239 290 294 287 299 302 298 297 310 298 317 296 285 294 304 279 263 271 280 284 278 271
134 137 155 198 161 196 164 162 141 121 180 111 140 119 162 186 146 331 206 302 328 319 313 276 275 287 285 283 277 285 287 292 285 291 285 282 280 279 283 281 270 262 262 264 281
139 138 156 200 156 193 180 162 140 123 179 189 146 192 152 131 193 145 125 358 245 324 117 315 149 255 278 271 276 275 278 276 282 279 273 278 267 291 296 295 275 288 286 288 289
209 171 173 197 198 230 173 165 161 153 173 130 112 192 160 177 145 218 163 379 360 334 324 335 321 317 145 147 292 275 284 271 266 273 271 265 267 272 269 268 276 282 283 284 273

GFSSW_2pvu_pres_081.txt.gz
Presure
117 110 131 100 145 128 111 140 158 116 101 171 126 155 104 176 165 162 165 444 365 299 411 373 368 365 353 338 321 272 254 174 194 190 191 199 212 180 207 188 197 164 167 176 171
116 103 146 132 156 123 141 116 172 109 141 231 178 145 132 193 145 152 351 475 329 537 412 381 371 355 360 358 320 295 271 218 199 197 159 67 212 178 189 201 191 157 165 160 174
111 142 133 146 142 108 200 131 133 142 234 133 142 136 170 143 165 158 409 449 460 482 412 380 370 357 378 349 313 308 281 179 183 203 204 205 199 190 196 146 188 137 166 134 161
112 142 136 141 141 151 114 95 157 204 133 174 145 146 145 154 147 201 473 140 447 463 410 384 369 360 370 341 317 299 272 224 208 193 201 170 193 226 181 134 204 189 153 168 168
110 135 118 142 125 142 125 145 184 161 238 127 167 135 179 143 143 354 440 143 513 464 413 385 367 358 353 369 324 299 287 214 231 233 202 175 170 197 206 186 118 197 192 176 167
109 165 117 132 145 118 135 157 176 167 147 179 173 163 141 176 145 453 418 417 451 491 407 387 360 353 343 344 314 298 307 165 168 231 234 194 167 181 196 199 182 204 180 193 183
113 133 126 140 156 120 136 135 147 186 166 130 178 132 133 387 294 333 396 378 395 441 401 380 357 349 349 341 326 295 301 271 227 264 214 219 188 172 197 202 184 187 179 193 197
115 158 134 145 141 215 171 168 128 163 143 155 131 153 146 164 498 411 185 393 381 396 405 368 350 347 346 335 350 319 290 293 267 282 230 158 203 177 193 201 201 181 181 192 195
126 157 141 140 153 159 112 166 198 172 155 162 132 153 144 152 536 187 411 385 382 392 390 376 355 330 348 321 322 301 284 277 296 283 267 257 207 135 181 196 218 198 180 181 195
123 150 145 134 141 123 161 150 202 126 155 152 154 139 269 182 372 214 411 390 381 363 386 369 345 327 339 350 314 295 284 293 275 269 268 255 250 223 116 201 199 223 193 189 198
116 172 142 127 136 198 198 163 229 210 151 157 144 165 168 178 128 458 421 399 399 393 396 362 335 320 328 317 306 288 283 282 273 272 276 276 269 260 188 65 206 164 209 170 186
131 135 129 120 151 121 149 214 202 168 155 123 145 142 151 161 128 454 427 400 391 385 368 373 345 324 353 304 312 286 291 278 279 277 277 270 265 261 105 179 194 174 227 200 190
110 143 132 135 139 119 176 157 182 182 151 143 168 158 187 154 124 449 439 413 408 380 367 347 315 366 335 316 317 288 279 284 286 271 262 274 270 267 263 247 181 219 175 208 203
131 141 134 139 155 145 128 178 145 167 160 144 148 136 158 363 230 417 427 416 427 385 365 336 320 315 310 310 336 292 281 282 269 268 272 288 264 273 273 256 238 179 225 162 192
136 131 137 146 154 124 202 164 193 162 148 140 150 148 146 151 358 392 421 420 419 397 344 329 320 326 349 329 304 286 284 288 296 275 293 275 270 274 275 271 259 188 174 162 169
136 134 134 149 150 140 176 140 209 153 136 160 149 144 159 159 281 372 436 417 426 358 326 309 306 322 326 334 321 310 166 287 276 279 276 287 263 272 266 271 263 221 187 202 187
132 138 138 141 148 139 188 178 174 147 162 111 147 135 185 365 299 192 379 177 415 343 322 308 306 302 302 315 332 330 311 285 267 279 280 280 269 271 273 264 256 248 212 190 176
134 137 136 143 145 159 204 130 199 150 154 128 155 154 143 161 334 389 367 369 390 345 308 302 303 309 309 336 297 314 287 299 274 276 299 273 274 263 265 259 254 259 269 211 224
133 139 135 145 146 134 156 186 142 148 146 143 145 129 164 145 260 346 137 360 144 320 312 302 263 309 310 317 324 328 287 294 287 355 286 281 292 260 258 273 262 256 249 249 220
133 145 139 140 149 155 162 180 184 135 143 133 165 157 157 170 150 333 311 403 370 141 319 301 293 310 348 315 307 312 336 290 352 323 307 285 286 269 259 263 258 254 256 259 236
132 144 147 135 152 136 164 205 183 162 144 132 139 146 156 152 244 154 321 318 388 285 148 310 314 317 308 303 296 301 325 324 276 312 299 304 305 302 260 286 263 259 259 257 256
133 137 136 146 140 155 147 158 187 163 134 142 141 131 128 122 170 157 331 320 309 304 317 150 297 310 301 298 298 296 298 293 324 343 280 298 278 284 293 289 292 265 262 256 254
133 136 162 140 118 149 160 163 196 146 147 160 123 126 141 139 149 172 297 300 307 304 299 287 307 296 293 300 299 307 299 297 285 322 315 303 275 320 277 319 310 308 271 257 250
141 118 135 141 148 150 144 213 228 209 210 150 141 160 140 167 165 269 171 350 137 302 304 117 304 303 304 296 296 308 309 307 321 284 305 302 292 321 288 296 270 303 308 297 299
140 132 136 137 118 154 154 171 190 143 168 155 147 135 149 129 129 142 232 206 304 338 190 297 289 303 149 187 308 310 301 303 307 308 302 299 277 315 300 315 322 270 272 272 283
144 220 131 147 118 151 154 220 193 190 145 158 128 125 136 167 117 150 122 141 241 288 336 329 289 290 284 138 136 144 170 293 290 291 291 309 311 307 266 257 268 269 300 292 263
153 131 137 145 208 173 147 228 173 160 202 154 152 140 119 114 160 143 157 155 256 307 207 334 329 319 292 288 189 178 273 287 284 292 289 283 282 284 283 281 281 282 286 284 285

GFSSW_2pvu_pres_084.txt.gz
Presure
114 112 114 110 118 141 133 153 135 146 133 121 204 126 119 182 139 159 145 143 182 102 524 481 419 393 140 369 331 312 336 317 237 254 233 87 185 185 184 146 153 94 184 177 172
115 116 113 117 121 131 130 142 119 138 115 158 126 192 146 171 126 147 158 166 176 155 529 371 416 398 249 157 345 326 350 310 281 222 243 223 219 182 187 173 157 173 162 188 178
113 112 113 117 123 161 148 118 148 148 215 166 189 124 98 163 138 187 191 150 282 227 538 175 376 389 335 363 355 334 346 303 317 224 239 227 217 214 82 180 157 202 187 182 172
115 112 112 116 123 143 134 131 99 133 161 137 174 148 147 189 153 142 165 217 447 407 134 150 411 384 363 361 350 326 343 306 303 239 239 234 126 184 200 183 177 208 200 203 205
118 111 105 111 128 126 149 159 121 96 186 143 195 251 126 139 169 156 180 339 377 451 443 447 402 384 361 354 364 328 314 309 290 295 258 237 176 204 215 184 184 170 181 203 193
184 111 109 110 127 139 150 122 126 225 129 147 120 171 151 175 152 174 153 171 410 136 439 453 390 387 360 346 354 321 306 317 288 304 266 243 229 187 208 201 181 177 177 201 211
117 116 113 117 124 142 156 150 116 123 162 142 153 182 125 153 169 178 181 419 136 466 432 429 383 379 357 342 345 328 304 299 279 281 310 247 218 167 203 206 188 181 184 189 197
142 157 110 121 122 145 135 98 123 143 146 136 203 146 119 145 152 207 125 223 390 469 431 403 388 378 346 339 342 318 288 303 279 271 299 256 209 149 192 218 198 192 203 173 127
190 135 115 124 123 149 132 136 156 141 176 213 183 143 159 179 153 153 128 398 390 397 367 369 373 370 340 340 338 314 292 293 289 293 257 294 234 164 178 197 200 185 184 185 188
203 112 132 129 128 147 117 142 153 148 169 249 170 155 145 159 147 119 341 393 380 384 374 378 372 351 340 339 320 315 299 285 276 284 274 290 266 161 209 89 200 191 191 176 166
155 130 139 119 130 147 134 106 143 147 171 135 179 159 137 141 167 120 398 397 377 396 384 366 365 359 336 366 326 312 301 281 287 296 271 270 272 163 194 215 193 189 195 190 200
139 134 137 130 133 143 133 110 135 136 226 227 145 117 158 175 155 123 341 405 353 366 378 359 349 349 333 341 319 309 306 286 266 272 299 266 247 201 193 200 200 191 180 188 128
145 137 136 116 141 139 121 147 126 161 211 249 192 138 146 141 141 338 439 398 399 375 366 362 341 335 324 320 318 366 289 300 280 271 281 282 262 203 209 116 199 79 191 175 185
213 136 116 134 148 143 141 124 131 124 142 139 166 134 163 171 157 296 127 423 272 387 346 338 347 337 325 325 305 322 276 275 275 287 266 263 273 177 264 242 232 190 196 113 157
249 135 130 135 146 140 151 160 128 126 209 163 133 162 142 134 173 195 415 432 290 378 339 328 347 337 319 303 324 311 289 280 283 274 276 267 288 266 286 261 237 212 194 194 175
199 146 126 131 147 134 150 148 127 173 171 159 214 155 163 166 384 373 442 438 390 349 325 322 344 344 300 306 305 294 323 294 289 285 278 269 287 291 272 273 283 236 203 204 188
147 132 125 130 145 132 144 150 150 142 176 155 134 139 127 204 141 150 417 430 368 305 322 330 337 349 300 352 300 305 299 286 287 296 294 279 290 269 282 276 273 280 279 207 204
126 123 127 132 146 129 138 123 135 216 172 167 136 166 137 150 187 174 430 404 350 140 325 322 314 337 334 321 303 294 291 289 283 288 281 275 277 283 290 272 272 286 282 292 281
132 121 127 130 139 129 133 137 157 200 169 117 135 176 140 333 147 182 133 326 334 331 324 319 325 318 332 320 301 290 301 280 282 283 297 288 289 292 288 288 287 291 293 283 270
120 154 130 131 144 134 132 131 160 205 174 138 155 165 170 131 214 268 390 332 240 326 296 219 326 315 321 324 336 302 336 285 277 276 281 277 268 273 271 274 274 279 299 275 278
123 130 136 139 141 142 129 126 140 188 160 161 142 145 165 146 151 230 169 292 312 315 322 299 304 311 336 311 325 331 332 339 307 283 283 283 277 269 278 299 292 272 282 281 267
128 126 140 141 134 119 142 121 151 160 165 152 143 179 169 135 121 145 171 132 136 330 329 309 303 306 296 333 303 303 323 322 333 346 298 288 286 285 275 277 281 279 281 285 267
193 124 132 132 135 134 126 147 165 158 237 154 145 158 157 124 165 121 139 181 321 170 310 305 312 303 303 299 301 297 300 305 321 333 294 307 280 297 278 280 290 291 287 274 295
225 127 129 134 140 154 123 147 156 156 240 161 131 143 153 118 122 164 178 133 231 129 312 303 301 312 307 146 149 292 303 309 299 302 327 297 278 325 303 313 326 305 285 275 293
209 182 137 213 210 134 122 144 144 193 186 174 158 141 141 148 161 157 157 277 296 163 157 314 314 312 294 254 183 137 145 308 305 308 294 303 331 320 325 307 300 298 287 278 282
240 134 137 150 140 130 139 159 164 195 157 170 165 194 158 155 130 161 168 153 134 174 129 323 311 309 308 309 300 124 300 296 307 307 308 321 312 279 308 310 317 323 282 280 276
203 205 216 200 144 131 139 199 138 181 225 198 178 152 127 135 148 146 165 155 260 147 133 153 269 264 302 149 300 296 311 234 294 293 205 298 309 320 304 297 288 293 300 307 318

GFSSW_2pvu_pres_087.txt.gz
Presure
130 136 141 120 116 110 115 105 118 131 115 126 124 149 121 155 141 125 82 107 109 136 101 126 78 190 455 426 397 364 351 336 359 328 226 197 228 229 213 191 131 177 154 170 160
127 133 134 120 117 101 118 113 122 125 125 134 133 131 134 117 110 220 189 137 150 114 165 117 173 172 444 290 400 361 369 334 224 325 312 242 62 234 221 204 165 174 193 171 170
117 123 122 118 117 115 100 128 124 105 123 134 136 151 146 131 139 120 118 139 113 152 153 169 172 434 423 392 396 360 372 313 306 290 304 267 232 221 220 207 184 179 185 166 189
131 127 126 117 117 116 105 130 122 128 149 98 122 145 136 113 121 120 142 176 148 165 170 185 455 143 413 411 138 141 347 244 258 307 330 285 232 243 224 212 185 180 136 172 188
134 143 137 204 111 110 119 129 110 129 157 124 128 153 148 130 141 113 148 143 177 174 171 442 468 443 138 246 235 410 310 276 150 329 323 295 237 222 222 222 190 167 185 175 165
131 132 135 121 144 110 120 120 121 131 151 129 143 154 224 265 112 187 163 126 149 175 183 444 132 133 404 391 383 351 296 276 298 314 331 302 268 233 219 234 190 184 175 171 172
131 141 141 141 139 168 179 119 133 146 157 113 134 133 157 171 125 132 142 161 168 177 133 201 414 418 401 394 357 300 295 280 314 313 309 293 268 203 207 214 189 199 184 208 174
155 170 138 129 127 125 132 123 133 137 116 116 153 141 139 176 172 181 162 189 170 132 451 417 370 389 389 393 341 300 288 282 279 299 297 298 316 257 211 226 223 191 176 167 179
159 145 140 137 142 175 135 125 135 127 131 120 135 144 210 138 155 146 169 159 145 249 444 414 367 388 377 379 347 299 288 284 323 309 292 298 268 227 231 213 225 199 190 172 152
145 235 130 141 139 177 131 127 139 121 153 136 130 136 264 184 130 186 179 169 114 369 389 400 358 379 376 356 345 310 296 279 266 313 277 296 284 300 213 217 212 211 198 174 179
229 143 142 228 143 195 141 129 143 127 159 137 144 197 140 126 172 164 187 124 401 375 357 389 343 335 373 343 320 316 287 284 283 257 273 291 299 256 207 219 211 221 191 180 177
137 287 144 257 229 141 136 134 171 128 144 132 138 134 190 132 172 150 178 118 398 374 365 375 351 337 378 323 319 310 297 292 279 275 258 272 293 302 259 225 207 203 163 202 174
240 137 282 256 186 137 127 136 194 138 132 138 176 160 171 176 162 160 149 326 385 385 381 385 348 348 361 315 304 299 289 310 289 281 283 262 265 281 284 213 223 208 185 82 168
183 207 152 241 215 143 137 128 136 129 139 131 202 151 138 147 149 149 178 429 290 376 373 361 362 344 365 315 301 292 283 281 289 274 286 290 276 262 289 290 292 215 199 153 206
273 241 187 253 168 135 199 141 146 126 133 256 130 143 165 169 160 164 169 427 397 362 158 350 360 344 343 323 300 286 295 295 275 268 262 267 260 287 298 280 240 212 225 232 165
252 241 262 252 163 128 138 137 127 145 129 207 190 179 169 129 168 239 165 347 197 368 149 333 334 343 328 327 300 294 282 271 281 281 280 272 279 262 267 284 295 216 160 172 214
289 283 254 151 167 125 141 132 134 131 130 247 151 156 172 145 163 271 165 167 345 333 146 329 331 347 327 321 299 304 289 268 268 265 276 289 278 296 285 273 272 281 231 178 159
245 217 255 239 133 128 141 156 129 142 143 134 170 168 163 184 144 159 355 149 255 340 334 230 358 332 318 321 323 292 287 287 271 272 274 276 284 283 279 271 270 278 276 206 190
281 269 184 143 136 131 137 135 138 136 137 148 156 159 161 127 131 152 134 150 329 321 332 325 368 324 309 322 329 347 281 270 289 276 274 269 269 279 278 279 288 282 285 208 208
278 267 212 125 134 135 144 132 142 135 140 196 162 132 165 159 169 155 133 148 215 323 313 321 328 316 314 318 337 325 268 279 286 292 287 279 271 269 279 282 276 281 286 284 254
272 248 125 128 135 140 147 137 139 132 137 175 115 137 150 116 133 155 353 157 136 321 313 318 330 331 299 305 306 317 320 330 278 273 289 290 283 275 272 279 287 294 279 281 285
136 235 127 129 139 178 137 128 141 136 147 154 207 153 175 162 134 174 149 175 147 329 296 302 312 183 307 308 286 346 303 301 317 279 282 283 295 291 292 284 296 297 304 299 294
213 234 128 145 140 137 130 131 137 125 152 237 159 207 162 146 155 144 342 128 151 184 303 311 295 299 316 146 222 315 334 300 296 297 309 298 295 284 284 286 284 290 293 294 291
238 162 126 138 137 130 133 134 135 184 147 199 157 157 128 153 153 159 128 123 236 142 325 193 316 294 314 308 257 147 143 334 326 294 290 291 290 291 280 287 292 278 282 285 283
227 226 128 140 133 149 136 137 131 132 203 135 148 172 168 143 135 130 184 132 144 155 326 146 319 182 267 309 285 315 264 155 322 326 344 340 309 302 294 282 279 278 278 279 279
226 215 131 129 134 148 138 142 124 212 241 174 215 166 215 144 118 152 122 143 178 258 137 144 327 140 322 317 139 312 312 317 327 323 313 320 341 341 352 368 312 290 284 283 286
127 206 195 133 148 131 130 136 136 223 220 196 154 159 206 209 179 140 141 121 161 214 165 132 350 140 339 333 321 186 128 181 301 318 319 325 323 312 296 316 333 323 294 276 274

GFSSW_2pvu_pres_093.txt.gz
Presure
144 194 142 155 144 132 134 139 133 120 127 117 126 113 124 135 133 131 142 130 101 159 163 138 180 124 111 179 131 89 119 142 124 119 162 87 139 160 143 136 140 141 147 146 143
202 195 155 172 136 149 132 129 173 120 167 123 119 127 127 128 121 143 151 136 177 130 189 155 146 109 136 168 159 114 166 140 150 141 129 130 124 142 127 102 141 77 73 79 138
213 174 209 178 171 180 162 138 142 136 116 116 126 118 127 120 132 142 148 157 130 153 158 138 92 161 238 141 132 101 130 137 103 131 146 126 73 134 139 103 146 143 146 148 140
252 179 290 147 215 233 152 147 173 135 118 118 117 134 125 116 135 131 127 139 131 100 124 124 159 188 275 146 136 93 131 131 133 156 148 160 152 148 134 138 146 158 150 150 149
253 282 242 265 244 179 206 148 237 126 125 119 106 147 113 129 165 147 152 206 171 124 150 166 185 176 136 141 141 147 141 139 143 150 162 146 79 164 145 248 194 156 164 148 150
256 285 252 296 279 174 156 153 230 154 149 139 145 156 124 149 139 128 194 126 139 128 161 164 174 141 134 134 129 135 137 167 300 410 356 341 365 337 353 347 311 286 198 170 149
208 227 265 256 256 266 225 151 190 344 147 111 125 122 126 139 141 128 149 156 141 126 138 164 284 201 196 156 131 147 437 427 449 407 355 332 357 338 346 330 297 250 249 230 212
263 284 292 262 276 235 275 349 233 154 280 119 148 143 147 125 175 145 141 137 152 169 148 154 175 180 176 153 219 400 414 425 163 345 340 361 365 337 324 333 282 250 261 231 218
306 299 248 270 266 285 283 141 232 225 122 154 122 132 148 148 194 147 143 156 155 160 173 140 185 175 177 388 405 421 436 369 332 305 309 310 360 327 326 333 165 139 248 257 238
322 245 246 271 311 291 302 187 265 171 275 156 216 133 129 144 126 155 144 149 171 192 138 133 172 154 383 398 404 423 356 334 311 300 301 292 283 327 321 323 250 247 241 208 152
322 316 332 337 304 323 269 267 329 157 152 187 146 147 132 265 151 133 165 163 134 135 189 128 152 169 378 399 410 361 322 303 286 275 297 290 271 299 337 299 267 244 227 204 213
335 326 340 359 348 321 270 336 303 235 150 233 134 182 153 136 142 148 164 176 139 125 176 168 305 371 398 407 360 326 307 298 290 287 272 271 270 300 333 199 256 226 229 225 176
362 364 359 359 354 307 330 305 262 203 134 201 141 155 222 141 146 163 157 141 139 194 173 296 363 366 398 224 322 295 298 289 277 272 264 283 255 289 323 272 254 222 222 234 207
414 416 391 367 353 260 299 185 176 187 257 183 242 159 118 143 154 158 157 172 149 162 186 330 371 362 367 323 305 294 286 286 278 276 262 279 279 280 311 284 244 241 214 223 230
414 409 403 374 331 277 276 235 153 201 263 148 145 198 154 144 163 173 156 178 158 173 166 359 362 360 330 303 292 289 289 288 271 287 264 261 272 292 313 299 240 233 244 218 231
444 421 423 383 299 286 266 189 242 142 167 132 223 129 144 152 151 133 124 154 217 162 373 352 353 359 315 304 289 281 278 271 281 274 267 260 290 278 290 308 236 238 227 222 128
467 463 435 265 302 265 266 248 149 198 155 252 143 148 148 149 154 144 178 137 173 236 366 343 342 354 310 296 286 290 271 271 267 273 266 267 284 276 281 307 303 233 226 226 217
488 477 189 315 268 262 151 240 257 141 156 155 157 140 156 162 184 137 189 184 172 380 364 345 342 342 297 289 269 277 289 288 274 293 279 274 283 274 269 302 319 232 253 225 235
491 266 298 221 262 246 245 244 217 198 166 156 148 143 157 139 146 171 150 217 149 157 349 345 340 332 274 295 286 275 270 269 259 261 264 258 257 258 302 317 298 250 231 239 241
390 212 257 231 248 243 245 189 157 144 154 138 149 152 156 154 166 142 150 180 140 159 344 340 339 165 295 292 285 281 279 270 273 260 260 270 279 268 270 284 279 289 241 232 231
261 285 268 255 250 249 246 244 147 153 152 157 140 149 165 115 121 137 169 218 151 293 340 334 339 310 134 184 291 302 277 288 290 278 269 263 276 271 278 274 270 282 279 238 243
277 182 255 252 246 240 152 230 144 148 148 158 148 182 162 210 114 149 150 161 169 142 153 317 340 339 306 234 133 143 281 275 271 272 271 286 284 275 271 280 270 264 278 291 237
257 261 252 254 244 190 135 157 147 148 154 150 150 185 165 167 176 160 186 128 174 258 175 155 208 146 328 352 310 292 289 291 286 277 274 286 273 267 279 276 255 266 291 293 281
244 242 245 199 233 133 138 147 237 154 140 138 183 158 171 240 131 176 163 203 154 201 148 127 137 242 347 316 324 334 322 316 309 295 282 285 279 276 271 268 267 266 273 277 280
231 214 245 148 156 136 135 142 140 150 147 133 157 182 142 165 151 214 173 147 141 141 168 282 143 127 202 247 126 139 170 301 309 318 309 318 323 251 163 275 281 282 279 275 285
150 246 169 224 137 139 142 146 143 147 141 129 208 223 194 159 173 172 131 172 179 156 113 216 134 137 146 138 155 350 131 314 306 299 309 294 301 295 294 264 286 279 279 278 275
246 232 233 125 140 140 144 154 146 145 142 220 197 125 150 152 176 168 155 179 158 104 114 130 185 155 236 183 160 334 276 155 162 304 348 332 313 303 306 300 297 272 276 281 286

GFSSW_2pvu_pres_096.txt.gz
Presure
272 226 277 179 240 223 171 156 134 152 149 158 134 130 125 124 131 144 122 134 148 128 158 145 139 152 145 182 87 137 100 117 139 104 115 100 178 132 101 76 76 89 148 152 141
223 218 234 286 247 208 180 212 143 146 152 123 133 126 129 118 127 139 126 138 126 187 147 149 157 123 124 144 113 126 94 115 118 227 114 139 131 77 124 117 121 134 147 141 127
243 262 228 229 266 187 160 261 223 168 158 144 184 122 111 123 122 133 125 132 119 142 137 180 121 166 124 120 117 95 175 166 203 100 90 248 117 139 118 129 128 94 158 123 137
264 245 232 263 281 276 262 164 222 262 231 133 154 124 118 118 132 112 138 123 146 143 148 149 178 153 92 163 161 166 175 187 302 97 136 120 78 142 148 126 155 132 151 141 147
234 261 260 270 265 232 291 256 228 272 187 306 206 134 119 117 121 135 127 118 130 158 146 134 153 143 160 141 161 174 132 244 197 144 110 160 131 141 145 147 142 114 144 124 136
254 264 276 233 315 278 256 246 280 291 247 153 197 146 129 122 117 142 112 137 118 130 98 157 146 149 163 143 170 201 173 166 167 150 147 133 129 134 129 126 121 109 135 134 139
263 268 296 343 321 284 307 279 301 235 257 147 220 226 121 119 120 169 128 134 176 114 132 139 142 162 154 163 177 242 151 203 149 151 143 173 143 131 140 154 157 153 127 135 132
263 287 330 341 322 311 305 308 268 265 260 157 204 162 160 224 126 141 134 139 126 113 137 158 161 158 157 278 250 146 187 148 149 151 148 136 142 145 158 150 148 167 153 161 140
286 323 351 337 324 312 315 317 308 295 298 303 241 180 160 117 124 142 141 145 167 141 141 128 153 156 228 167 162 169 154 264 150 161 156 151 352 274 360 342 281 182 173 161 151
354 354 350 335 337 324 310 313 148 269 331 293 182 318 159 149 132 133 147 125 144 148 141 154 172 262 152 154 170 171 329 296 400 429 384 378 379 377 340 335 351 321 325 226 189
330 328 330 324 317 325 319 323 296 298 321 334 310 242 124 267 128 158 126 130 140 172 160 144 209 185 167 183 140 370 360 381 381 410 345 347 341 327 327 327 346 301 286 270 246
333 340 342 337 325 323 328 324 344 289 331 160 280 136 281 131 143 148 148 127 170 160 169 230 170 157 165 191 150 404 330 358 350 337 333 320 306 313 329 339 329 304 274 249 230
366 362 363 353 343 333 338 334 335 330 294 272 228 225 216 153 223 139 203 155 168 169 155 156 171 154 142 408 374 333 325 319 155 317 302 299 326 324 325 350 317 271 248 232 245
438 438 421 414 402 360 363 372 283 273 268 266 189 194 139 149 139 150 159 156 171 160 148 145 130 144 388 384 325 311 303 279 295 285 281 287 289 299 320 328 302 270 256 238 225
383 399 414 416 421 401 368 257 252 272 147 270 128 215 170 231 125 151 126 176 147 172 174 204 245 330 375 348 319 299 291 291 287 289 275 283 276 275 319 319 295 258 234 221 227
386 390 415 413 412 425 259 279 170 150 268 223 163 157 148 152 140 164 176 214 185 136 169 249 357 357 377 324 298 298 282 279 285 280 282 277 271 282 298 320 277 257 233 218 217
404 393 419 450 388 298 280 272 278 229 227 256 227 149 150 148 135 168 197 167 137 161 359 345 365 356 317 303 289 293 282 269 269 267 271 294 263 282 292 325 267 247 231 228 223
422 427 444 355 270 280 271 288 221 269 243 172 160 153 148 154 167 162 180 176 137 192 337 347 357 362 319 294 279 281 281 271 272 271 267 275 281 286 333 305 281 247 244 245 222
475 480 305 264 282 277 276 273 252 230 242 154 131 151 139 166 171 190 144 169 158 151 342 336 335 319 163 282 272 278 275 269 283 280 267 284 286 274 304 322 263 256 228 230 236
309 292 260 287 268 270 228 245 239 238 139 150 147 142 161 167 152 264 170 146 154 323 166 333 337 255 142 174 272 293 284 265 272 281 266 290 270 272 314 322 263 251 235 238 243
277 252 281 272 267 257 240 230 231 210 143 154 155 144 164 184 154 133 158 145 163 176 219 154 313 289 274 267 142 283 268 278 275 282 266 272 276 272 292 315 279 264 235 233 242
147 275 272 260 251 243 227 231 176 145 151 150 149 155 153 336 150 179 175 124 257 164 154 323 238 311 285 283 289 263 274 278 265 272 270 267 279 251 244 294 312 257 257 232 236
275 260 168 249 244 246 238 216 143 154 136 157 148 146 196 153 172 138 178 150 164 145 146 165 158 312 156 296 285 296 284 276 273 266 275 271 267 263 276 248 300 298 253 236 231
255 258 251 200 247 235 230 141 151 143 153 141 163 155 176 186 175 275 176 135 162 161 159 150 202 160 162 298 132 211 293 279 284 275 274 284 276 273 275 281 280 313 294 257 233
248 252 243 235 201 234 145 142 154 172 141 142 156 180 177 149 177 145 152 140 155 162 138 241 142 165 142 140 146 312 150 142 188 296 288 289 276 291 284 295 299 290 296 304 248
252 239 245 164 242 141 168 151 224 153 135 143 163 193 228 147 161 285 189 174 260 114 116 190 255 122 141 317 312 136 156 213 285 283 253 297 297 280 287 302 301 292 282 289 309
246 195 177 235 137 203 217 147 151 146 136 151 178 173 169 160 185 178 143 249 143 143 193 272 141 178 320 130 232 147 202 283 144 186 115 300 129 310 178 247 291 269 302 285 283

GFSSW_2pvu_pres_102.txt.gz
Presure
169 226 213 234 227 219 232 257 253 259 269 254 277 202 227 189 151 131 178 140 124 118 124 141 130 109 152 140 144 167 191 139 186 183 138 177 145 124 129 157 100 143 119 102 127
215 217 218 225 228 236 217 242 211 260 268 223 277 245 235 228 162 173 130 164 126 122 131 124 125 133 141 146 155 157 148 141 142 140 162 191 160 123 143 90 146 148 154 141 100
220 224 183 214 228 234 241 244 206 231 268 264 230 243 277 270 290 161 132 126 137 135 127 136 116 132 129 141 167 137 139 203 136 190 154 143 137 150 128 179 108 132 139 211 128
215 236 222 237 228 236 242 244 249 250 241 275 269 237 225 142 246 188 151 128 133 161 137 127 125 125 133 115 140 151 139 166 141 143 132 138 110 102 95 149 87 163 145 176 96
228 229 240 188 190 242 241 227 257 260 259 266 283 212 261 278 207 292 139 132 147 130 134 124 128 119 139 135 138 122 141 132 141 140 126 122 138 140 152 116 139 129 222 135 115
230 234 230 231 235 241 245 254 256 268 275 278 274 288 275 289 295 269 235 216 211 118 129 130 118 124 137 135 130 111 163 132 122 150 167 99 118 159 152 135 69 127 176 185 127
245 244 239 249 253 255 260 266 272 281 285 308 291 294 288 292 292 335 331 140 167 147 174 124 131 134 128 138 131 156 163 134 124 122 139 119 145 95 149 276 162 152 209 157 168
268 268 272 276 281 282 282 300 302 303 308 318 309 294 297 299 254 226 192 318 156 269 148 130 135 130 139 139 144 161 142 164 140 125 150 137 189 159 157 156 162 180 158 185 194
364 362 356 357 351 346 337 324 326 329 326 317 308 302 301 296 328 263 320 293 302 289 128 141 126 129 140 95 155 97 179 126 129 154 145 133 222 121 126 150 183 168 286 175 179
401 400 388 370 360 348 353 357 355 334 344 331 320 312 337 319 324 282 320 310 200 232 143 139 133 125 163 156 162 279 191 137 133 135 151 251 152 152 152 170 172 208 253 215 267
410 395 374 367 364 362 357 363 344 328 342 325 325 328 322 327 318 317 324 256 145 127 139 140 108 139 108 128 125 135 150 155 140 158 139 155 154 159 243 362 277 274 258 220 135
393 367 408 378 360 350 332 335 339 332 321 319 326 322 323 315 317 323 302 301 204 315 136 125 138 201 206 143 142 158 162 143 149 149 157 246 428 239 186 171 168 170 211 194 202
377 381 391 407 418 425 351 315 336 324 323 320 319 320 319 314 322 225 303 284 204 127 149 170 159 132 151 154 164 146 149 162 158 256 368 217 171 155 162 164 158 150 162 159 162
385 371 374 384 398 399 382 323 332 325 326 321 317 319 311 317 212 320 307 284 156 166 142 125 125 138 151 159 141 143 137 152 185 179 177 181 143 143 174 268 320 168 160 154 150
376 377 359 362 418 388 381 328 327 317 313 317 305 310 318 320 314 310 153 304 134 189 283 146 154 161 159 169 143 160 182 177 173 158 282 245 163 156 351 372 385 364 167 143 147
370 360 359 368 396 382 376 326 320 313 202 297 167 312 314 161 306 226 215 173 152 174 144 148 146 135 156 186 182 149 227 312 321 310 327 330 353 339 340 314 363 362 385 314 281
389 367 355 384 390 377 370 317 325 317 320 315 313 281 292 291 293 218 158 199 153 157 150 168 193 159 174 141 242 312 310 300 295 294 305 352 309 306 306 310 335 327 348 273 263
398 399 382 384 395 372 350 333 310 317 309 303 251 279 284 133 154 126 167 138 175 158 192 196 231 151 137 298 302 311 297 289 283 282 303 292 288 295 290 306 309 331 256 235 250
436 418 407 387 399 358 337 305 268 304 291 280 234 230 156 158 149 154 148 191 138 354 159 190 309 139 154 305 297 302 145 287 280 280 312 288 282 290 308 297 322 312 249 236 230
475 434 365 404 404 256 306 292 253 243 156 261 251 186 159 130 161 151 184 170 157 302 141 141 234 162 291 297 298 131 139 289 276 286 294 278 274 264 273 317 311 308 236 231 241
137 246 244 242 233 266 267 240 247 240 213 150 155 155 158 149 148 194 174 166 164 151 134 125 159 295 284 286 276 283 125 276 286 265 270 270 271 269 270 280 310 261 232 222 235
296 268 245 199 212 277 281 289 269 158 163 159 152 145 148 339 186 329 174 127 150 131 133 144 131 265 296 288 283 269 271 282 255 263 266 258 264 282 267 277 260 248 241 224 235
355 182 326 324 137 328 172 351 156 143 154 144 139 148 194 196 266 166 188 157 150 138 150 182 223 282 251 290 275 278 217 266 262 265 273 274 239 283 286 276 243 231 253 242 235
179 187 204 211 204 277 388 141 147 148 143 140 153 168 329 312 200 283 158 151 200 297 130 142 179 209 200 212 291 265 273 267 267 264 247 238 251 239 270 267 230 233 244 242 258
291 295 312 208 205 148 139 151 157 144 141 156 165 267 178 243 343 189 277 284 224 190 135 147 281 252 130 257 142 174 273 208 270 260 265 259 230 255 276 238 264 231 256 240 233
238 268 143 222 145 137 143 135 140 137 150 178 161 247 169 170 252 195 349 167 244 330 284 156 225 170 115 270 278 267 181 130 218 138 248 260 269 243 257 238 272 240 272 242 243
243 189 252 154 126 147 138 149 134 130 213 182 275 151 160 218 163 255 288 210 356 360 351 311 154 163 169 141 283 285 145 296 200 181 283 170 127 231 130 128 122 270 240 247 196

GFSSW_2pvu_pres_105.txt.gz
Presure
160 217 181 222 227 168 228 221 239 244 244 243 249 236 239 270 202 138 254 217 165 119 134 129 159 125 135 143 137 162 137 171 176 169 145 166 145 148 90 154 130 125 126 119 110
214 217 216 208 211 216 155 241 222 223 237 241 243 246 241 252 274 287 253 258 182 136 119 132 125 154 156 126 142 119 159 139 154 143 158 170 149 182 186 177 156 204 123 120 107
217 221 220 156 228 225 230 236 239 211 230 227 247 242 252 259 247 264 270 275 149 139 127 154 137 114 149 143 139 125 134 138 150 158 176 146 148 150 174 154 137 101 98 151 143
219 219 225 229 233 234 237 237 241 234 217 246 240 233 250 240 261 266 281 143 203 284 139 132 172 93 124 129 126 132 125 82 89 159 141 159 153 211 192 209 125 162 122 92 133
231 231 233 234 240 238 235 239 241 247 241 248 252 257 253 252 257 263 250 258 188 214 213 130 138 146 136 122 119 132 131 127 144 153 149 138 141 158 182 146 135 119 99 124 126
244 250 246 248 243 245 241 243 242 246 249 250 240 251 259 226 237 271 241 293 225 179 142 148 186 135 127 130 127 124 128 133 155 142 141 144 190 207 185 129 169 99 112 151 145
296 263 255 265 277 276 267 263 246 253 243 255 245 258 261 272 259 272 292 303 306 305 292 170 131 271 131 129 129 128 143 137 133 146 154 166 144 155 141 121 135 146 162 150 100
400 393 390 377 382 348 332 320 281 256 259 265 262 267 275 282 297 299 311 323 152 136 311 151 133 133 167 139 130 142 127 141 142 135 113 152 174 137 106 126 105 140 168 136 152
396 382 374 433 399 395 366 347 337 317 308 297 296 296 299 306 312 319 324 320 315 311 309 138 177 131 128 143 140 130 123 131 127 118 148 141 104 136 131 136 116 150 124 144 148
473 397 398 406 402 398 393 353 347 338 329 325 319 315 317 316 320 332 320 308 312 313 292 141 174 152 167 133 123 135 131 125 145 122 133 150 151 129 145 146 151 148 145 163 154
387 372 372 364 373 397 364 351 353 359 345 335 335 339 331 330 334 323 312 318 324 134 154 275 151 166 125 160 115 148 160 153 117 136 340 143 108 129 134 148 138 142 142 360 150
385 389 370 370 369 371 338 339 335 328 344 354 343 333 332 339 311 326 328 329 331 288 202 243 304 197 126 101 147 139 121 134 182 184 193 153 148 139 141 125 151 140 350 157 147
391 386 377 393 382 320 353 334 349 339 339 334 336 341 339 322 324 324 325 322 315 316 308 295 305 187 142 142 123 142 123 163 139 160 140 143 153 140 144 153 281 230 146 141 144
371 371 382 378 373 422 359 339 337 339 323 317 327 319 318 322 318 308 313 312 314 202 167 321 215 141 154 152 138 140 128 223 149 144 145 142 164 146 147 148 153 149 151 154 155
389 372 367 372 384 392 345 326 326 321 318 317 313 320 318 315 314 308 313 304 224 300 317 155 230 157 121 162 167 149 155 150 155 155 160 141 127 164 144 165 167 196 184 132 137
384 368 393 433 384 385 349 322 322 316 314 319 316 310 312 308 196 308 258 158 245 268 120 139 172 140 233 140 347 169 163 160 158 166 148 159 173 186 188 182 180 180 168 159 153
386 395 399 388 390 367 332 322 316 236 316 315 307 306 300 301 239 190 255 110 169 134 163 158 193 160 152 153 156 164 141 163 161 176 185 181 178 168 168 231 160 382 253 199 161
411 410 378 175 367 339 332 323 318 321 300 302 308 292 151 296 253 277 189 182 152 255 141 169 166 164 172 161 178 184 187 305 296 283 272 299 304 332 330 317 281 293 277 269 267
272 280 380 346 320 340 330 319 317 311 308 292 156 185 173 182 249 247 152 162 168 157 154 148 326 175 305 255 169 283 314 324 288 161 146 306 305 309 317 307 268 260 257 253 259
305 268 245 256 259 260 289 260 256 232 189 154 247 186 193 166 157 143 152 154 229 317 130 216 304 259 305 163 289 286 304 311 124 146 277 276 286 307 287 264 251 244 248 257 239
215 259 290 298 293 241 277 282 232 277 281 187 147 163 163 143 153 202 146 186 299 188 132 152 158 188 246 285 283 279 289 290 277 268 270 264 272 295 262 250 243 240 244 238 250
386 207 367 343 240 324 197 153 150 149 148 148 143 162 153 135 223 174 178 166 166 160 127 135 148 150 270 271 275 281 264 280 120 264 271 261 263 273 284 258 237 242 240 238 229
136 135 392 144 338 152 144 138 161 158 154 146 145 145 212 180 238 257 138 190 158 163 141 135 148 153 167 290 141 262 247 255 285 269 262 258 265 277 278 242 266 256 233 235 237
197 219 308 144 149 135 131 149 140 143 138 165 334 279 171 207 197 222 256 160 148 226 135 150 124 141 164 151 230 252 266 266 264 260 239 272 265 268 272 257 239 243 234 238 245
204 199 209 148 137 133 148 143 135 148 160 179 182 338 316 333 168 162 289 153 150 191 143 254 165 209 266 128 263 144 146 266 259 247 253 263 274 272 261 225 234 239 214 237 254
186 175 154 134 141 141 140 133 136 195 184 143 162 158 320 187 252 326 340 338 265 179 178 131 141 139 284 131 156 138 243 155 142 253 121 243 206 116 199 218 226 235 187 235 220
203 170 140 142 143 140 141 132 131 159 158 150 161 318 161 151 169 271 330 338 336 296 290 285 202 284 155 146 140 185 175 157 152 269 278 275 254 273 121 124 121 156 261 249 239

GFSSW_2pvu_pres_108.txt.gz
Presure
197 208 214 209 144 202 194 201 207 223 224 223 229 221 226 234 241 134 134 255 226 130 176 149 131 129 145 127 120 165 124 144 132 162 124 144 157 113 133 128 154 199 171 127 181
238 221 211 226 227 211 227 211 218 211 210 182 226 215 232 240 230 243 233 195 204 185 176 213 147 147 130 135 125 126 133 141 132 151 146 152 177 152 168 192 178 159 111 134 108
265 260 254 238 219 220 232 223 215 162 220 229 218 227 239 195 228 250 252 250 241 206 226 142 147 120 145 147 134 137 142 141 143 128 144 144 149 148 145 141 117 155 110 142 134
207 283 256 256 251 249 249 221 225 228 171 235 188 228 180 218 244 246 245 251 263 248 241 135 158 147 143 165 142 156 131 132 128 146 130 144 135 156 152 182 159 171 154 153 163
332 335 250 262 255 254 252 242 242 240 234 229 238 235 245 234 246 239 230 255 250 266 267 189 144 165 133 149 135 138 116 143 150 142 129 137 152 143 130 147 157 159 212 144 156
393 343 329 308 262 269 255 258 253 249 244 242 244 244 252 243 248 227 243 244 264 244 224 269 225 182 152 134 141 154 136 109 129 108 129 149 140 150 150 177 152 160 160 153 204
383 376 353 330 323 327 268 244 262 264 253 249 252 252 253 256 257 258 259 244 264 272 270 275 215 278 298 145 131 127 147 131 125 142 155 146 134 144 160 141 149 168 189 159 177
390 402 422 399 378 372 336 280 283 265 257 256 258 254 256 256 253 262 266 269 269 268 274 278 291 277 189 243 136 150 126 127 146 131 130 130 158 139 138 143 146 148 154 148 128
435 450 524 447 398 402 404 366 325 291 268 266 259 257 265 269 264 273 272 267 278 281 284 297 323 173 335 198 150 302 143 144 130 132 134 142 147 137 133 143 171 179 182 129 116
398 392 389 372 382 409 418 411 427 365 332 268 293 281 267 270 266 276 281 275 284 304 316 335 338 331 321 151 227 143 162 158 139 138 144 138 130 133 129 139 176 112 138 132 113
389 371 374 369 402 388 390 336 324 373 344 317 310 311 311 305 310 308 309 308 316 330 342 187 315 312 348 133 217 135 161 150 145 98 139 125 141 98 123 132 149 153 157 124 103
378 381 381 385 374 365 362 326 329 345 357 328 316 319 313 308 306 316 320 321 332 346 328 307 337 326 327 136 331 132 150 138 112 126 131 103 133 142 137 129 142 129 214 159 134
384 393 392 391 375 355 345 322 331 350 337 332 334 324 315 313 320 325 333 337 345 322 325 338 322 185 317 152 151 264 150 125 134 139 139 140 122 128 160 141 155 142 164 151 134
369 387 385 396 399 349 328 328 335 336 333 344 345 340 339 339 345 342 341 340 333 331 323 317 320 322 312 148 172 108 132 136 130 121 145 132 140 165 147 147 155 190 140 135 143
395 386 390 416 168 333 334 330 321 319 337 323 333 333 342 345 337 332 335 177 316 311 310 320 319 334 318 268 166 168 286 133 135 145 160 130 150 129 329 162 166 153 142 138 137
437 409 397 371 348 345 339 340 331 327 334 333 331 325 328 327 323 312 307 299 315 322 134 307 263 244 292 289 135 131 163 134 322 147 154 165 160 155 157 152 153 124 134 146 147
291 392 354 339 329 327 329 335 335 329 334 327 319 319 312 307 303 309 309 249 307 325 330 284 280 272 230 160 149 263 141 149 148 174 148 149 156 162 143 150 155 150 152 419 218
232 319 280 278 345 344 333 326 323 323 319 315 299 295 296 304 308 313 314 313 190 247 277 252 165 162 179 187 182 160 191 145 303 321 170 162 163 161 160 159 161 159 153 153 158
330 316 306 295 294 210 273 306 269 286 248 271 271 277 306 292 270 202 275 278 276 269 261 176 157 171 132 167 148 145 150 151 161 170 161 161 180 180 183 196 179 182 179 181 170
353 202 314 318 202 304 177 261 180 220 168 265 164 229 199 212 311 228 224 281 160 171 133 152 136 165 224 146 212 154 297 305 177 222 218 239 273 264 267 265 262 272 255 256 266
191 191 194 193 227 239 182 178 295 159 160 249 235 154 164 148 153 157 160 151 151 123 261 247 241 145 139 143 287 186 281 287 288 278 273 264 265 260 245 250 247 265 251 254 260
206 185 363 167 153 151 151 148 144 142 155 154 145 136 140 151 155 163 321 175 216 208 132 135 151 138 138 283 200 283 279 223 291 268 263 246 260 249 252 243 249 244 259 259 245
192 152 150 142 140 149 149 148 138 137 149 155 199 184 182 297 185 188 179 167 157 140 134 153 134 155 148 168 272 255 271 201 271 277 257 251 259 240 273 239 246 236 237 243 241
165 157 142 139 149 146 140 138 157 238 265 260 185 175 264 185 174 259 182 169 164 144 150 126 197 200 151 152 164 263 141 228 281 210 263 259 258 247 258 238 247 233 246 237 244
150 150 143 147 173 146 141 164 172 259 157 242 234 235 334 180 327 162 203 161 153 147 228 158 273 146 125 159 197 133 189 193 180 280 260 254 257 217 141 187 202 256 211 250 236
143 138 141 201 147 143 140 133 258 144 148 149 221 267 354 220 254 303 187 176 289 275 266 281 278 151 259 235 222 264 158 204 142 149 279 202 253 204 189 188 243 251 249 235 247
134 136 128 140 148 142 136 136 169 163 159 161 266 321 337 336 187 191 290 260 222 281 288 294 194 186 192 253 233 268 199 240 177 141 228 198 139 237 197 249 128 168 237 242 246

GFSSW_2pvu_pres_111.txt.gz
Presure
231 278 258 239 225 221 217 228 222 226 220 216 219 225 219 228 237 242 245 235 135 138 144 151 189 187 153 147 112 122 136 165 153 164 169 135 160 161 161 145 95 177 168 153 126
280 181 243 282 260 253 231 228 217 216 212 153 190 209 223 220 227 242 238 242 227 202 143 196 172 153 149 153 133 145 134 151 163 119 176 163 147 167 175 125 160 156 171 156 170
252 252 242 225 247 273 292 248 229 212 221 210 224 218 212 182 219 226 239 249 241 237 240 230 259 185 197 131 153 145 125 125 82 152 162 151 156 154 170 143 109 114 100 144 148
341 242 255 229 254 267 270 246 285 238 211 228 207 222 218 218 212 215 238 225 226 245 231 224 245 254 257 111 156 151 128 134 124 140 132 155 140 166 184 200 142 170 122 131 175
302 314 275 279 281 277 250 243 280 272 255 234 225 215 227 220 219 228 227 184 240 230 245 231 181 251 244 220 144 197 134 122 119 155 161 142 141 105 163 128 145 161 156 139 148
367 370 369 378 373 338 308 336 280 297 270 259 239 236 216 222 221 220 228 229 229 233 229 245 263 220 192 273 153 137 201 153 120 153 128 142 147 134 104 149 143 145 144 143 141
408 404 387 421 387 401 376 344 318 311 289 272 255 245 227 230 231 231 227 226 243 233 178 241 239 241 270 268 158 118 276 147 153 127 144 134 150 168 144 150 140 155 157 182 93
412 422 426 451 407 393 394 348 315 292 291 260 266 264 253 251 233 231 241 230 230 233 237 237 242 264 266 246 264 153 176 145 149 126 138 126 131 139 160 134 156 145 153 133 176
393 379 405 498 450 417 387 385 325 298 294 264 274 253 263 260 261 253 254 251 247 240 256 262 271 265 266 264 275 217 159 165 156 134 122 125 124 161 145 77 145 153 144 151 144
372 387 381 399 391 370 395 387 333 304 286 283 274 257 258 265 264 271 274 266 267 269 274 275 274 276 283 273 175 291 143 237 142 138 133 147 155 182 140 132 167 135 135 142 148
387 382 375 390 390 407 404 391 423 318 288 282 282 281 270 260 257 263 273 268 279 274 267 269 276 279 281 285 215 343 361 342 140 130 137 156 162 135 126 138 132 138 130 133 140
406 383 388 376 386 362 369 340 345 394 302 290 287 289 304 286 279 276 270 266 273 268 280 319 201 317 316 332 231 341 140 261 191 154 200 141 145 152 131 126 125 138 124 127 138
399 410 377 345 343 339 329 334 340 344 348 363 312 305 298 295 291 287 301 313 317 324 321 317 320 327 365 338 322 339 257 287 178 149 157 167 141 140 134 130 133 120 144 133 151
428 428 367 359 341 339 331 323 332 339 328 332 321 296 308 312 315 317 317 318 325 321 323 331 366 337 344 341 340 185 291 149 126 127 134 150 165 155 141 136 127 128 140 139 129
425 394 356 368 350 345 348 355 348 333 346 333 329 331 317 321 321 322 332 336 325 340 366 340 337 333 328 153 317 317 159 149 304 289 132 143 133 136 128 131 134 130 130 134 143
313 292 337 356 358 351 346 339 328 337 342 349 356 333 331 331 340 344 340 387 355 338 328 212 321 323 313 273 246 153 223 131 150 272 152 125 261 167 141 135 135 133 138 151 147
343 325 310 295 321 318 334 344 347 337 342 344 341 352 351 347 344 339 335 329 324 326 321 307 303 293 287 279 280 212 337 272 165 256 173 156 147 139 163 138 146 141 150 149 291
369 344 327 319 306 278 281 289 309 320 313 312 312 316 320 316 323 308 316 321 317 306 290 281 190 261 361 314 140 135 278 165 148 163 150 133 134 149 147 151 136 140 151 127 145
273 360 358 339 325 318 159 173 279 274 278 283 283 273 289 294 213 238 280 140 194 278 277 270 271 316 311 308 291 182 183 229 168 199 156 264 171 265 148 163 154 149 156 157 144
179 151 280 240 243 147 150 139 219 180 245 220 253 267 280 277 277 276 273 278 264 264 293 312 244 165 153 171 165 162 162 155 151 153 153 164 264 150 150 141 140 139 143 152 152
161 151 155 154 151 151 160 162 160 156 144 156 142 143 147 149 150 154 147 175 218 151 161 148 162 170 153 150 240 149 164 219 249 272 263 257 244 272 260 239 235 232 243 236 231
135 146 144 116 149 259 151 147 149 148 145 140 144 149 158 145 149 149 309 176 203 290 298 142 162 151 140 148 156 148 150 272 259 264 271 245 260 273 264 257 274 255 256 257 251
129 142 143 140 141 142 159 185 169 316 174 175 219 350 327 181 182 279 173 144 158 137 164 157 141 162 129 184 216 159 267 243 256 260 243 256 251 272 247 256 250 261 257 248 245
131 132 148 136 138 155 201 166 340 350 347 341 347 177 188 252 164 302 171 126 155 132 164 147 165 218 270 166 141 197 157 198 141 198 184 254 258 254 256 248 251 267 248 247 245
124 138 211 135 136 168 199 153 158 180 167 162 178 179 180 172 171 178 261 120 157 156 141 139 268 170 286 184 247 264 236 142 143 140 150 253 236 122 159 260 248 223 245 255 226
130 133 133 138 135 131 149 196 148 155 164 265 297 151 293 296 197 268 270 120 279 277 280 133 249 275 267 197 224 156 173 245 133 224 133 266 157 130 255 132 252 234 252 248 247
136 126 134 129 137 131 126 193 170 154 155 149 176 154 250 280 168 280 261 249 276 296 291 255 202 196 268 262 258 266 250 288 251 181 221 257 224 138 228 202 219 134 229 148 235

GFSSW_2pvu_pres_114.txt.gz
Presure
233 236 239 189 217 227 292 274 228 217 205 213 214 221 232 226 244 241 211 205 198 203 186 137 147 173 169 141 116 112 119 127 115 129 111 118 144 150 131 131 169 171 154 169 162
234 241 242 216 242 225 251 288 278 235 221 219 209 226 221 186 223 229 239 241 253 212 205 207 137 172 180 200 169 103 126 133 136 118 138 144 204 140 168 189 160 158 165 168 146
381 386 174 306 177 259 173 261 254 272 242 230 214 206 220 215 221 227 225 236 239 248 246 223 218 139 150 179 152 216 110 121 133 138 141 133 130 137 152 117 136 131 153 169 130
313 244 365 380 294 268 265 181 236 201 253 241 231 226 208 219 215 215 222 190 226 232 235 247 257 257 256 160 213 164 197 171 136 148 136 140 149 175 193 172 175 174 111 130 174
345 296 292 258 357 332 281 262 270 263 280 268 254 234 229 215 215 216 211 218 224 216 222 235 241 252 252 262 167 179 161 173 123 116 130 164 155 139 160 135 136 145 104 139 155
417 375 367 374 281 305 340 298 275 242 246 244 281 258 231 230 221 235 183 221 213 219 226 232 223 228 240 257 266 266 256 188 157 119 133 149 149 158 185 127 140 193 152 147 104
411 390 375 373 376 381 280 313 275 250 243 234 228 265 269 247 230 216 223 208 226 209 223 196 228 236 226 231 244 245 251 261 171 277 134 133 132 138 145 140 146 166 166 154 139
395 403 435 376 377 389 389 308 285 275 266 242 243 243 241 269 239 228 223 225 216 227 215 226 217 227 231 238 237 223 257 251 135 246 257 162 143 104 174 89 132 135 143 151 135
378 386 398 464 477 455 422 405 403 285 256 256 256 237 262 266 273 254 244 235 223 225 225 227 202 214 228 237 246 252 245 250 237 219 135 130 129 159 67 146 99 163 157 162 135
400 391 377 392 415 420 401 380 368 426 330 274 262 245 247 247 259 281 266 250 237 231 233 230 233 233 242 248 244 239 240 263 257 165 284 161 137 136 143 152 134 150 144 159 142
389 387 391 372 373 395 373 361 371 390 315 307 301 278 254 251 253 277 274 262 261 256 239 239 240 243 240 242 242 243 248 249 267 158 148 150 133 136 165 131 126 152 155 138 129
380 368 382 418 365 356 386 371 383 330 303 300 301 306 290 289 288 273 278 273 268 264 260 259 258 268 266 263 272 283 287 286 291 132 213 369 168 304 205 232 168 143 144 135 135
367 349 356 349 353 348 361 362 350 323 288 291 299 293 286 283 298 285 282 282 277 272 275 282 286 280 276 275 271 275 281 316 349 379 254 147 146 140 143 133 135 144 134 145 134
255 366 350 347 336 350 354 340 342 332 297 272 282 294 293 286 289 295 298 293 289 286 276 276 280 279 287 330 331 345 366 390 373 311 307 133 327 120 125 140 137 143 143 145 138
333 292 362 356 363 347 339 347 340 352 321 285 286 257 281 288 292 294 303 307 309 323 331 326 326 340 347 361 385 362 351 344 327 156 310 300 316 373 134 124 133 141 145 145 139
346 338 308 302 344 342 346 354 337 338 344 321 310 301 300 297 303 309 311 323 329 327 332 345 354 379 355 343 333 270 307 301 317 212 280 149 176 149 162 129 123 135 113 132 127
218 357 348 331 295 302 316 337 348 351 350 348 344 319 313 314 312 295 309 330 331 353 372 358 330 327 208 204 298 200 313 323 326 140 144 313 172 150 138 142 134 127 129 138 141
165 161 163 357 342 320 284 232 302 322 327 340 360 367 365 367 372 374 391 379 352 325 331 295 293 291 290 303 350 309 204 257 228 303 147 164 258 156 130 126 145 140 149 140 133
154 182 164 371 164 152 277 309 286 225 292 290 316 316 322 325 318 325 307 317 312 297 291 283 295 370 331 317 302 291 288 288 279 281 287 193 166 173 266 144 144 145 147 277 143
148 126 132 133 132 147 155 154 155 159 172 233 240 299 299 304 249 303 290 289 286 283 339 366 316 260 233 224 224 219 212 186 201 197 194 188 259 195 173 139 217 214 136 142 150
144 142 136 131 182 231 170 293 292 142 141 143 153 157 161 181 265 173 273 259 203 205 143 203 210 205 281 202 179 195 155 189 160 154 151 230 141 142 134 149 160 160 161 200 153
136 139 141 159 172 199 255 374 235 267 357 143 176 172 144 140 142 144 154 151 158 158 277 160 271 162 151 141 151 156 167 263 166 167 252 254 237 273 279 260 251 183 174 171 172
140 134 216 219 167 155 172 230 321 366 350 334 202 316 315 184 263 206 169 169 169 169 145 156 148 144 145 145 252 264 268 260 266 244 269 265 265 277 267 261 265 247 267 259 268
159 135 134 127 208 173 158 149 181 226 185 308 315 250 173 296 289 179 225 157 154 151 156 131 158 153 135 157 266 205 254 171 245 201 263 226 263 279 256 261 241 243 259 249 247
137 195 135 133 126 239 243 208 151 155 232 156 180 324 314 298 293 267 261 126 133 147 275 202 271 265 140 173 261 140 211 201 140 146 137 145 252 171 241 215 182 256 234 243 239
183 132 133 140 126 125 154 250 160 154 149 204 199 231 241 314 308 295 146 132 119 292 137 284 123 274 270 272 255 138 244 154 201 156 164 148 185 134 134 240 264 132 126 242 244
127 138 136 137 137 134 128 131 180 249 215 215 192 151 215 221 178 224 300 286 261 278 247 273 180 284 195 266 243 270 282 266 258 261 241 204 164 230 142 151 254 132 203 238 218

GFSSW_2pvu_pres_117.txt.gz
Presure
284 342 245 237 247 203 223 242 297 267 251 233 217 217 215 235 229 239 243 206 193 172 181 155 161 142 177 157 184 156 122 132 132 140 136 115 146 140 132 165 142 145 130 127 131
237 357 368 339 173 201 196 212 206 238 236 256 241 230 222 214 234 231 235 247 233 209 188 160 153 162 144 192 170 179 153 162 128 137 137 138 146 149 127 131 127 133 121 128 140
481 317 341 356 344 325 268 249 240 232 229 263 277 253 233 230 217 223 232 229 231 243 225 214 168 191 183 167 187 153 176 198 183 121 128 131 140 129 125 138 164 182 144 133 159
436 501 310 331 194 374 249 266 264 197 240 217 228 285 259 230 224 208 206 226 236 238 241 247 259 216 206 187 148 154 160 158 158 166 123 123 124 111 126 128 136 166 185 166 168
408 409 372 311 314 348 318 370 288 202 218 264 213 240 275 267 239 220 217 217 214 215 232 240 245 249 248 216 220 151 203 153 157 111 170 128 134 146 125 122 152 144 138 151 169
406 404 370 368 323 327 345 370 365 285 265 246 222 169 216 277 261 232 228 222 210 200 224 224 228 233 246 249 254 247 246 198 205 177 154 113 140 140 145 142 133 150 117 177 169
404 409 386 372 370 354 284 357 351 363 282 267 257 241 252 226 276 256 242 227 221 226 208 216 219 220 228 244 243 251 254 263 261 232 231 203 128 137 195 142 152 150 173 165 172
401 403 409 408 375 373 364 289 291 343 355 289 244 237 233 215 238 274 268 243 235 216 233 215 212 229 222 225 232 241 237 237 249 261 165 264 148 167 150 138 170 143 140 132 137
411 400 407 503 465 383 374 379 293 287 345 329 273 258 232 238 244 255 270 273 241 235 228 226 224 216 227 219 234 223 237 239 253 251 255 233 214 208 142 143 156 160 149 134 153
356 391 418 430 466 438 389 357 350 292 322 352 325 254 257 238 245 251 258 261 266 245 234 230 232 229 223 231 215 225 229 228 238 245 247 241 249 178 139 140 149 83 88 82 153
362 386 390 389 388 402 411 426 431 434 287 316 342 273 247 262 242 235 247 226 276 278 253 241 231 231 232 227 219 226 231 240 243 248 250 239 245 121 236 145 245 142 133 140 148
372 360 377 400 360 359 362 356 355 373 343 283 251 353 256 256 244 241 241 245 247 264 262 275 252 242 236 233 232 234 231 241 248 250 251 257 250 210 262 238 142 118 140 122 139
323 358 367 357 351 336 340 324 320 319 323 324 282 289 323 267 242 243 246 250 249 243 253 266 278 263 245 242 244 248 247 248 242 259 266 269 225 281 122 135 155 282 142 141 148
336 316 359 361 353 339 318 309 312 310 308 307 307 268 268 292 286 291 255 273 250 250 263 262 263 286 286 267 261 263 268 273 284 269 130 305 400 377 303 148 141 133 138 141 301
171 236 317 357 362 348 326 309 303 304 299 303 303 301 306 269 264 267 264 250 260 257 261 255 261 295 293 289 284 289 290 288 288 400 367 353 196 138 145 91 131 108 124 140 156
155 162 164 269 339 355 352 308 313 308 298 308 307 297 306 308 306 297 292 292 282 308 301 297 250 294 300 320 347 374 402 376 349 337 352 331 350 132 212 182 175 127 153 151 145
146 150 151 146 166 269 353 371 342 303 321 304 295 301 309 309 303 309 304 298 306 306 303 313 344 357 401 397 363 349 325 370 331 312 288 325 329 212 216 322 133 147 136 152 142
176 171 153 150 147 144 171 195 351 380 355 323 312 308 307 304 316 301 309 298 300 314 335 386 374 340 335 319 308 295 322 306 326 324 301 205 159 310 311 250 133 152 132 134 120
145 135 120 258 340 142 149 164 243 158 322 360 373 377 374 372 385 382 376 374 378 368 329 314 309 301 296 287 313 302 290 307 294 287 260 284 276 137 263 145 189 290 140 148 142
167 202 176 173 248 384 111 161 148 159 233 167 238 335 334 327 319 320 314 311 308 305 296 285 294 329 298 292 282 223 287 278 275 278 212 279 203 201 163 145 168 282 196 142 129
183 161 153 147 161 228 288 342 168 182 147 243 149 204 259 150 146 192 287 288 282 271 335 322 300 236 284 277 278 199 267 263 266 272 274 262 265 179 275 157 137 135 147 194 149
134 211 196 245 142 155 179 246 338 230 178 344 192 269 140 138 165 326 327 150 149 150 155 276 203 140 173 260 199 246 166 249 171 249 236 149 144 141 135 137 141 149 147 146 150
177 133 180 185 222 290 151 150 199 256 326 340 332 185 322 197 323 162 158 184 161 159 158 157 154 155 157 155 250 157 244 256 178 185 247 256 270 254 242 180 175 193 192 188 240
134 130 137 136 155 199 157 269 171 201 208 249 235 321 337 247 189 227 238 232 153 149 150 208 149 137 145 149 211 265 258 234 220 257 228 265 265 260 274 265 245 265 240 258 267
133 134 134 129 137 187 207 191 206 196 245 209 209 242 246 286 269 299 298 141 151 282 279 278 256 165 262 141 164 236 226 146 259 148 131 134 147 148 249 242 267 260 260 252 249
181 134 166 136 122 133 141 142 168 273 268 257 149 213 229 225 235 243 258 268 126 133 309 165 287 281 167 143 239 267 260 261 159 136 265 208 140 139 255 139 255 132 245 130 133
153 121 154 139 143 137 133 166 140 209 149 279 179 207 200 158 169 180 217 203 141 129 217 152 301 291 280 257 289 164 276 231 178 264 272 183 240 227 178 207 137 128 181 192 117

GFSSW_2pvu_pres_123.txt.gz
Presure
407 417 399 388 333 354 374 277 228 236 202 214 297 251 220 217 237 244 200 182 164 175 166 156 153 156 161 157 149 163 172 176 133 96 106 82 91 70 73 79 91 125 75 76 87
401 406 467 370 337 325 373 399 273 246 218 225 203 269 241 220 219 242 245 214 192 178 170 177 176 155 164 161 162 161 154 154 158 128 130 83 87 89 87 89 90 78 99 98 94
405 414 461 359 338 325 329 356 327 220 234 246 214 249 266 240 219 225 232 237 227 200 188 160 178 154 151 158 155 142 168 165 154 155 127 131 135 131 89 73 62 78 99 95 133
409 419 407 347 343 324 313 331 372 298 255 248 205 197 238 277 240 218 199 232 228 234 220 195 185 176 154 145 156 185 172 165 179 168 163 157 130 174 139 109 87 73 82 74 127
427 386 356 334 326 320 334 325 338 369 348 256 241 218 210 252 260 234 233 214 229 232 232 224 210 194 184 156 160 157 175 177 171 177 170 168 162 134 187 137 138 140 139 140 137
458 372 348 351 334 321 323 345 368 340 309 281 254 220 219 217 283 257 230 229 227 230 231 225 230 235 219 206 162 162 158 162 166 167 168 169 173 167 131 173 139 137 142 134 144
471 390 357 339 344 333 324 328 298 317 373 401 268 232 198 197 274 259 240 238 226 211 216 220 227 227 227 222 220 213 202 190 160 135 137 172 164 165 176 129 127 130 140 123 141
470 516 359 353 337 342 340 353 368 292 297 388 187 236 206 241 219 216 254 251 241 230 216 215 206 208 229 236 239 234 250 169 210 170 199 167 196 195 169 130 134 133 136 141 141
434 459 351 355 340 337 339 330 343 296 354 376 350 201 239 240 201 228 217 272 250 247 233 224 220 219 211 202 215 228 222 240 246 248 241 175 231 184 179 166 170 173 133 140 140
346 448 420 357 351 339 341 351 299 318 336 372 372 269 215 219 199 201 228 209 283 241 244 245 236 225 215 212 221 206 211 215 223 240 243 245 251 250 241 223 238 176 167 136 136
358 353 391 406 335 357 358 364 270 282 329 361 317 346 258 209 251 223 186 228 224 278 258 228 237 243 243 239 234 232 239 218 220 226 224 229 229 240 238 245 260 262 263 265 185
358 352 352 354 358 377 344 365 310 292 317 340 370 347 294 264 251 229 197 209 214 220 222 235 240 227 235 242 241 238 234 232 222 227 233 224 225 223 230 239 240 238 111 206 126
255 321 329 323 345 364 405 369 387 278 286 341 357 353 327 314 271 269 214 238 180 174 186 225 207 223 238 269 265 257 248 244 227 228 226 222 231 217 150 190 231 190 234 245 255
152 339 322 339 324 338 336 349 344 302 278 277 335 353 341 330 316 309 211 222 212 240 229 223 228 227 229 240 252 260 261 260 257 261 255 254 252 249 257 261 259 225 263 93 260
138 193 128 319 343 336 344 339 343 352 295 280 258 330 336 332 329 328 329 271 215 219 219 239 222 223 217 216 232 252 263 271 277 280 287 295 308 299 91 268 274 299 306 307 312
220 175 125 190 216 343 327 322 330 337 340 294 286 285 327 333 367 349 310 322 297 265 223 230 232 227 231 235 250 256 260 238 237 242 244 250 254 202 274 279 314 385 259 267 343
214 203 141 190 195 275 316 344 332 314 334 316 313 286 279 317 318 334 337 343 295 276 268 238 242 243 252 258 247 248 254 261 267 268 274 267 336 354 354 344 286 205 323 318 322
146 170 222 243 219 129 348 317 313 339 327 320 322 321 317 321 283 300 319 321 333 324 281 265 262 255 248 257 260 271 270 282 275 383 355 344 318 310 230 298 304 306 162 305 309
213 141 181 227 234 125 113 167 316 310 291 356 344 335 321 321 320 322 325 290 283 296 315 326 314 299 275 306 409 374 369 355 318 313 298 299 288 282 275 266 290 262 155 289 296
190 218 170 187 186 231 228 149 151 259 320 315 296 317 347 363 375 372 352 356 362 364 354 364 386 361 322 314 316 326 307 297 301 286 280 269 262 272 257 271 262 258 274 256 228
131 196 212 188 153 212 174 247 243 197 209 345 341 332 322 314 285 286 294 295 325 340 326 308 301 298 303 313 295 283 282 281 269 279 261 264 268 250 262 245 252 266 273 261 199
134 124 178 163 187 169 205 237 192 152 162 223 232 261 314 151 150 270 303 294 290 287 283 286 274 285 294 282 271 273 273 265 263 249 257 254 247 258 243 250 142 273 190 151 272
190 165 138 131 150 207 212 211 180 215 281 272 250 230 238 302 188 246 184 183 167 151 256 276 274 286 266 269 270 251 166 222 243 250 257 256 233 233 253 252 249 264 265 151 216
162 129 165 149 208 138 197 188 199 170 200 169 249 157 248 185 177 225 226 269 204 204 141 141 183 152 203 211 215 160 211 198 257 205 210 243 256 227 239 255 254 255 249 250 203
183 130 134 136 135 167 152 134 220 189 200 186 226 247 279 216 171 202 217 146 297 269 243 146 144 161 146 150 254 241 176 245 258 237 258 225 239 224 261 238 256 255 254 245 246
194 186 200 135 145 169 141 189 138 170 135 203 199 214 232 290 172 215 229 228 209 129 219 166 293 303 288 287 137 146 146 262 210 256 146 209 240 219 239 242 209 256 175 254 245
183 181 186 199 189 146 203 157 133 190 159 196 187 203 210 230 182 261 269 248 131 165 219 210 212 213 231 231 280 165 294 292 123 290 297 189 285 189 268 281 138 138 174 142 172

GFSSW_2pvu_pres_129.txt.gz
Presure
401 406 412 428 427 430 457 471 376 247 212 185 185 292 238 215 227 240 191 190 166 174 170 147 159 146 158 168 165 132 114 118 106 84 114 115 110 74 137 109 121 119 132 139 104
411 388 402 446 398 430 393 377 379 281 199 221 216 208 289 226 217 212 240 196 189 173 171 179 164 163 148 154 160 163 140 120 104 118 82 97 101 85 130 102 90 103 107 112 107
379 356 344 329 330 327 330 328 328 381 253 191 233 187 284 269 227 210 204 236 213 186 182 171 164 167 161 157 152 154 161 115 162 109 84 84 84 84 79 80 81 155 82 92 87
364 332 321 311 306 319 345 324 337 353 298 246 232 185 187 290 255 228 213 211 235 217 186 184 163 176 162 161 155 157 155 165 127 160 157 131 85 87 86 89 101 73 110 112 84
326 327 315 313 300 307 307 319 323 350 358 263 197 229 193 183 271 245 228 215 198 231 242 197 186 171 168 167 156 163 163 161 159 122 157 135 165 164 107 90 82 121 94 113 95
350 325 296 309 314 317 319 325 319 321 361 398 257 237 195 186 193 273 248 233 224 196 218 234 201 194 183 159 167 164 161 163 158 158 159 134 163 141 138 160 173 146 117 75 100
341 334 319 327 294 316 319 312 320 335 335 405 258 202 183 192 213 183 195 256 239 229 198 214 237 247 200 194 176 173 173 165 170 181 176 157 156 162 164 166 164 167 167 130 95
354 346 331 301 322 327 300 312 320 322 376 356 385 250 240 223 215 196 193 197 258 241 229 209 203 220 242 237 219 193 176 166 163 163 162 167 169 168 143 182 167 166 153 159 164
394 368 354 323 322 309 299 304 326 335 334 360 321 189 250 238 225 221 191 191 194 249 244 231 226 211 196 208 235 249 219 187 178 177 176 173 166 182 170 142 164 171 161 170 175
371 426 346 293 330 361 373 359 377 314 321 324 355 319 254 249 227 203 180 188 199 191 267 253 241 235 237 231 204 221 239 246 206 189 191 184 173 163 169 174 181 171 171 175 164
365 420 318 300 301 277 234 354 339 373 333 319 319 328 322 258 248 242 230 212 220 216 194 230 216 212 252 236 233 203 213 221 245 245 241 198 195 197 198 166 163 165 169 174 172
231 256 348 316 298 287 350 359 312 319 349 343 341 322 313 315 270 267 243 188 212 190 206 198 227 240 227 263 241 233 209 206 214 244 246 244 241 230 225 222 217 184 199 188 183
173 272 264 359 324 308 291 352 397 405 338 316 318 314 244 313 330 244 263 239 213 209 225 210 207 223 230 257 265 248 235 226 222 206 207 213 225 249 252 251 247 250 249 242 241
158 243 233 350 369 332 311 359 400 403 394 315 318 315 314 312 302 309 211 257 251 200 201 203 204 209 224 235 245 249 259 249 240 227 202 221 221 215 219 221 221 219 224 236 241
205 140 212 231 277 362 352 353 379 351 344 322 163 288 307 307 307 309 313 277 256 246 206 210 207 207 208 221 247 279 277 272 266 261 237 226 226 230 240 242 247 248 251 261 295
190 205 148 223 248 244 308 360 337 406 334 337 323 335 324 316 317 325 324 340 269 199 197 211 218 210 217 217 218 221 260 272 279 278 274 269 277 277 255 250 254 256 261 269 280
185 207 205 195 166 200 245 358 353 344 335 341 343 343 322 320 317 314 318 315 259 274 216 207 205 208 212 219 229 225 227 224 225 228 233 235 235 240 242 246 245 250 265 274 267
161 187 203 202 209 137 233 223 279 266 348 348 334 332 334 340 340 344 345 344 336 344 331 268 219 222 219 222 221 232 232 229 224 227 234 236 238 245 241 243 254 257 256 303 301
131 183 162 194 191 153 148 211 219 301 260 359 358 345 339 334 311 326 337 343 367 365 344 239 225 227 237 234 228 228 232 242 238 239 242 250 251 248 253 80 269 290 98 292 271
132 132 189 164 201 214 200 171 184 196 248 324 238 324 347 360 357 351 341 339 331 334 338 343 315 348 271 224 223 280 283 347 259 277 282 324 302 297 294 286 274 270 272 276 259
129 130 145 150 202 191 169 200 209 140 211 195 200 268 234 314 318 317 315 313 322 329 333 337 348 346 342 343 331 321 312 309 301 301 290 286 277 270 263 260 259 260 280 251 251
127 179 130 203 141 204 187 218 174 219 168 145 128 198 255 167 236 283 294 320 316 305 299 302 302 306 303 293 289 295 291 287 281 281 269 271 256 253 254 254 245 241 256 243 253
167 126 151 132 140 147 188 144 190 179 211 217 215 239 150 159 137 136 142 205 252 290 281 291 292 293 287 284 288 286 283 278 270 272 266 258 259 250 252 242 245 246 252 253 244
171 169 163 153 189 130 133 193 182 177 197 196 206 198 211 205 191 240 239 261 205 181 229 144 219 214 273 276 262 266 271 237 243 258 261 250 204 221 264 257 256 243 267 265 247
173 183 185 154 172 150 176 134 129 174 192 154 197 210 193 210 215 211 174 162 249 274 230 133 149 236 137 136 136 171 219 140 252 269 277 267 270 288 249 143 278 255 267 220 248
168 177 173 168 175 179 181 193 176 137 189 186 197 204 196 207 218 217 188 199 168 129 135 155 157 258 246 233 228 240 242 141 141 144 211 219 216 208 159 221 219 258 294 246 234
183 164 172 167 167 170 175 179 143 186 194 187 153 189 193 183 205 194 218 178 198 209 222 214 212 246 274 215 258 242 243 232 208 213 218 230 226 227 247 217 246 159 159 315 187

GFSSW_2pvu_pres_132.txt.gz
Presure
335 342 357 393 396 421 439 445 469 494 249 176 168 192 265 250 231 240 233 199 189 201 172 152 151 154 164 186 135 105 133 107 87 79 92 89 115 148 133 127 127 97 108 151 83
311 326 321 338 352 376 428 499 501 554 246 238 232 190 235 252 224 213 234 241 199 180 189 186 154 154 154 154 155 180 121 113 132 85 81 80 81 107 137 118 94 109 82 85 128
336 308 300 312 312 314 342 344 358 403 281 219 244 179 159 265 237 226 211 202 242 195 184 171 162 149 154 155 154 159 168 159 120 61 84 103 78 68 111 79 120 107 88 109 82
334 314 317 318 312 309 311 334 356 353 317 249 228 180 186 205 243 233 224 209 216 238 198 187 176 163 148 158 153 142 151 163 155 139 108 124 108 108 89 115 121 126 102 92 123
330 312 312 315 313 314 315 319 340 348 385 240 229 214 167 192 250 242 231 237 201 220 242 192 185 177 188 156 145 159 146 150 159 166 174 111 116 124 114 110 95 74 63 102 74
309 304 256 298 303 303 321 318 338 343 387 274 242 243 166 174 174 262 246 224 226 204 216 238 189 188 183 167 176 161 155 162 148 152 131 140 121 142 108 83 83 85 85 99 84
308 364 323 313 322 303 313 328 325 349 378 284 258 241 239 180 173 179 253 242 232 217 213 220 239 193 190 188 176 172 173 177 176 150 154 144 156 164 163 135 169 119 132 79 124
326 298 288 347 340 316 331 327 333 362 371 404 282 246 256 196 167 210 204 276 251 231 208 203 224 229 233 192 192 186 176 172 170 164 154 154 153 156 159 127 118 145 162 165 165
343 329 325 374 370 360 366 332 369 355 345 382 367 265 237 226 200 183 202 211 272 249 229 214 202 207 217 236 226 198 188 185 164 171 170 167 170 166 165 163 157 148 142 164 133
261 352 355 331 324 326 367 346 355 339 328 327 356 302 204 229 213 200 191 187 211 265 248 231 228 209 200 215 223 247 237 195 191 189 173 165 171 170 154 160 168 172 180 148 177
242 252 363 362 358 350 309 349 329 335 338 314 336 333 261 240 227 201 205 181 191 272 263 249 237 238 230 221 195 209 219 240 248 257 195 195 192 176 163 178 182 166 147 169 141
217 236 319 364 373 401 338 329 352 323 312 319 337 318 321 250 241 227 214 202 181 194 190 189 199 246 241 238 237 232 192 210 214 219 222 233 248 246 246 213 197 179 174 178 176
178 202 237 330 374 386 407 343 336 355 313 313 311 323 337 281 244 235 228 211 206 200 206 190 188 193 225 256 248 247 244 240 221 222 199 205 211 216 228 232 252 255 246 211 200
193 161 214 257 276 394 397 427 348 325 310 314 325 306 296 304 274 248 235 230 217 214 213 185 194 190 189 203 219 265 262 215 218 225 268 260 238 203 213 218 220 221 234 250 249
196 203 184 209 242 392 377 375 362 331 329 325 318 311 313 346 162 270 248 242 209 224 221 191 215 215 220 194 201 224 231 225 222 240 243 266 269 248 246 212 206 217 217 219 231
174 219 211 208 220 244 255 337 370 336 333 348 319 310 310 329 332 334 289 259 245 240 232 229 210 206 199 205 199 202 207 218 227 244 260 279 292 274 273 269 270 268 232 229 245
194 197 229 139 206 214 226 256 273 363 356 335 336 332 327 323 326 327 330 339 298 247 255 223 231 202 200 198 205 208 211 210 209 213 222 234 253 257 257 263 263 265 265 264 264
154 187 180 204 207 211 135 226 242 257 279 370 358 347 343 330 327 330 329 330 268 299 269 264 260 261 196 202 213 216 221 218 221 220 228 227 231 233 233 239 240 242 243 239 242
136 167 180 208 199 208 139 197 162 220 251 287 357 365 359 348 345 351 352 347 350 330 350 340 272 265 210 207 240 212 207 212 226 232 227 231 234 232 236 240 238 241 248 251 253
128 139 136 189 185 162 212 177 185 139 226 239 262 312 296 338 351 357 345 341 356 359 358 364 374 338 222 221 215 217 225 223 230 231 226 228 231 232 268 245 271 292 258 282 273
127 178 129 187 137 193 205 220 207 146 141 141 198 238 299 274 258 333 334 340 344 350 361 372 357 376 385 387 360 365 350 339 320 296 315 307 300 292 286 289 280 87 272 269 289
191 129 184 131 185 161 169 195 212 211 203 202 141 141 220 240 266 287 240 318 318 320 324 325 326 320 321 322 316 311 307 301 297 294 290 281 278 284 272 276 268 266 267 256 260
181 181 136 127 167 128 197 200 180 199 185 185 221 205 203 133 203 149 217 279 267 240 296 306 297 298 297 301 297 296 282 287 283 286 276 275 278 264 272 256 244 255 259 265 262
173 185 162 174 134 188 128 160 183 153 207 189 212 191 198 208 206 214 193 142 252 283 270 236 231 260 299 290 271 264 287 232 264 270 282 263 276 231 224 250 248 269 199 211 258
155 166 185 149 179 179 140 192 131 147 199 136 201 204 214 195 185 211 203 183 171 212 203 203 264 268 166 135 134 211 224 228 225 222 220 241 216 249 252 254 237 233 278 300 242
154 169 168 177 151 182 183 161 182 187 140 136 205 197 189 194 225 212 186 222 235 150 214 206 225 176 159 163 163 270 265 260 181 144 250 198 141 237 223 224 226 243 142 141 146
138 157 166 185 176 172 144 184 180 169 169 189 194 141 195 193 190 200 191 202 221 208 225 184 226 212 206 211 216 188 251 250 201 166 182 273 162 282 242 239 231 247 245 175 279